[[{"header":{"parameterUnit":"m.s-1","parameterCategory":1,"la1":31.0,"la2":29.5877,"lo1":-88.7671,"lo2":-86.6584,"dy":0.0162,"dx":0.0185,"nx":115,"ny":88,"refTime":"2024-08-13T12:00:00:Z","depth":0,"parameterNumber":2,"parameterNumberName":"U-component_of_WINDS"},"data":[0.0,0.0,0.0,0.0,0.0,0.0,0.0,0.0,0.0,0.0,0.0,0.0,0.0,0.0,0.0,0.0,0.0,0.0,0.0,0.0,0.0,0.0,0.0,0.0,0.0,0.0,0.0,0.0,0.0,0.0,0.0,0.0,0.0,0.0,0.0,0.0,0.0,0.0,0.0,0.0,0.0,0.0,0.0,0.0,0.0,0.0,0.0,0.0,0.0,0.0,0.0,0.0,0.0,0.0,0.0,0.0,0.0,0.0,0.0,0.0,0.0,0.0,0.0,0.0,0.0,0.0,0.0,0.0,0.0,0.0,0.0,0.0,0.0,0.0,0.0,0.0,0.0,0.0,0.0,0.0,0.0,0.0,0.0,0.0,0.0,0.0,0.0,0.0,0.0,0.0,0.0,0.0,0.0,0.0,0.0,0.0,0.0,0.0,0.0,0.0,0.0,0.0,0.0,0.0,0.0,0.0,0.0,0.0,0.0,0.0,0.0,0.0,0.0,0.0,0.0,0.0,0.0,0.0,0.0,0.0,0.0,0.0,0.0,0.0,0.0,0.0,0.0,0.0,0.0,0.0,0.0,0.0,0.0,0.0,0.0,0.0,0.0,0.0,0.0,0.0,0.0,0.0,0.0,0.0,0.0,0.0,0.0,0.0,0.0,0.0,0.0,0.0,0.0,0.0,0.0,0.0,0.0,0.0,0.0,0.0,0.0,0.0,0.0,0.0,0.0,0.0,0.0,0.0,0.0,0.0,0.0,0.0,0.0,0.0,0.0,0.0,0.0,0.0,0.0,0.0,0.0,0.0,0.0,0.0,0.0,0.0,0.0,0.0,0.0,0.0,0.0,0.0,0.0,0.0,0.0,0.0,0.0,0.0,0.0,0.0,0.0,0.0,0.0,0.0,0.0,0.0,0.0,0.0,0.0,0.0,0.0,0.0,0.0,0.0,0.0,0.0,0.0,0.0,0.0,0.0,0.0,0.0,0.0,0.0,0.0,0.0,0.0,0.0,0.0,0.0,0.0,0.0,0.0,0.0,0.0,0.0,0.0,0.0,0.0,0.0,0.0,0.0,0.0,0.0,0.0,0.0,0.0,0.0,0.0,0.0,0.0,0.0,0.0,0.0,0.0,0.0,0.0,0.0,0.0,0.0,0.0,0.0,0.0,0.0,0.0,0.0,0.0,0.0,0.0,0.0,0.0,0.0,0.0,0.0,0.0,0.0,0.0,0.0,0.0,0.0,0.0,0.0,0.0,0.0,0.0,0.0,0.0,0.0,0.0,0.0,0.0,0.0,0.0,0.0,0.0,0.0,0.0,0.0,0.0,0.0,0.0,0.0,0.0,0.0,0.0,0.0,0.0,0.0,0.0,0.0,0.0,0.0,0.0,0.0,0.0,0.0,0.0,0.0,0.0,0.0,0.0,0.0,0.0,0.0,0.0,0.0,0.0,0.0,0.0,0.0,0.0,0.0,0.0,0.0,0.0,0.0,0.0,0.0,0.0,0.0,0.0,0.0,0.0,0.0,0.0,0.0,0.0,0.0,0.0,0.0,0.0,0.0,0.0,0.0,0.0,0.0,0.0,0.0,0.0,0.0,0.0,0.0,0.0,0.0,0.0,0.0,0.0,0.0,0.0,0.0,0.0,0.0,0.0,0.0,0.0,0.0,0.0,0.0,0.0,0.0,0.0,0.0,0.0,0.0,0.0,0.0,0.0,0.0,0.0,0.0,0.0,0.0,0.0,0.0,0.0,0.0,0.0,0.0,0.0,0.0,0.0,0.0,0.0,0.0,0.0,0.0,0.0,0.0,0.0,0.0,0.0,0.0,0.0,0.0,0.0,0.0,0.0,0.0,0.0,0.0,0.0,0.0,0.0,0.0,0.0,0.0,0.0,0.0,0.0,0.0,0.0,0.0,0.0,0.0,0.0,0.0,0.0,0.0,0.0,0.0,0.0,0.0,0.0,0.0,0.0,0.0,0.0,0.0,0.0,0.0,0.0,0.0,0.0,0.0,0.0,0.0,0.0,0.0,0.0,0.0,0.0,0.0,0.0,0.0,0.0,0.0,0.0,0.0,0.0,0.0,0.0,0.0,0.0,0.0,0.0,0.0,0.0,0.0,0.0,0.0,0.0,0.0,0.0,0.0,0.0,0.0,0.0,0.0,0.0,0.0,0.0,0.0,0.0,0.0,0.0,0.0,0.0,0.0,0.0,0.0,0.0,0.0,0.0,0.0,0.0,0.0,0.0,0.0,0.0,0.0,0.0,0.0,0.0,0.0,0.0,0.0,0.0,0.0,0.0,0.0,0.0,0.0,0.0,0.0,0.0,0.0,0.0,0.0,0.0,0.0,0.0,0.0,0.0,0.0,0.0,0.0,0.0,0.0,0.0,0.0,0.0,0.0,0.0,0.0,0.0,0.0,0.0,0.0,0.0,0.0,0.0,0.0,0.0,0.0,0.0,0.0,0.0,0.0,0.0,0.0,0.0,0.0,0.0,0.0,0.0,0.0,0.0,0.0,0.0,0.0,0.0,0.0,0.0,0.0,0.0,0.0,0.0,0.0,0.0,0.0,0.0,0.0,0.0,0.0,0.0,0.0,0.0,0.0,0.0,0.0,0.0,0.0,0.0,0.0,0.0,0.0,0.0,0.0,0.0,0.0,0.0,0.0,0.0,0.0,0.0,0.0,0.0,0.0,0.0,0.0,0.0,0.0,0.0,0.0,0.0,0.0,0.0,0.0,0.0,0.0,0.0,0.0,0.0,0.0,0.0,0.0,0.0,0.0,0.0,0.0,0.0,0.0,0.0,0.0,0.0,0.0,0.0,0.0,0.0,0.0,0.0,0.0,0.0,0.0,0.0,0.0,0.0,0.0,0.0,0.0,0.0,0.0,0.0,0.0,0.0,0.0,0.0,0.0,0.0,0.0,0.0,0.0,0.0,0.0,0.0,0.0,0.0,0.0,0.0,0.0,0.0,0.0,0.0,0.0,0.0,0.0,0.0,0.0,0.0,0.0,0.0,0.0,0.0,0.0,0.0,0.0,0.0,0.0,0.0,0.0,0.0,0.0,0.0,0.0,0.0,0.0,0.0,0.0,0.0,0.0,0.0,0.0,0.0,0.0,0.0,0.0,0.0,0.0,0.0,0.0,0.0,0.0,0.0,0.0,0.0,0.0,0.0,0.0,0.0,0.0,0.0,0.0,0.0,0.0,0.0,0.0,0.0,0.0,0.0,0.0,0.0,0.0,0.0,0.0,0.0,0.0,0.0,0.0,0.0,0.0,0.0,0.0,0.0,0.0,0.0,0.0,0.0,0.0,0.0,0.0,0.0,0.0,0.0,0.0,0.0,0.0,0.0,0.0,0.0,0.0,0.0,0.0,0.0,0.0,0.0,0.0,0.0,0.0,0.0,0.0,0.0,0.0,0.0,0.0,0.0,0.0,0.0,0.0,0.0,0.0,0.0,0.0,0.0,0.0,0.0,0.0,0.0,0.0,0.0,0.0,0.0,0.0,0.0,0.0,0.0,0.0,0.0,0.0,0.0,0.0,0.0,0.0,0.0,0.0,0.0,0.0,0.0,0.0,0.0,0.0,0.0,0.0,0.0,0.0,0.0,0.0,0.0,0.0,0.0,0.0,0.0,0.0,0.0,0.0,0.0,0.0,0.0,0.0,0.0,0.0,0.0,0.0,0.0,0.0,0.0,0.0,0.0,0.0,0.0,0.0,0.0,0.0,0.0,0.0,0.0,0.0,0.0,0.0,0.0,0.0,0.0,0.0,0.0,0.0,0.0,0.0,0.0,0.0,0.0,0.0,0.0,0.0,0.0,0.0,0.0,0.0,0.0,0.0,0.0,0.0,0.0,0.0,0.0,0.0,0.0,0.0,0.0,0.0,0.0,0.0,0.0,0.0,0.0,0.0,0.0,0.0,0.0,0.0,0.0,0.0,0.0,0.0,0.0,0.0,0.0,0.0,0.0,0.0,0.0,0.0,0.0,0.0,0.0,0.0,0.0,0.0,0.0,0.0,0.0,0.0,0.0,0.0,0.0,0.0,0.0,0.0,0.0,0.0,0.0,0.0,0.0,0.0,0.0,0.0,0.0,0.0,0.0,0.0,0.0,0.0,0.0,0.0,0.0,0.0,0.0,0.0,0.0,0.0,0.0,0.0,0.0,0.0,0.0,0.0,0.0,0.0,0.0,0.0,0.0,0.0,0.0,0.0,0.0,0.0,0.0,0.0,0.0,0.0,0.0,0.0,0.0,0.0,0.0,0.0,0.0,0.0,0.759,0.0,0.0,0.0,0.0,0.0,0.0,0.0,0.0,0.0,0.0,0.0,0.0,0.0,0.0,0.0,0.0,0.0,0.0,0.0,0.0,0.0,0.0,0.0,0.0,0.0,0.0,0.0,0.0,0.0,0.0,0.0,0.0,0.0,0.0,0.0,0.0,0.0,0.0,0.0,0.0,0.0,0.0,0.0,0.0,0.0,0.0,0.0,0.0,0.0,0.0,0.0,0.0,0.0,0.0,0.0,0.0,0.0,0.0,0.0,0.0,0.0,0.0,0.0,0.0,0.0,0.0,0.0,0.0,0.0,0.0,0.0,0.0,0.0,0.0,0.0,0.0,0.0,0.0,0.0,0.0,0.0,0.0,0.0,0.0,0.0,0.0,0.0,0.0,0.0,0.0,0.0,0.0,0.0,0.0,0.0,0.0,0.0,0.0,0.0,0.0,0.0,0.0,0.0,0.0,0.0,0.0,0.0,0.0,0.0,0.0,0.6855,0.7366,0.7515,0.7695,0.7854,0.0,0.0,0.0,0.0,0.0,0.0,0.0,0.0,0.0,0.0,0.0,0.0,0.0,0.0,0.0,0.0,0.0,0.0,0.0,0.0,0.0,0.0,0.0,0.0,0.0,0.0,0.0,0.0,0.0,0.0,0.0,0.0,0.0,0.0,0.0,0.0,0.0,0.0,0.0,0.0,0.0,0.0,0.0,0.0,0.0,0.0,0.0,0.0,0.0,0.0,0.0,0.0,0.0,0.0,0.0,0.0,0.0,0.0,0.0,0.0,0.0,0.0,0.0,0.0,0.0,0.0,0.0,0.0,0.0,0.0,0.0,0.0,0.0,0.0,0.0,0.0,0.0,0.0,0.0,0.0,0.0,0.0,0.0,0.0,0.0,0.0,0.0,0.0,0.0,0.0,0.0,0.0,0.0,0.0,0.0,0.0,0.0,0.0,0.0,0.0,0.0,0.0,0.0,0.0,0.0,0.0,0.0,0.0,0.0,0.0,0.0,0.0,0.8228,0.8319,0.8509,0.0,0.0,0.0,0.0,0.0,0.0,0.0,0.0,0.0,0.0,0.0,0.0,0.0,0.0,0.0,0.0,0.0,0.0,0.0,0.0,0.0,0.0,0.0,0.0,0.0,0.0,0.0,0.0,0.0,0.0,0.0,0.0,0.0,0.0,0.0,0.0,0.0,0.0,0.0,0.0,0.0,0.0,0.0,0.0,0.0,0.0,0.0,0.0,0.0,0.0,0.0,0.0,0.0,0.0,0.0,0.0,0.0,0.0,0.0,0.0,0.0,0.0,0.0,0.0,0.0,0.0,0.0,0.0,0.0,0.0,0.0,0.0,0.0,0.0,0.0,0.0,0.0,0.0,0.0,0.0,0.0,0.0,0.0,0.0,0.0,0.0,0.0,0.0,0.0,0.0,0.0,0.0,0.0,0.0,0.0,0.0,0.0,0.0,0.0,0.0,0.0,0.0,0.0,0.0,0.0,0.0,0.0,0.0,0.0,0.0,0.7666,0.9286,0.9862,0.0,0.9818,0.0,0.0,0.0,0.0,0.0,0.0,0.0,0.0,0.0,0.0,0.0,0.0,0.0,0.0,0.0,0.0,0.0,0.0,0.0,0.0,0.0,0.0,0.0,0.0,0.0,0.0,0.0,0.0,0.0,0.0,0.0,0.0,0.0,0.0,0.0,0.0,0.0,0.0,0.0,0.0,0.0,0.0,0.0,0.0,0.0,0.0,0.0,0.0,0.0,0.0,0.0,0.0,0.0,0.0,0.0,0.0,0.0,0.0,0.0,0.0,0.0,0.0,0.0,0.0,0.0,0.0,0.0,0.0,0.0,0.0,0.0,0.0,0.0,0.0,0.0,0.0,0.0,0.0,0.0,0.0,0.0,0.0,0.0,0.0,0.0,0.0,0.0,0.0,0.0,0.0,0.0,0.0,0.0,0.0,0.0,0.0,0.0,0.0,0.0,0.0,0.0,0.0,0.0,0.0,0.0,0.0,0.0,0.0,0.0,0.0,0.9065,1.0134,1.0382,1.0285,0.0,0.0,0.0,0.0,0.0,0.0,0.0,0.0,0.0,0.0,0.0,0.0,0.0,0.0,0.0,0.0,0.0,0.0,0.0,0.0,0.0,0.0,0.0,0.0,0.0,0.0,0.0,0.0,0.0,0.0,0.0,0.0,0.0,0.0,0.0,0.0,0.0,0.0,0.0,0.0,0.0,0.0,0.0,0.0,0.0,0.0,0.0,0.0,0.0,0.0,0.0,0.0,0.0,0.0,0.0,0.0,0.0,0.0,0.0,0.0,0.0,0.0,0.0,0.0,0.0,0.0,0.0,0.0,0.0,0.0,0.0,0.0,0.0,0.0,0.0,0.0,0.0,0.0,0.0,0.0,0.0,0.0,0.0,0.0,0.0,0.0,0.0,0.0,0.0,0.0,0.0,0.0,0.0,0.0,0.0,0.0,0.0,0.0,0.0,0.0,0.0,0.0,0.0,0.0,0.0,0.0,0.0,0.0,0.0,0.0,0.9141,1.0204,1.1205,1.1121,1.0642,0.9796,0.0,0.0,0.0,0.0,0.0,0.0,0.0,0.0,0.0,0.0,0.0,0.0,0.0,0.0,0.0,0.0,0.0,0.0,0.0,0.0,0.0,0.0,0.0,0.0,0.0,0.0,0.0,0.0,0.0,0.0,0.0,0.0,0.0,0.0,0.0,0.0,0.0,0.0,0.0,0.0,0.0,0.0,0.0,0.0,0.0,0.0,0.0,0.0,0.0,0.0,0.0,0.0,0.0,0.0,0.0,0.0,0.0,0.0,0.0,0.0,0.0,0.0,0.0,0.0,0.0,0.0,0.0,0.0,0.0,0.0,0.0,0.0,0.0,0.0,0.0,0.0,0.0,0.0,0.0,0.0,0.0,0.0,0.0,0.0,0.0,0.0,0.0,0.0,0.0,0.0,0.0,0.0,0.0,0.0,0.0,0.0,0.0,0.0,0.0,0.0,0.0,0.0,0.0,0.0,0.0,0.0,0.0,0.0,1.0737,1.0142,1.0761,1.2903,1.2372,1.1381,0.0,0.0,0.0,0.0,0.0,0.0,0.0,0.0,0.0,0.0,0.0,0.0,0.0,0.0,0.0,0.0,0.0,0.0,0.0,0.0,0.0,0.0,0.0,0.0,0.0,0.0,0.0,0.0,0.0,0.0,0.0,0.0,0.0,0.0,0.0,0.0,0.0,0.0,0.0,0.0,0.0,0.0,0.0,0.0,0.0,0.0,0.0,0.0,0.0,0.0,0.0,0.0,0.0,0.0,0.0,0.0,0.0,0.0,0.0,0.0,0.0,0.0,0.0,0.0,0.0,0.0,0.0,0.0,0.0,0.0,0.0,0.0,0.0,0.0,0.0,0.0,0.0,0.0,0.0,0.0,0.0,0.0,0.0,0.0,0.0,0.0,0.0,0.0,0.0,0.0,0.0,0.0,0.0,0.0,0.0,0.0,0.0,0.0,0.0,0.0,0.0,0.0,0.0,0.0,0.0,0.0,0.0,0.0,0.0,0.8604,0.9699,1.1776,1.4709,1.2482,1.1305,0.0,0.0,0.0,0.0,0.0,0.0,0.0,0.0,0.0,0.0,0.0,0.0,0.0,0.0,0.0,0.0,0.0,0.0,0.0,0.0,0.0,0.0,0.0,0.0,0.0,0.0,0.0,0.0,0.0,0.0,0.0,0.0,0.0,0.0,0.0,0.0,0.0,0.0,0.0,0.0,0.0,0.0,0.0,0.0,0.0,0.0,0.0,0.0,0.0,0.0,0.0,0.0,0.0,0.0,0.0,0.0,0.0,0.0,0.0,0.0,0.0,0.0,0.0,0.0,0.0,0.0,0.0,0.0,0.0,0.0,0.0,0.0,0.0,0.0,0.0,0.0,0.0,0.0,0.0,0.0,0.0,0.0,0.0,0.0,0.0,0.0,0.0,0.0,0.0,0.0,0.0,0.0,0.0,0.0,0.0,0.0,0.0,0.0,0.0,0.0,0.0,0.0,0.0,0.0,0.0,0.0,0.0,0.0,0.0,0.866,0.0,1.2913,0.0,1.257,1.1236,0.0,0.0,0.0,0.0,0.0,0.0,0.0,0.0,0.0,0.0,0.0,0.0,0.0,0.0,0.0,0.0,0.0,0.0,0.0,0.0,0.0,0.0,0.0,0.0,0.0,0.0,0.0,0.0,0.0,0.0,0.0,0.0,0.0,0.0,0.0,0.0,0.0,0.0,0.0,0.0,0.0,0.0,0.0,0.0,0.0,0.0,0.0,0.0,0.0,0.0,0.0,0.0,0.0,0.0,0.0,0.0,0.0,0.0,0.0,0.0,0.0,0.0,0.0,0.0,0.0,0.0,0.0,0.0,0.0,0.0,0.0,0.0,0.0,0.0,0.0,0.0,0.0,0.0,0.0,0.0,0.0,0.0,0.0,0.0,0.0,0.0,0.0,0.0,0.0,0.0,0.0,0.0,0.0,0.0,0.0,0.0,0.0,0.0,0.0,0.0,0.0,0.0,0.0,0.0,0.0,0.0,0.0,0.0,0.8281,1.1514,1.3455,1.3962,1.2997,1.2671,1.1178,0.0,0.0,0.0,0.0,0.0,0.0,0.0,0.0,0.0,0.0,0.0,0.0,0.0,0.0,0.0,0.0,0.0,0.0,0.0,0.0,0.0,0.0,0.0,0.0,0.0,0.0,0.0,0.0,0.0,0.0,0.0,0.0,0.0,0.0,0.0,0.0,0.0,0.0,0.0,0.0,0.0,0.0,0.0,0.0,0.0,0.0,0.0,0.0,0.0,0.0,0.0,0.0,0.0,0.0,0.0,0.0,0.0,0.0,0.0,0.0,0.0,0.0,0.0,0.0,0.0,0.0,0.0,0.0,0.0,0.0,0.0,0.0,0.0,0.0,0.0,0.0,0.0,0.0,0.0,0.0,0.0,0.0,0.0,0.0,0.0,0.0,0.0,0.0,0.0,0.0,0.0,0.0,0.0,0.0,0.0,0.0,0.0,0.0,0.0,0.0,0.0,0.0,0.0,0.0,0.0,0.0,0.0,0.0,0.0,1.0394,1.2097,1.3659,1.4811,1.2307,1.1163,0.0,0.0,0.0,0.0,0.0,0.0,0.0,0.0,0.0,0.0,0.0,0.0,0.0,0.0,0.0,0.0,0.0,0.0,0.0,0.0,0.0,0.0,0.0,0.0,0.0,0.0,0.0,0.0,0.0,0.0,0.0,0.0,0.0,0.0,0.0,0.0,0.0,0.0,0.0,0.0,0.0,0.0,0.0,0.0,0.0,0.0,0.0,0.0,0.0,0.0,0.0,0.0,0.0,0.0,0.0,0.0,0.0,0.0,0.0,0.0,0.0,0.0,0.0,0.0,0.0,0.0,0.0,0.0,0.0,0.0,0.0,0.0,0.0,0.0,0.0,0.0,0.0,0.0,0.0,0.0,0.0,0.0,0.0,0.0,0.0,0.0,0.0,0.0,0.0,0.0,0.0,0.0,0.0,0.0,0.0,0.0,0.0,0.0,0.0,0.0,0.0,0.0,0.0,0.0,0.0,0.0,0.0,0.0,0.0,1.1079,1.2903,1.433,1.5227,1.2904,1.1944,1.2439,0.0,0.0,0.0,0.0,0.0,0.0,0.0,0.0,0.0,0.0,0.0,0.0,0.0,0.0,0.0,0.0,0.0,0.0,0.0,0.0,0.0,0.0,0.0,0.0,0.0,0.0,0.0,0.0,0.0,0.0,0.0,0.0,0.0,0.0,0.0,0.0,0.0,0.0,0.0,0.0,0.0,0.0,0.0,0.0,0.0,0.0,0.0,0.0,0.0,0.0,0.0,0.0,0.0,0.0,0.0,0.0,0.0,0.0,0.0,0.0,0.0,0.0,0.0,0.0,0.0,0.0,0.0,0.0,0.0,0.0,0.0,0.0,0.0,0.0,0.0,0.0,0.0,0.0,0.0,0.0,0.0,0.0,0.0,0.0,0.0,0.0,0.0,0.0,0.0,0.0,0.0,0.0,0.0,0.0,0.0,0.0,0.0,0.0,0.0,0.0,0.0,0.0,0.0,0.0,0.0,0.0,0.0,0.0,1.305,1.5389,1.5905,1.45,1.4359,1.3372,0.0,0.0,0.0,0.0,0.0,0.0,0.0,0.0,0.0,0.0,0.0,0.0,0.0,0.0,0.0,0.0,0.0,0.0,0.0,0.0,0.0,0.0,0.0,0.0,0.0,0.0,0.0,0.0,0.0,0.0,0.0,0.0,0.0,0.0,0.0,0.0,0.0,0.0,0.0,0.0,0.0,0.0,0.0,0.0,0.0,0.0,0.0,0.0,0.0,0.0,0.0,0.0,0.0,0.0,0.0,0.0,0.0,0.0,0.0,0.0,0.0,0.0,0.0,0.0,0.0,0.0,0.0,0.0,0.0,0.0,0.0,0.0,0.0,0.0,0.0,0.0,0.0,0.0,0.0,0.0,0.0,0.0,0.0,0.0,0.0,0.0,0.0,0.0,0.0,0.0,0.0,0.0,0.0,0.0,0.0,0.0,0.0,0.0,0.0,0.0,0.0,0.0,0.0,0.0,0.0,0.0,0.0,0.0,0.0,1.3817,1.5984,1.7057,1.692,1.5475,1.4429,0.0,0.0,0.0,0.0,0.0,0.0,0.0,0.0,0.0,0.0,0.0,0.0,0.0,0.0,0.0,0.0,0.0,0.0,0.0,0.0,0.0,0.0,0.0,0.0,0.0,0.0,0.0,0.0,0.0,0.0,0.0,0.0,0.0,0.0,0.0,0.0,0.0,0.0,0.0,0.0,0.0,0.0,0.0,0.0,0.0,0.0,0.0,0.0,0.0,0.0,0.0,0.0,0.0,0.0,0.0,0.0,0.0,0.0,0.0,0.0,0.0,0.0,0.0,0.0,0.0,0.0,0.0,0.0,0.0,0.0,0.0,0.0,0.0,0.0,0.0,0.0,0.0,0.0,0.0,0.0,0.0,0.0,0.0,0.0,0.0,0.0,0.0,0.0,0.0,0.0,0.0,0.0,0.0,0.0,0.0,0.0,0.0,0.0,0.0,0.0,0.0,0.0,0.0,0.0,0.0,0.0,0.0,0.0,1.3134,1.4752,1.6413,1.7504,1.796,1.6705,1.5635,0.0,0.0,0.0,0.0,0.0,0.0,0.0,0.0,0.0,0.0,0.0,0.0,0.0,0.0,0.0,0.0,0.0,0.0,0.0,0.0,0.0,0.0,0.0,0.0,0.0,0.0,0.0,0.0,0.0,0.0,0.0,0.0,0.0,0.0,0.0,0.0,0.0,0.0,0.0,0.0,0.0,0.0,0.0,0.0,0.0,0.0,0.0,0.0,0.0,0.0,0.0,0.0,0.0,0.0,0.0,0.0,0.0,0.0,0.0,0.0,0.0,0.0,0.0,0.0,0.0,0.0,0.0,0.0,0.0,0.0,0.0,0.0,0.0,0.0,0.0,0.0,0.0,0.0,0.0,0.0,0.0,0.0,0.0,0.0,0.0,0.0,0.0,0.0,0.0,0.0,0.0,0.0,0.0,0.0,0.0,0.0,0.0,0.0,0.0,0.0,0.0,0.0,0.0,0.0,0.0,0.0,0.0,0.0,1.4065,1.568,1.6736,1.7544,1.8064,1.7847,1.6875,0.0,0.0,0.0,0.0,0.0,0.0,0.0,0.0,0.0,0.0,0.0,0.0,0.0,0.0,0.0,0.0,0.0,0.0,0.0,0.0,0.0,0.0,0.0,0.0,0.0,0.0,0.0,0.0,0.0,0.0,0.0,0.0,0.0,0.0,0.0,0.0,0.0,0.0,0.0,0.0,0.0,0.0,0.0,0.0,0.0,0.0,0.0,0.0,0.0,0.0,0.0,0.0,0.0,0.0,0.0,0.0,0.0,0.0,0.0,0.0,0.0,0.0,0.0,0.0,0.0,0.0,0.0,0.0,0.0,0.0,0.0,0.0,0.0,0.0,0.0,0.0,0.0,0.0,0.0,0.0,0.0,0.0,0.0,0.0,0.0,0.0,0.0,0.0,0.0,0.0,0.0,0.0,0.0,0.0,0.0,0.0,0.0,0.0,0.0,0.0,0.0,0.0,0.0,0.0,0.0,0.0,0.0,0.0,1.4065,1.5668,1.6736,1.7544,1.8092,1.7925,1.7393,0.0,0.0,0.0,0.0,0.0,0.0,0.0,0.0,0.0,0.0,0.0,0.0,0.0,0.0,0.0,0.0,0.0,0.0,0.0,0.0,0.0,0.0,0.0,0.0,0.0,0.0,0.0,0.0,0.0,0.0,0.0,0.0,0.0,0.0,0.0,0.0,0.0,0.0,0.0,0.0,0.0,0.0,0.0,0.0,0.0,0.0,0.0,0.0,1.6342,0.0,0.0,0.0,0.0,0.0,0.0,0.0,0.0,0.0,0.0,0.0,0.0,0.0,0.0,0.0,0.0,0.0,0.0,0.0,0.0,0.0,0.0,0.0,0.0,0.0,0.0,0.0,0.0,0.0,0.0,0.0,0.0,0.0,0.0,0.0,0.0,0.0,0.0,0.0,0.0,0.0,0.0,0.0,0.0,0.0,0.0,0.0,0.0,0.0,0.0,0.0,0.0,0.0,0.0,0.0,0.0,0.0,0.0,0.0,1.444,1.6015,1.6641,1.7312,1.8039,1.8033,1.7598,0.0,0.0,0.0,0.0,0.0,0.0,0.0,0.0,0.0,0.0,0.0,0.0,0.0,0.0,0.0,0.0,0.0,0.0,0.0,0.0,0.0,0.0,0.0,0.0,0.0,0.0,0.0,0.0,0.0,0.0,0.0,0.0,0.0,0.0,0.0,0.0,0.0,0.0,0.0,0.0,0.0,0.0,0.0,0.0,0.0,0.0,0.0,0.0,0.0,0.0,0.0,0.0,0.0,0.0,0.0,0.0,0.0,0.0,0.0,0.0,0.0,0.0,0.0,0.0,0.0,0.0,0.0,0.0,0.0,0.0,0.0,0.0,0.0,0.0,0.0,0.0,0.0,0.0,0.0,0.0,0.0,0.0,0.0,0.0,0.0,0.0,0.0,0.0,0.0,0.0,0.0,0.0,0.0,0.0,0.0,0.0,0.0,0.0,0.0,0.0,0.0,0.0,0.0,0.0,0.0,0.0,0.0,1.3231,1.4806,1.6398,1.6534,1.6993,1.7947,1.8052,1.7664,1.6734,0.0,0.0,0.0,0.0,0.0,0.0,0.0,0.0,0.0,0.0,0.0,0.0,0.0,0.0,0.0,0.0,0.0,0.0,0.0,0.0,0.0,0.0,0.0,0.0,0.0,0.0,0.0,0.0,0.0,0.0,0.0,0.0,0.0,0.0,0.0,0.0,0.0,0.0,1.3094,1.5113,0.0,0.0,0.0,0.0,0.0,0.0,0.0,0.0,1.7642,0.0,0.0,0.0,0.0,0.0,0.0,0.0,0.0,0.0,0.0,0.0,0.0,0.0,0.0,0.0,0.0,0.0,0.0,0.0,0.0,0.0,0.0,0.0,0.0,0.0,0.0,0.0,0.0,0.0,0.0,0.0,0.0,0.0,0.0,0.0,0.0,0.0,0.0,0.0,0.0,0.0,0.0,0.0,0.0,0.0,0.0,0.0,0.0,0.0,0.0,0.0,0.0,0.0,0.0,0.0,0.0,1.3026,1.3306,1.441,1.6441,1.6534,1.6795,1.7422,1.7867,1.7712,1.6877,0.0,0.0,0.0,0.0,0.0,0.0,0.0,0.0,0.0,0.0,0.0,0.0,0.0,0.0,0.0,0.0,0.0,0.0,0.0,0.0,0.0,0.0,0.0,0.0,0.0,0.0,0.0,0.0,0.0,0.0,0.0,0.0,0.0,0.0,0.0,0.0,0.0,0.0,0.0,1.7137,1.8316,0.0,0.0,0.0,0.0,0.0,0.0,0.0,0.0,1.8418,0.0,0.0,0.0,0.0,0.0,0.0,0.0,0.0,0.0,0.0,0.0,0.0,0.0,0.0,0.0,0.0,0.0,0.0,0.0,0.0,0.0,0.0,0.0,0.0,0.0,0.0,0.0,0.0,0.0,0.0,0.0,0.0,0.0,0.0,0.0,0.0,0.0,0.0,0.0,0.0,0.0,0.0,0.0,0.0,0.0,0.0,0.0,0.0,0.0,0.0,0.0,0.0,0.0,0.0,0.0,1.2636,1.3882,1.5144,1.6454,1.6534,1.6752,1.7258,1.7151,1.7001,0.0,0.0,0.0,0.0,0.0,0.0,0.0,0.0,0.0,0.0,0.0,0.0,0.0,0.0,0.0,0.0,0.0,0.0,0.0,0.0,0.0,0.0,0.0,0.0,0.0,0.0,0.0,0.0,0.0,0.0,0.0,0.0,0.0,0.0,0.0,0.0,0.0,0.0,0.0,0.0,1.7622,1.8599,1.9131,0.0,0.0,0.0,0.0,0.0,0.0,1.9231,1.8941,0.0,0.0,0.0,0.0,0.0,0.0,0.0,0.0,0.0,0.0,0.0,0.0,0.0,0.0,0.0,0.0,0.0,0.0,0.0,0.0,0.0,0.0,0.0,0.0,0.0,0.0,0.0,0.0,0.0,0.0,0.0,0.0,0.0,0.0,0.0,0.0,0.0,0.0,0.0,0.0,0.0,0.0,0.0,0.0,0.0,0.0,0.0,0.0,0.0,0.0,0.0,0.0,0.0,0.0,0.0,1.2223,1.4356,1.5788,1.6466,1.6534,1.6723,1.7133,1.6698,1.6526,0.0,0.0,0.0,0.0,0.0,0.0,0.0,0.0,0.0,0.0,0.0,0.0,0.0,0.0,0.0,0.0,0.0,0.0,0.0,0.0,0.0,0.0,0.0,0.0,0.0,0.0,0.0,0.0,0.0,0.0,0.0,0.0,0.0,0.0,0.0,0.0,0.0,0.0,0.0,0.0,0.0,1.9053,1.9609,1.9241,0.0,0.0,0.0,0.0,2.0036,1.9842,0.0,0.0,0.0,0.0,0.0,0.0,0.0,0.0,0.0,0.0,0.0,0.0,0.0,0.0,0.0,0.0,0.0,0.0,0.0,0.0,0.0,0.0,0.0,0.0,0.0,0.0,0.0,0.0,0.0,0.0,0.0,0.0,0.0,0.0,0.0,0.0,0.0,0.0,0.0,0.0,0.0,0.0,0.0,0.0,0.0,0.0,0.0,0.0,0.0,0.0,0.0,0.0,0.0,0.0,0.0,0.0,1.2613,1.4186,1.5502,1.6459,1.6534,1.6509,1.6595,1.7411,1.7102,0.0,0.0,0.0,0.0,0.0,0.0,0.0,0.0,0.0,0.0,0.0,0.0,0.0,0.0,0.0,0.0,0.0,0.0,0.0,0.0,0.0,0.0,0.0,0.0,0.0,0.0,0.0,0.0,0.0,0.0,0.0,0.0,0.0,0.0,0.0,0.0,0.0,0.0,0.0,0.0,0.0,2.0908,1.9854,1.9651,1.9794,0.0,0.0,1.9839,2.098,2.1424,0.0,0.0,0.0,0.0,0.0,0.0,0.0,0.0,0.0,0.0,0.0,0.0,0.0,0.0,0.0,0.0,0.0,0.0,0.0,0.0,0.0,0.0,0.0,0.0,0.0,0.0,0.0,0.0,0.0,0.0,0.0,0.0,0.0,0.0,0.0,0.0,0.0,0.0,0.0,0.0,0.0,0.0,0.0,0.0,0.0,0.0,0.0,0.0,0.0,0.0,0.0,0.0,0.0,0.0,0.0,1.1228,1.2719,1.4759,1.6032,1.6497,1.6534,1.6637,1.6951,1.6941,1.6559,0.0,0.0,0.0,0.0,0.0,0.0,0.0,0.0,0.0,0.0,0.0,0.0,0.0,0.0,0.0,0.0,0.0,0.0,0.0,0.0,0.0,0.0,0.0,0.0,0.0,0.0,0.0,0.0,0.0,0.0,0.0,0.0,0.0,0.0,0.0,0.0,0.0,0.0,0.0,0.0,0.0,0.0,2.0857,2.0827,0.0,0.0,0.0,2.1107,2.1784,0.0,0.0,0.0,0.0,0.0,0.0,0.0,0.0,0.0,0.0,0.0,0.0,0.0,0.0,0.0,0.0,0.0,0.0,0.0,0.0,0.0,0.0,0.0,0.0,0.0,0.0,0.0,0.0,0.0,0.0,0.0,0.0,0.0,0.0,0.0,0.0,0.0,0.0,0.0,0.0,0.0,0.0,0.0,0.0,0.0,0.0,0.0,0.0,0.0,0.0,0.0,0.0,0.0,0.0,0.0,0.0,0.0,1.2861,1.5271,1.6597,1.6722,1.6584,1.6816,1.7481,1.6923,0.0,0.0,0.0,0.0,0.0,0.0,0.0,0.0,0.0,0.0,0.0,0.0,0.0,0.0,0.0,0.0,0.0,0.0,0.0,0.0,0.0,0.0,0.0,0.0,0.0,0.0,0.0,0.8814,0.0,0.0,0.0,0.0,0.0,0.0,0.0,0.0,0.0,0.0,0.0,0.0,0.0,0.0,2.156,2.1904,2.2084,2.2233,0.0,0.0,2.2099,2.2561,2.2713,2.2708,0.0,0.0,0.0,0.0,0.0,0.0,0.0,0.0,0.0,0.0,0.0,0.0,0.0,0.0,0.0,0.0,0.0,0.0,0.0,0.0,0.0,0.0,0.0,0.0,0.0,0.0,0.0,0.0,0.0,0.0,0.0,0.0,0.0,0.0,0.0,0.0,0.0,0.0,0.0,0.0,0.0,0.0,0.0,0.0,0.0,0.0,0.0,0.0,0.0,0.0,0.0,0.0,0.0,0.0,1.2096,1.3188,1.5352,1.6785,1.7275,1.6785,1.702,1.8087,1.8018,1.7051,0.0,0.0,0.0,0.0,0.0,0.0,0.0,0.0,0.0,0.0,0.0,0.0,0.0,0.0,0.0,0.0,0.0,0.0,0.0,0.0,0.0,0.0,0.0,0.0,0.0,0.0,0.0,0.0,0.0,0.0,0.0,0.0,0.0,0.0,0.0,0.0,0.0,0.0,0.0,0.0,0.0,2.3206,2.2724,2.3101,2.3699,0.0,2.34,2.2843,2.3428,2.4324,2.434,2.2367,0.0,0.0,0.0,0.0,0.0,0.0,0.0,0.0,0.0,0.0,0.0,0.0,0.0,0.0,0.0,0.0,0.0,0.0,0.0,0.0,0.0,0.0,0.0,0.0,0.0,0.0,0.0,0.0,0.0,0.0,0.0,0.0,0.0,0.0,0.0,0.0,0.0,0.0,0.0,0.0,0.0,0.0,0.0,0.0,0.0,0.0,0.0,0.0,0.0,0.0,0.0,0.0,0.0,1.2303,1.377,1.5919,1.7162,1.742,1.7856,1.8271,1.8611,1.9014,1.8229,0.0,0.0,0.0,0.0,0.0,0.0,0.0,0.0,0.0,0.0,0.0,0.0,0.0,0.0,0.0,0.0,0.0,0.0,0.0,0.0,0.0,0.0,0.0,0.0,0.0,0.0,0.0,0.0,1.2239,1.3047,1.3032,0.0,0.0,0.0,0.0,0.0,0.0,0.0,0.0,0.0,0.0,2.3804,2.4403,2.4999,0.0,0.0,2.5699,2.5686,2.5879,2.5358,2.4671,2.3842,2.293,0.0,0.0,0.0,0.0,0.0,0.0,0.0,0.0,0.0,0.0,0.0,0.0,0.0,0.0,0.0,0.0,0.0,0.0,0.0,0.0,0.0,0.0,0.0,0.0,0.0,0.0,0.0,0.0,0.0,0.0,0.0,0.0,0.0,0.0,0.0,0.0,0.0,0.0,0.0,0.0,0.0,0.0,0.0,0.0,0.0,0.0,0.0,0.0,0.0,0.0,0.0,0.0,1.2688,1.4311,1.6376,1.7551,1.7865,1.8505,1.9025,1.947,1.9557,1.8887,0.0,0.0,0.0,0.0,0.0,0.0,0.0,0.0,0.0,0.0,0.0,0.0,0.0,0.0,0.0,0.0,0.0,0.0,0.0,0.0,0.0,0.0,0.0,0.0,0.0,0.0,0.0,0.0,1.3421,1.4019,1.384,0.0,0.0,0.0,0.0,0.0,0.0,0.0,0.0,0.0,0.0,2.4627,2.5734,2.6413,2.6807,2.6842,2.695,2.708,2.7121,2.6367,2.5681,2.5252,0.0,0.0,0.0,0.0,0.0,0.0,0.0,0.0,0.0,0.0,0.0,0.0,0.0,0.0,0.0,0.0,0.0,0.0,0.0,0.0,0.0,0.0,0.0,0.0,0.0,0.0,0.0,1.0753,0.0,0.0,0.983,0.0,0.0,0.0,0.0,0.0,0.0,0.0,0.0,0.0,0.0,0.0,0.0,0.0,0.0,0.0,0.0,0.0,0.0,0.0,0.0,0.0,0.0,1.3207,1.489,1.6547,1.7903,1.887,1.848,1.9045,2.0639,1.9596,1.8874,1.8623,0.0,0.0,0.0,0.0,0.0,0.0,0.0,0.0,0.0,0.0,0.0,0.0,0.0,0.0,0.0,0.0,0.0,0.0,0.0,0.0,0.0,0.0,0.0,0.0,0.0,0.0,1.3705,1.4363,1.4513,0.0,0.0,0.0,0.0,0.0,0.0,0.0,0.0,0.0,2.2517,2.4343,2.5809,2.6482,2.7101,2.7566,2.7625,2.6925,2.6436,2.6598,2.7428,2.7651,0.0,0.0,0.0,0.0,0.0,0.0,0.0,0.0,0.0,0.0,0.0,0.0,0.0,0.0,0.0,0.0,0.0,0.0,0.0,0.0,0.0,0.0,0.0,0.0,0.0,0.0,0.0,1.4483,1.3436,0.0,0.0,0.0,0.0,0.0,0.0,0.0,0.0,0.0,0.0,0.0,1.9355,2.0064,0.0,0.0,0.0,0.0,0.0,0.0,0.0,0.0,0.0,0.0,0.0,0.0,1.3912,1.5906,1.7262,1.8279,1.9007,1.9628,2.0218,2.0809,2.0764,2.0117,1.8728,0.0,0.0,0.0,0.0,0.0,0.0,0.0,0.0,0.0,0.0,0.0,0.0,0.0,0.0,0.0,0.0,0.0,0.0,0.0,0.0,0.0,0.0,0.0,0.0,0.0,1.3899,0.0,0.0,0.0,0.0,0.0,0.0,0.0,0.0,0.0,0.0,0.0,2.2667,2.4403,2.557,2.6662,2.7769,2.8427,2.9166,0.0,0.0,0.0,0.0,0.0,0.0,0.0,0.0,0.0,0.0,0.0,0.0,0.0,0.0,2.7947,2.5041,2.4825,2.5023,2.4696,0.0,0.0,0.0,0.0,0.0,0.0,0.0,0.0,0.0,0.0,0.0,0.0,0.0,0.0,1.7176,1.6787,1.5904,0.0,0.0,0.0,0.0,0.0,0.0,0.0,0.0,2.0393,2.165,2.2099,2.2712,2.2682,0.0,2.162,1.9854,0.0,0.0,0.0,0.0,0.0,0.0,0.0,0.0,1.5171,1.6785,1.7915,1.8756,1.9284,2.0065,2.0647,2.1112,2.1742,2.1219,1.943,1.7939,1.6608,0.0,0.0,0.0,0.0,0.0,0.0,0.0,0.0,0.0,0.0,0.0,0.0,0.0,0.0,0.0,0.0,0.0,0.0,0.0,0.0,0.0,0.0,0.0,1.4752,0.0,0.0,0.0,0.0,0.0,0.0,0.0,0.0,0.0,2.144,2.2936,2.4687,2.6422,2.7021,2.7694,2.8786,0.0,0.0,0.0,0.0,0.0,0.0,0.0,2.9922,3.0168,2.8994,2.8254,2.8925,2.952,2.9906,2.9813,0.0,0.0,2.7744,2.7178,2.7194,2.7484,2.8305,2.9007,2.8982,2.9954,3.0681,0.0,0.0,0.0,0.0,0.0,0.0,0.0,0.0,1.945,1.9556,0.0,1.9375,0.0,0.0,0.0,0.0,1.713,1.9534,0.0,0.0,2.3477,2.4732,2.4657,2.4118,2.4103,2.4642,2.4627,2.3939,2.2499,1.8272,0.0,0.0,0.0,0.0,0.0,0.0,1.6881,1.7521,1.8555,1.9334,1.9811,1.9836,2.0434,2.1635,2.2353,2.2069,2.0827,2.0094,1.8837,1.6891,1.562,0.0,0.0,0.0,0.0,0.0,0.0,0.0,0.0,0.0,0.0,0.0,0.0,0.0,0.0,0.0,0.0,0.0,0.0,0.0,0.0,1.5037,0.0,0.0,0.0,0.0,0.0,0.0,0.0,0.0,0.0,0.0,2.3116,2.5076,2.7126,2.8442,0.0,0.0,0.0,0.0,2.9603,2.9756,3.0092,3.0227,2.9635,3.0633,3.1182,3.0482,0.0,0.0,3.145,3.1394,3.145,3.12,3.1412,3.1753,3.2253,3.1106,3.0425,3.1019,3.0679,3.0531,3.1155,3.1589,3.1798,2.1915,0.0,0.0,0.0,0.0,2.1615,2.2554,2.4592,2.3273,2.2991,2.3415,2.2113,0.0,0.0,0.0,0.0,0.0,0.0,2.3535,2.4941,2.6183,2.6991,2.7455,2.726,2.7021,2.6722,2.6258,2.536,2.4044,2.2742,2.0572,1.764,0.0,0.0,0.0,0.0,1.8611,1.9132,1.9823,2.0275,2.0467,2.0413,2.0849,2.1677,2.2353,2.2503,2.2113,2.147,2.0408,1.8912,1.8193,0.0,0.0,0.0,0.0,0.0,0.0,0.0,0.0,0.0,0.0,0.0,0.0,0.0,0.0,0.0,0.0,0.0,0.0,0.0,1.5094,1.5964,1.6967,0.0,0.0,0.0,0.0,0.0,0.0,0.0,0.0,0.0,2.6826,2.7545,2.8338,0.0,0.0,2.9535,3.0163,3.0644,3.1273,3.2231,3.2872,0.0,3.3058,3.2876,3.2902,3.3232,3.3833,3.3888,3.2983,3.29,3.293,3.283,3.2852,3.3108,3.3646,3.2751,3.2022,3.253,3.2935,3.3437,3.4154,3.4728,3.5301,2.5203,2.4484,2.3197,2.3201,2.4021,2.3305,2.4231,2.6104,2.5388,2.5426,2.6041,2.5339,2.4433,2.34,2.2892,0.0,0.0,0.0,2.5974,2.7395,2.8053,2.8592,2.8966,2.8996,2.8771,2.8353,2.7964,2.7365,2.6587,2.6063,2.4462,2.1889,0.0,0.0,1.9402,2.012,2.0655,2.1011,2.0998,2.1291,2.1852,2.2153,2.2478,2.2879,2.3259,2.346,2.3445,2.2562,2.171,2.0887,1.9914,1.847,0.0,0.0,0.0,0.0,0.0,0.0,0.0,0.0,0.0,0.0,0.0,1.1042,0.9773,0.0,0.0,0.0,1.3411,1.5156,1.7163,1.8164,0.0,0.0,0.0,0.0,0.0,0.0,0.0,2.6048,2.7575,2.8966,3.0013,3.0372,3.0582,3.0731,3.0746,3.0971,3.1614,0.0,3.2314,3.3328,3.3813,3.4088,3.4057,3.3675,3.362,3.4346,3.4469,3.4516,3.4334,3.4282,3.4282,3.4267,3.4319,3.4388,3.4836,3.4163,3.3769,3.4153,3.4552,3.5123,3.5883,3.6387,3.6941,2.8122,2.7908,2.482,2.3879,2.4432,2.4291,2.5026,2.6249,2.6438,2.7253,2.8484,2.8705,2.8368,2.7715,2.6467,0.0,2.6931,2.753,2.8173,2.8861,2.946,2.9729,2.9729,2.9684,2.9654,2.9639,2.9609,2.9594,2.949,2.8323,2.744,2.6782,2.5001,2.3718,2.302,2.2845,2.2887,2.2999,2.2219,2.2426,2.3733,2.4397,2.4713,2.4577,2.4604,2.4552,2.4477,2.3385,2.2768,2.2622,2.0895,1.951,1.8747,0.0,0.0,0.0,0.0,0.0,0.0,0.0,0.0,0.0,0.0,0.0,0.0,0.0,0.0,0.0,1.5845,0.0,1.9735,2.1081,0.0,0.0,0.0,2.4657,2.4193,2.6366,2.8083,2.8831,0.0,0.0,3.2527,3.3155,3.335,3.2751,3.2632,3.2811,3.341,3.3006,3.2886,3.3546,3.3634,3.3679,3.3845,3.3817,3.3967,3.4568,3.4562,3.4835,3.5295,3.5444,3.5474,3.5429,3.5474,3.5459,3.5474,3.5389,3.5531,3.5493,3.553,3.5776,3.6435,3.664,3.692,2.8348,2.8624,2.7419,2.6974,2.7088,2.6684,2.7323,2.8571,2.8866,2.9505,3.0395,3.0142,2.9699,2.9086,2.8771,2.8981,2.9579,2.9744,3.0178,3.0836,3.1001,3.1061,3.1046,3.0522,3.0283,3.0253,2.9804,2.9594,2.9579,2.9265,2.9026,2.8846,2.8382,2.6624,2.3652,2.4361,2.46,2.4121,2.4368,2.4395,2.4291,2.4576,2.4447,2.397,2.4353,2.4388,2.3864,2.355,2.3161,2.2724,2.1739,2.0677,1.9495,1.7264,0.0,0.0,0.0,0.0,0.0,0.0,0.0,0.0,0.0,1.4588,1.1768,0.0,1.6906,0.0,1.8295,2.0378,2.1814,2.2682,0.0,0.0,2.6602,2.741,2.8712,2.943,3.0268,3.145,3.1988,3.2527,3.317,3.3829,3.4188,3.4023,3.3574,3.3335,3.3484,3.3829,3.4068,3.4247,3.4666,3.5026,3.4996,3.5026,3.504,3.5235,3.525,3.5325,3.5474,3.5489,3.5489,3.5489,3.5489,3.5489,3.5489,3.5489,3.5529,3.5516,3.555,3.5734,3.6476,3.6636,3.6896,2.9038,2.9289,2.8976,2.8863,2.88,2.7984,2.8083,2.8886,2.9849,3.0498,3.0977,3.1573,3.1644,3.133,3.133,3.1509,3.1839,3.1839,3.2048,3.2392,3.2407,3.2258,3.1958,3.1584,3.1255,3.0956,3.0612,3.0447,3.0447,3.0133,2.9983,2.9983,2.9714,2.8494,2.6453,2.6649,2.6784,2.6798,2.6816,2.6343,2.5438,2.5771,2.5639,2.5007,2.501,2.4747,2.4073,2.349,2.3026,2.2724,2.1784,2.1051,2.0572,1.8653,1.7311,0.0,0.0,0.0,0.0,0.0,0.0,0.0,0.0,0.0,0.0,0.0,1.9271,1.9794,2.1425,2.3236,2.5136,2.6123,2.7395,2.916,2.9849,3.0522,3.133,3.1659,3.2243,3.326,3.338,3.3634,3.4307,3.4711,3.4936,3.4936,3.4622,3.4382,3.4412,3.4711,3.4936,3.4966,3.5265,3.5489,3.5489,3.5489,3.5489,3.5489,3.5489,3.5489,3.5489,3.5489,3.5489,3.5489,3.5489,3.5489,3.5489,3.5489,3.5489,3.5489,3.5489,3.5793,3.641,3.6599,3.6864,2.9779,2.9792,2.9934,2.9946,2.9704,2.9009,2.8518,2.8457,3.0223,3.1126,3.1377,3.2952,3.3574,3.3499,3.3499,3.3499,3.3499,3.3499,3.3499,3.3499,3.3499,3.3185,3.2647,3.2647,3.2332,3.1794,3.1779,3.1794,3.1764,3.1106,3.0761,3.0731,3.0133,2.9834,2.9819,2.9137,2.9049,2.9564,2.9011,2.8098,2.6929,2.7432,2.7335,2.6617,2.5959,2.5209,2.4462,2.349,2.2921,2.2877,2.1739,2.1335,2.1859,2.0064,1.8927,0.0,1.7775,0.0,0.0,0.0,0.0,0.0,0.0,0.0,0.0,2.0632,2.2293,2.3969,2.4881,2.6363,2.8757,3.0058,3.1046,3.1676,3.2886,3.3395,3.2856,3.335,3.3978,3.4547,3.4607,3.4861,3.537,3.5489,3.5489,3.5459,3.5415,3.537,3.5459,3.5444,3.5444,3.5489,3.5489,3.5489,3.5489,3.5489,3.5489,3.5489,3.5489,3.5489,3.5489,3.5489,3.5489,3.5489,3.5489,3.5489,3.5489,3.5489,3.5489,3.5489,3.5489,3.5703,3.6245,3.6369,3.6711,2.9779,2.9856,3.062,3.0482,2.9921,3.1163,3.0863,2.9618,3.142,3.2826,3.3819,3.4152,3.3993,3.3514,3.3499,3.3499,3.3499,3.3499,3.3499,3.3499,3.3499,3.344,3.3305,3.3305,3.3245,3.3125,3.3125,3.3125,3.311,3.2467,3.2138,3.2123,3.1495,3.115,3.1165,0.0,0.0,0.0,2.946,2.9271,2.9029,2.8629,2.7814,2.6632,2.5944,0.0,2.3879,2.4088,2.4253,2.4238,2.349,0.0,0.0,0.0,0.0,0.0,0.0,0.0,0.0,0.0,0.0,0.0,2.3313,2.2521,2.1365,2.4283,2.6422,2.6826,2.8382,2.9819,3.081,3.1659,3.2392,3.3066,3.3814,3.4233,3.4128,3.4696,3.5175,3.5295,3.531,3.5355,3.5459,3.5489,3.5489,3.5489,3.5489,3.5489,3.5489,3.5489,3.5489,3.5489,3.5489,3.5489,3.5489,3.5489,3.5489,3.5489,3.5489,3.5489,3.5489,3.5489,3.5489,3.5489,3.5489,3.5489,3.5489,3.5489,3.5489,3.5489,3.5489,3.5569,3.5703,3.5703,3.5721,2.9779,2.9856,3.0846,3.0908,0.0,3.2033,3.2033,3.1267,3.2678,3.3922,3.4981,3.4981,3.4801,3.4487,3.4487,3.4487,3.4487,3.4502,3.4487,3.4487,3.4487,3.4307,3.3978,3.3978,3.3799,3.3499,3.3499,3.3499,3.3484,3.3155,3.3006,3.2991,3.2332,3.2018,3.2003,3.1689,3.1046,3.0043,3.0028,2.9894,2.9579,2.925,2.8442,2.7126,2.6752,0.0,0.0,0.0,0.0,0.0,0.0,0.0,0.0,0.0,0.0,2.2622,2.2622,2.2757,2.3086,2.3729,2.4687,2.5974,2.6692,2.6378,2.4717,2.7085,2.8846,2.949,3.0746,3.1913,3.2886,3.329,3.3754,3.4412,3.4786,3.4981,3.5026,3.5295,3.5489,3.5489,3.5489,3.5489,3.5489,3.5489,3.5489,3.5489,3.5489,3.5489,3.5489,3.5489,3.5489,3.5489,3.5489,3.5489,3.5489,3.5489,3.5489,3.5489,3.5489,3.5489,3.5489,3.5489,3.5489,3.5489,3.5489,3.5489,3.5489,3.5489,3.5489,3.5489,3.5489,3.5489,3.5489,3.5489,3.5489,2.9779,2.9856,3.0833,3.1167,3.1254,3.2393,3.2947,3.3171,0.0,0.0,0.0,3.5489,3.5489,3.5489,3.5489,3.5489,3.5489,3.5489,3.5489,3.5489,3.5489,3.5205,3.4666,3.4666,3.4367,3.3858,3.3844,3.3844,3.3844,3.3724,3.3679,3.3604,3.3006,3.2691,3.2662,3.2033,3.1435,3.0881,3.0761,3.0447,2.9939,2.9804,2.916,2.8,2.785,2.7186,2.6004,2.5555,2.533,2.5269,2.4792,2.4747,2.5285,2.5211,2.539,2.5899,2.6078,2.6378,2.6901,2.7051,2.7395,2.8038,2.934,2.9579,2.8353,2.94,3.0642,3.1943,3.2557,3.335,3.4532,3.4651,3.4876,3.5444,3.5489,3.5489,3.5489,3.5489,3.5489,3.5489,3.5489,3.5489,3.5489,3.5489,3.5489,3.5489,3.5489,3.5489,3.5489,3.5489,3.5489,3.5489,3.5489,3.5489,3.5489,3.5489,3.5489,3.5489,3.5489,3.5489,3.5489,3.5489,3.5489,3.5489,3.5489,3.5489,3.5489,3.5489,3.5489,3.5489,3.5489,3.5489,3.5489,3.5489,3.5489,2.9792,2.9869,3.0833,3.1167,3.1315,3.3101,3.4327,3.5001,3.4312,3.4543,3.5489,3.5489,3.5489,3.5489,3.5489,3.5489,3.5489,3.5489,3.5489,3.5489,3.5489,3.5459,3.537,3.537,3.531,3.522,3.5205,3.522,3.516,3.4622,3.4337,3.4262,3.3679,3.335,3.3305,3.2706,3.2317,3.2228,3.1689,3.1302,3.1255,3.0672,3.0028,2.9325,2.8742,2.8098,2.7335,2.7754,2.8038,2.8038,2.7949,2.7949,2.8008,2.7455,2.72,2.732,2.7859,2.8218,2.8323,2.8831,2.943,3.0073,3.133,3.1779,3.1091,3.1674,3.2647,3.3903,3.4098,3.4502,3.525,3.5325,3.537,3.5474,3.5489,3.5489,3.5489,3.5489,3.5489,3.5489,3.5489,3.5489,3.5489,3.5489,3.5489,3.5489,3.5489,3.5489,3.5489,3.5489,3.5489,3.5489,3.5489,3.5489,3.5489,3.5489,3.5489,3.5489,3.5489,3.5489,3.5489,3.5489,3.5489,3.5489,3.5489,3.5489,3.5489,3.5489,3.5489,3.5489,3.5489,3.5489,3.5539,3.5589,3.5604,3.0068,3.0023,3.1328,3.196,3.2105,3.3973,3.5067,3.5424,3.4986,3.5067,3.5489,3.5489,3.5489,3.5489,3.5489,3.5489,3.5489,3.5489,3.5489,3.5489,3.5489,3.5489,3.5489,3.5489,3.5489,3.5489,3.5489,3.5489,3.5474,3.5175,3.5026,3.4981,3.4352,3.3858,3.3499,3.32,3.3036,3.3021,3.2048,3.1467,3.1467,3.1168,3.0746,3.0103,2.9774,2.934,2.8697,2.8966,2.9116,2.9131,2.9131,2.9131,2.9131,2.8831,2.8719,2.8667,2.8951,2.928,2.9624,3.0597,3.145,3.2093,3.2677,3.3095,3.314,3.3395,3.3829,3.4427,3.4801,3.5145,3.5474,3.5489,3.5489,3.5489,3.5489,3.5489,3.5489,3.5489,3.5489,3.5489,3.5489,3.5489,3.5489,3.5489,3.5489,3.5489,3.5504,3.5504,3.5519,3.5519,3.5504,3.5489,3.5489,3.5489,3.5489,3.5489,3.5489,3.5489,3.5489,3.5489,3.5489,3.5489,3.5489,3.5489,3.5489,3.5489,3.5489,3.5489,3.5489,3.5489,3.5489,3.5589,3.5978,3.6399,3.646,3.0545,3.03,3.1726,3.2359,3.2585,3.4257,3.5053,3.5133,3.5133,3.5294,3.5504,3.5489,3.5489,3.5489,3.5489,3.5489,3.5489,3.5489,3.5489,3.5489,3.5489,3.5489,3.5489,3.5489,3.5489,3.5489,3.5489,3.5489,3.5489,3.5489,3.5489,3.5444,3.4981,3.4457,3.3963,3.3784,3.3709,3.3649,3.2572,3.1988,3.1973,3.1839,3.1495,3.1001,3.0806,3.0507,3.0058,3.0013,3.0013,3.0028,3.0028,3.0028,3.0013,3.0028,3.0088,3.0208,3.0238,3.0522,3.1165,3.2138,3.2946,3.3455,3.3634,3.3933,3.4412,3.4622,3.4711,3.4771,3.519,3.5489,3.5489,3.5489,3.5489,3.5489,3.5489,3.5489,3.5489,3.5489,3.5489,3.5489,3.5489,3.5489,3.5489,3.5489,3.5579,3.5729,3.5729,3.5759,3.5893,3.5938,3.5923,3.5878,3.5714,3.5504,3.5489,3.5489,3.5489,3.5489,3.5489,3.5489,3.5489,3.5489,3.5489,3.5489,3.5489,3.5489,3.5489,3.5514,3.5888,3.6429,3.6868,3.686,3.7418,3.8113,3.7955,3.1273,3.1235,3.1496,3.1692,3.2262,3.3202,3.3861,3.4167,3.4177,3.4691,3.5424,3.5489,3.5489,3.5489,3.5489,3.5489,3.5489,3.5489,3.5489,3.5489,3.5489,3.5489,3.5489,3.5489,3.5489,3.5489,3.5489,3.5489,3.5489,3.5489,3.5489,3.5489,3.5429,3.5355,3.5235,3.4681,3.4382,3.4382,3.3679,3.332,3.3275,3.2736,3.2392,3.2332,3.1749,3.1362,3.1345,3.136,3.136,3.1287,3.1302,3.1345,3.136,3.1302,3.1614,3.2168,3.2213,3.2527,3.3125,3.3335,3.344,3.3529,3.4083,3.4412,3.4532,3.5055,3.5415,3.54,3.5444,3.5489,3.5489,3.5489,3.5489,3.5489,3.5489,3.5489,3.5489,3.5489,3.5489,3.5489,3.5489,3.5489,3.5489,3.5549,3.5789,3.6237,3.6357,3.6537,3.6911,3.7015,3.703,3.6926,3.6327,3.5654,3.5579,3.5519,3.5594,3.5564,3.5534,3.5624,3.5684,3.5669,3.5534,3.5863,3.5639,3.5669,3.5584,3.557,3.6442,3.8306,3.9015,3.9476,3.9746,4.0205,3.9841,3.1687,3.148,3.1983,3.2712,3.3409,3.3772,3.3771,3.3648,3.4311,3.4553,3.4706,3.5213,3.5489,3.5489,3.5489,3.5489,3.5489,3.5489,3.5489,3.5489,3.5489,3.5489,3.5489,3.5489,3.5489,3.5489,3.5489,3.5489,3.5489,3.5489,3.5489,3.5489,3.5489,3.5489,3.5474,3.522,3.5085,3.507,3.4831,3.4681,3.4562,3.3634,3.3095,3.308,3.2826,3.2706,3.2691,3.2691,3.2677,3.2691,3.2677,3.2691,3.2691,3.2691,3.2811,3.3066,3.3095,3.338,3.4023,3.4083,3.4247,3.4637,3.4921,3.5085,3.51,3.5355,3.5489,3.5489,3.5489,3.5489,3.5489,3.5489,3.5489,3.5489,3.5489,3.5489,3.5489,3.5489,3.5489,3.5489,3.5489,3.5504,3.5564,3.5863,3.6178,3.6507,3.6761,3.7165,3.7404,3.7404,3.7404,3.736,3.6926,3.6507,3.6193,3.6088,3.6088,3.6088,3.6088,3.6133,3.6507,3.6626,3.6641,3.6596,3.6522,3.6447,3.6343,3.5977,3.6366,3.8877,3.9961,4.0062,4.0593,4.1288,4.123,3.2227,3.2041,3.262,3.3225,3.3695,3.3708,3.35,3.3349,3.4001,3.4256,3.4212,3.4976,3.5348,3.5318,3.5448,3.5489,3.5489,3.5489,3.5489,3.5489,3.5489,3.5489,3.5489,3.5489,3.5489,3.5489,3.5489,3.5489,3.5489,3.5489,3.5489,3.5489,3.5489,3.5489,3.5489,3.5489,3.5489,3.5489,3.5489,3.5489,3.5355,3.4547,3.3963,3.3769,3.3589,3.3499,3.3499,3.3499,3.3499,3.3499,3.3499,3.3499,3.3499,3.3499,3.3574,3.3769,3.3948,3.4247,3.4726,3.4756,3.4966,3.5429,3.5489,3.5489,3.5489,3.5489,3.5489,3.5489,3.5489,3.5489,3.5489,3.5489,3.5489,3.5489,3.5489,3.5489,3.5489,3.5489,3.5489,3.5489,3.5489,3.5594,3.5818,3.6327,3.6806,3.709,3.7419,3.7793,3.7928,3.8018,3.8003,3.7958,3.7958,3.7614,3.6941,3.6731,3.6746,3.6746,3.6731,3.6881,3.7345,3.7336,3.7419,3.7007,3.73,3.7345,3.6984,3.6618,3.6941,3.917,4.0305,4.0716,4.171,4.2235,4.2663,3.3031,3.298,3.3079,3.2811,3.2331,3.2415,3.2551,3.2856,3.2934,3.345,3.4195,3.4711,3.4907,3.5004,3.5341,3.5519,3.5489,3.5489,3.5489,3.5489,3.5489,3.5489,3.5489,3.5489,3.5489,3.5489,3.5489,3.5489,3.5489,3.5489,3.5489,3.5489,3.5489,3.5489,3.5489,3.5489,3.5489,3.5489,3.5489,3.5489,3.5489,3.5415,3.5026,3.4442,3.3858,3.3604,3.3574,3.3529,3.3544,3.3529,3.3589,3.3559,3.3544,3.3559,3.3844,3.4397,3.5026,3.537,3.54,3.54,3.5444,3.5489,3.5489,3.5489,3.5489,3.5489,3.5489,3.5489,3.5489,3.5489,3.5489,3.5489,3.5489,3.5489,3.5489,3.5504,3.5549,3.5609,3.5504,3.5594,3.5669,3.5908,3.6402,3.6985,3.7569,3.8018,3.8287,3.8527,3.899,3.9215,3.9185,3.917,3.911,3.8871,3.7704,3.7375,3.7375,3.7375,3.7389,3.7449,3.7396,3.7371,3.7416,3.7521,3.7638,3.7682,3.7526,3.7961,3.8781,4.0096,4.1002,4.1737,4.2195,4.2905,4.3312,3.3081,3.3081,3.3081,3.2955,3.278,3.2767,3.268,3.2465,3.3088,3.3331,3.3453,3.4134,3.4877,3.5497,3.5241,3.5251,3.5454,3.5489,3.5489,3.5489,3.5489,3.5489,3.5489,3.5489,3.5489,3.5489,3.5489,3.5489,3.5489,3.5489,3.5489,3.5489,3.5489,3.5489,3.5489,3.5489,3.5489,3.5489,3.5489,3.5489,3.5489,3.5489,3.537,3.5145,3.4906,3.4786,3.4786,3.4786,3.4786,3.4786,3.4786,3.4786,3.4786,3.4786,3.4876,3.5115,3.537,3.5489,3.5489,3.5489,3.5489,3.5489,3.5489,3.5489,3.5489,3.5489,3.5489,3.5489,3.5489,3.5489,3.5489,3.5489,3.5504,3.5489,3.5504,3.5699,3.6028,3.6148,3.6267,3.6611,3.6716,3.6836,3.709,3.7629,3.8123,3.8377,3.8766,3.911,3.932,3.9424,3.9424,3.9424,3.9409,3.9275,3.8886,3.8287,3.8048,3.8033,3.8078,3.8347,3.8396,3.8486,3.856,3.8471,3.8453,3.8438,3.8456,3.8858,3.9817,4.0452,4.1349,4.1885,4.2326,4.2972,4.3405,3.3081,3.3081,3.3081,3.3081,3.3081,3.3081,3.2855,3.2588,3.3206,3.3303,3.3102,3.3764,3.4519,3.5176,3.5224,3.5346,3.5592,3.5502,3.5489,3.5489,3.5489,3.5489,3.5489,3.5489,3.5489,3.5489,3.5489,3.5489,3.5489,3.5489,3.5489,3.5489,3.5489,3.5489,3.5489,3.5489,3.5489,3.5489,3.5489,3.5489,3.5489,3.5489,3.5489,3.5489,3.5489,3.5489,3.5489,3.5489,3.5489,3.5489,3.5489,3.5489,3.5489,3.5489,3.5489,3.5489,3.5489,3.5489,3.5489,3.5489,3.5489,3.5489,3.5489,3.5489,3.5489,3.5489,3.5489,3.5489,3.5489,3.5489,3.5549,3.5699,3.5744,3.5609,3.5699,3.5983,3.6432,3.6656,3.6941,3.727,3.7539,3.7674,3.7793,3.8317,3.8646,3.8721,3.9155,3.9409,3.9424,3.9424,3.9424,3.9424,3.9424,3.9424,3.923,3.8886,3.8721,3.8706,3.8646,3.899,3.917,3.9349,3.9424,3.9424,3.9424,3.9424,3.9598,3.9888,4.0384,4.0923,4.1397,4.193,4.2414,4.2954,4.3399,3.3081,3.3081,3.3081,3.3081,3.3081,3.3081,3.3068,3.3104,3.3104,3.3114,3.3119,3.3567,3.3806,3.4086,3.5097,3.5784,3.5911,3.5642,3.5589,3.5609,3.5519,3.5489,3.5489,3.5489,3.5489,3.5489,3.5489,3.5489,3.5489,3.5489,3.5489,3.5489,3.5489,3.5489,3.5489,3.5489,3.5489,3.5489,3.5489,3.5489,3.5489,3.5489,3.5489,3.5489,3.5489,3.5489,3.5489,3.5489,3.5489,3.5489,3.5489,3.5489,3.5489,3.5489,3.5489,3.5489,3.5489,3.5489,3.5489,3.5489,3.5489,3.5489,3.5489,3.5489,3.5489,3.5489,3.5489,3.5489,3.5504,3.5519,3.5654,3.6058,3.6193,3.5729,3.6118,3.6522,3.6716,3.7105,3.7449,3.7629,3.8063,3.8362,3.8542,3.8901,3.9245,3.929,3.9364,3.9424,3.9424,3.9424,3.9424,3.9424,3.9424,3.9424,3.9424,3.9409,3.9394,3.9364,3.9275,3.9349,3.9334,3.9424,3.9424,3.9424,3.9424,3.9424,4.0005,4.0377,4.09,4.1393,4.1724,4.2037,4.2411,4.2928,4.3497,3.3081,3.3081,3.3081,3.3081,3.3081,3.3081,3.3081,3.3081,3.3081,3.3081,3.3129,3.3221,3.3682,3.4186,3.4497,3.5204,3.6416,3.6025,3.5957,3.606,3.5744,3.5519,3.5519,3.5504,3.5489,3.5489,3.5489,3.5489,3.5489,3.5489,3.5489,3.5489,3.5489,3.5489,3.5489,3.5489,3.5489,3.5489,3.5489,3.5489,3.5489,3.5489,3.5489,3.5489,3.5489,3.5489,3.5489,3.5489,3.5489,3.5489,3.5489,3.5489,3.5489,3.5489,3.5489,3.5489,3.5489,3.5489,3.5489,3.5489,3.5489,3.5489,3.5489,3.5489,3.5489,3.5489,3.5489,3.5489,3.5504,3.5639,3.6103,3.6342,3.6432,3.6207,3.6746,3.7315,3.7734,3.8347,3.8736,3.8796,3.8975,3.908,3.911,3.9379,3.9409,3.9424,3.9424,3.9424,3.9424,3.9424,3.9424,3.9424,3.9424,3.9424,3.9424,3.9424,3.9424,3.9424,3.9424,3.9424,3.9424,3.9424,3.9424,3.9379,3.9379,3.9707,4.0309,4.1065,4.1791,4.1863,4.2093,4.2301,4.2423,4.2976,4.3723,3.3081,3.3081,3.3081,3.3081,3.3081,3.3081,3.3081,3.3081,3.3081,3.3081,3.3081,3.3081,3.3471,3.4043,3.4048,3.4834,3.5976,3.6105,3.6388,3.6552,3.6156,3.5878,3.5818,3.5594,3.5489,3.5489,3.5489,3.5489,3.5489,3.5489,3.5489,3.5489,3.5489,3.5489,3.5489,3.5489,3.5489,3.5489,3.5489,3.5489,3.5489,3.5489,3.5489,3.5489,3.5489,3.5489,3.5489,3.5489,3.5489,3.5489,3.5489,3.5489,3.5489,3.5489,3.5489,3.5489,3.5489,3.5489,3.5489,3.5489,3.5489,3.5489,3.5489,3.5489,3.5489,3.5489,3.5489,3.5489,3.5744,3.6043,3.6432,3.6985,3.715,3.7195,3.7539,3.8063,3.8676,3.914,3.9364,3.9349,3.9394,3.9424,3.9424,3.9424,3.9424,3.9424,3.9424,3.9424,3.9424,3.9424,3.9424,3.9424,3.9424,3.9424,3.9424,3.9424,3.9424,3.9424,3.9424,3.9424,3.9424,3.9424,3.9424,3.9388,3.9399,3.9817,4.0421,4.2186,4.3153,4.2893,4.2645,4.3178,4.3591,4.3619,4.4106,3.3081,3.3081,3.3081,3.3081,3.3081,3.3081,3.3081,3.3081,3.3081,3.3081,3.3081,3.3081,3.324,3.3471,3.428,3.4886,3.5171,3.6338,3.6981,3.7069,3.6813,3.6656,3.6477,3.5953,3.5699,3.5639,3.5549,3.5489,3.5489,3.5489,3.5489,3.5489,3.5489,3.5489,3.5489,3.5489,3.5489,3.5489,3.5489,3.5489,3.5489,3.5489,3.5489,3.5489,3.5489,3.5489,3.5489,3.5489,3.5489,3.5489,3.5489,3.5489,3.5489,3.5489,3.5489,3.5489,3.5489,3.5489,3.5489,3.5489,3.5489,3.5489,3.5489,3.5489,3.5489,3.5489,3.5564,3.5669,3.6103,3.6507,3.6836,3.7554,3.8182,3.8407,3.8422,3.8751,3.929,3.9409,3.9424,3.9424,3.9424,3.9424,3.9424,3.9424,3.9424,3.9424,3.9424,3.9424,3.9424,3.9424,3.9424,3.9424,3.9424,3.9681,3.9737,3.9864,3.9935,4.0393,4.013,3.9879,3.9715,3.9631,3.9703,3.9662,3.9788,4.0137,4.1091,4.2878,4.3822,4.3564,4.3756,4.4384,4.4514,4.436,4.4303,3.3081,3.3081,3.3081,3.3081,3.3081,3.3081,3.3081,3.3081,3.3081,3.3081,3.3081,3.3081,3.3471,3.4262,3.4511,3.5453,3.6576,3.7249,3.8046,3.8559,3.8147,3.7614,3.712,3.6522,3.6193,3.6118,3.5714,3.5489,3.5489,3.5489,3.5489,3.5489,3.5489,3.5489,3.5489,3.5489,3.5489,3.5489,3.5489,3.5489,3.5489,3.5489,3.5489,3.5489,3.5489,3.5489,3.5489,3.5489,3.5489,3.5489,3.5489,3.5489,3.5489,3.5489,3.5489,3.5489,3.5489,3.5489,3.5489,3.5489,3.5489,3.5489,3.5489,3.5489,3.5489,3.5504,3.5744,3.6088,3.6432,3.6911,3.7689,3.8197,3.8601,3.9065,3.908,3.917,3.9364,3.9424,3.9424,3.9424,3.9424,3.9424,3.9424,3.9424,3.9424,3.9424,3.9424,3.9424,3.9424,3.9424,3.9424,3.9424,3.9481,3.9849,4.01,4.0309,4.0706,4.1346,4.1245,4.0752,4.043,4.0118,4.027,4.0406,4.0698,4.1007,4.225,4.3784,4.3929,4.4097,4.427,4.457,4.457,4.4514,4.4457,3.3081,3.3081,3.3081,3.3081,3.3081,3.3081,3.3081,3.3081,3.3081,3.3081,3.3081,3.3081,3.3471,3.4024,3.4511,3.5305,3.6489,3.742,3.813,3.8561,3.8746,3.8153,3.7195,3.6611,3.6357,3.6058,3.5699,3.5519,3.5489,3.5489,3.5489,3.5489,3.5489,3.5489,3.5489,3.5489,3.5489,3.5489,3.5489,3.5489,3.5489,3.5489,3.5489,3.5489,3.5489,3.5489,3.5489,3.5489,3.5489,3.5489,3.5489,3.5489,3.5489,3.5489,3.5489,3.5489,3.5489,3.5489,3.5489,3.5489,3.5489,3.5489,3.5489,3.5669,3.5863,3.5938,3.6193,3.6761,3.7075,3.7644,3.8212,3.8631,3.899,3.9305,3.9424,3.9424,3.9424,3.9424,3.9424,3.9424,3.9424,3.9424,3.9424,3.9424,3.9424,3.9424,3.9424,3.9424,3.9424,3.9424,3.9424,3.9424,3.9722,4.0239,4.069,4.0946,4.1346,4.1997,4.2189,4.1706,4.1382,4.0968,4.1008,4.1342,4.1623,4.2085,4.3191,4.4038,4.4306,4.4417,4.4587,4.457,4.457,4.457,4.457,3.3081,3.3081,3.3081,3.3081,3.3081,3.3081,3.3081,3.3081,3.3081,3.3081,3.3081,3.3081,3.3313,3.3326,3.4441,3.491,3.5305,3.7112,3.7829,3.8383,3.8736,3.8497,3.712,3.6806,3.6462,3.5998,3.5669,3.5504,3.5489,3.5489,3.5489,3.5489,3.5489,3.5489,3.5489,3.5489,3.5489,3.5489,3.5489,3.5489,3.5489,3.5489,3.5489,3.5489,3.5489,3.5489,3.5489,3.5489,3.5489,3.5489,3.5489,3.5489,3.5489,3.5489,3.5489,3.5489,3.5489,3.5489,3.5489,3.5489,3.5579,3.5654,3.5669,3.5893,3.6402,3.6582,3.6836,3.7449,3.8048,3.8302,3.8601,3.908,3.932,3.9424,3.9424,3.9424,3.9424,3.9424,3.9424,3.9424,3.9424,3.9424,3.9424,3.9424,3.9424,3.9424,3.9424,3.9424,3.9424,3.9424,3.9424,3.9424,3.992,4.069,4.1147,4.1593,4.2045,4.2567,4.2831,4.2634,4.2588,4.2291,4.219,4.2301,4.2637,4.2989,4.3488,4.4131,4.4491,4.4604,4.457,4.457,4.457,4.457,4.457,3.3081,3.3081,3.3081,3.3081,3.3081,3.3081,3.3081,3.3081,3.3081,3.3081,3.3081,3.3081,3.3556,3.4275,3.4594,3.5534,3.6724,3.7587,3.8219,3.9104,3.9265,3.8931,3.7958,3.7479,3.712,3.6716,3.5908,3.5534,3.5519,3.5489,3.5489,3.5489,3.5489,3.5489,3.5489,3.5489,3.5489,3.5489,3.5489,3.5489,3.5489,3.5489,3.5489,3.5489,3.5489,3.5489,3.5489,3.5489,3.5489,3.5489,3.5489,3.5489,3.5489,3.5489,3.5489,3.5489,3.5489,3.5489,3.5504,3.5549,3.5744,3.6163,3.6267,3.6537,3.712,3.721,3.7524,3.8033,3.8317,3.8661,3.9065,3.9305,3.9409,3.9424,3.9424,3.9424,3.9424,3.9424,3.9424,3.9424,3.9424,3.9424,3.9424,3.9424,3.9424,3.9424,3.9424,3.9424,3.9424,3.9424,3.9424,3.9424,4.0309,4.108,4.1593,4.2252,4.2953,4.3273,4.341,4.3502,4.3464,4.3329,4.3101,4.333,4.3719,4.4018,4.4047,4.4196,4.4587,4.457,4.457,4.457,4.457,4.457,4.457,3.3081,3.3081,3.3081,3.3081,3.3081,3.3081,3.3081,3.3081,3.3081,3.3081,3.3081,3.3081,3.3484,3.394,3.4511,3.5615,3.6866,3.7663,3.8383,3.9031,3.8929,3.8736,3.8841,3.8153,3.7629,3.7015,3.6342,3.5863,3.5594,3.5504,3.5489,3.5489,3.5489,3.5489,3.5489,3.5489,3.5489,3.5489,3.5489,3.5489,3.5489,3.5489,3.5489,3.5489,3.5489,3.5489,3.5489,3.5489,3.5489,3.5489,3.5489,3.5489,3.5489,3.5489,3.5489,3.5489,3.5489,3.5489,3.5519,3.5804,3.6118,3.6477,3.6731,3.727,3.7689,3.7868,3.8197,3.8676,3.8901,3.9065,3.9379,3.9424,3.9424,3.9424,3.9424,3.9424,3.9424,3.9424,3.9424,3.9424,3.9424,3.9424,3.9424,3.9424,3.9424,3.9424,3.9424,3.9424,3.9424,3.9424,3.9424,3.9681,4.0706,4.1543,4.2062,4.2831,4.3856,4.4105,4.4179,4.4179,4.4148,4.4022,4.3955,4.4105,4.426,4.4345,4.444,4.457,4.457,4.457,4.457,4.457,4.457,4.457,4.457,3.3081,3.3081,3.3081,3.3081,3.3081,3.3081,3.3081,3.3081,3.3081,3.3081,3.3081,3.3081,3.3167,3.3326,3.4037,3.4966,3.5987,3.7007,3.7979,3.8782,3.8308,3.8576,3.8939,3.8736,3.8033,3.6866,3.6507,3.6148,3.5804,3.5549,3.5504,3.5489,3.5489,3.5489,3.5489,3.5489,3.5489,3.5489,3.5489,3.5489,3.5489,3.5489,3.5489,3.5489,3.5489,3.5489,3.5489,3.5489,3.5489,3.5489,3.5489,3.5489,3.5489,3.5489,3.5489,3.5504,3.5624,3.5774,3.5893,3.6252,3.6671,3.6746,3.7225,3.7853,3.8362,3.8586,3.8811,3.911,3.9349,3.9334,3.9424,3.9424,3.9424,3.9424,3.9424,3.9424,3.9424,3.9424,3.9424,3.9424,3.9424,3.9424,3.9424,3.9424,3.9424,3.9439,3.9454,3.9454,3.9454,3.9439,3.9454,3.961,4.0516,4.1804,4.2458,4.3273,4.431,4.4497,4.457,4.457,4.457,4.4434,4.4296,4.4434,4.4536,4.457,4.457,4.457,4.457,4.457,4.457,4.457,4.457,4.457,4.457,3.3081,3.3081,3.3081,3.3081,3.3081,3.3081,3.3081,3.3081,3.3081,3.3081,3.3081,3.3081,3.3081,3.3167,3.324,3.4037,3.5129,3.6067,3.7007,3.7919,3.7753,3.8234,3.8972,3.9158,3.8706,3.7973,3.7195,3.6552,3.6222,3.5818,3.5699,3.5564,3.5564,3.5564,3.5519,3.5489,3.5489,3.5489,3.5489,3.5489,3.5489,3.5489,3.5489,3.5489,3.5489,3.5489,3.5489,3.5489,3.5489,3.5489,3.5489,3.5519,3.5594,3.5594,3.5609,3.5684,3.6058,3.6327,3.6402,3.6896,3.7494,3.7928,3.8167,3.8512,3.9005,3.92,3.923,3.9305,3.9424,3.9424,3.9424,3.9424,3.9424,3.9424,3.9424,3.9424,3.9424,3.9424,3.9424,3.9424,3.9424,3.9439,3.9454,3.9529,3.9664,3.9753,3.9843,3.9753,3.9649,3.9574,3.9499,3.9783,4.0255,4.1609,4.2909,4.3739,4.457,4.4497,4.457,4.457,4.457,4.457,4.457,4.457,4.457,4.457,4.457,4.457,4.457,4.457,4.457,4.457,4.457,4.457,4.457,3.3081,3.3081,3.3081,3.3081,3.3081,3.3081,3.3081,3.3081,3.3081,3.3081,3.3081,3.3081,3.3081,3.3081,3.3081,3.3713,3.4664,3.5129,3.5974,3.6788,3.7007,3.7572,3.8634,3.9031,3.9173,3.8736,3.7958,3.724,3.6971,3.6686,3.6282,3.6043,3.6013,3.5863,3.5564,3.5489,3.5519,3.5519,3.5504,3.5489,3.5489,3.5489,3.5489,3.5489,3.5489,3.5489,3.5489,3.5489,3.5489,3.5564,3.5848,3.5983,3.6088,3.6267,3.6327,3.6222,3.6611,3.6956,3.7075,3.7554,3.8063,3.8347,3.8676,3.9035,3.932,3.9394,3.9424,3.9424,3.9424,3.9424,3.9424,3.9424,3.9424,3.9424,3.9439,3.9454,3.9454,3.9454,3.9514,3.9544,3.9529,3.9544,3.9499,3.9649,3.9873,4.0053,4.0217,4.0127,3.9963,3.9918,3.9888,4.0111,4.0546,4.186,4.3173,4.4029,4.4733,4.4739,4.4688,4.4671,4.4519,4.4502,4.4536,4.457,4.457,4.4294,4.457,4.457,4.457,4.457,4.457,4.457,4.457,4.457,4.457,3.3081,3.3081,3.3081,3.3081,3.3081,3.3081,3.3081,3.3081,3.3081,3.3081,3.3081,3.3081,3.3081,3.3081,3.3167,3.3556,3.4358,3.4345,3.4966,3.5748,3.5894,3.6462,3.751,3.8234,3.8649,3.8678,3.7989,3.786,3.7659,3.733,3.706,3.6791,3.6656,3.6447,3.6073,3.5908,3.5759,3.5669,3.5519,3.5489,3.5489,3.5489,3.5489,3.5489,3.5489,3.5489,3.5489,3.5489,3.5639,3.5833,3.6163,3.6522,3.6746,3.7255,3.7345,3.706,3.736,3.7539,3.7764,3.8227,3.8631,3.8736,3.9125,3.9349,3.9424,3.9424,3.9424,3.9424,3.9424,3.9424,3.9424,3.9424,3.9514,3.9664,3.9679,3.9709,3.9918,4.0023,4.0083,4.0023,3.9798,3.9798,3.9903,3.9933,4.0217,4.0606,4.0786,4.0786,4.0636,4.0606,4.0561,4.058,4.1124,4.2322,4.3408,4.4301,4.4842,4.5094,4.5026,4.4976,4.4671,4.4345,4.4339,4.4169,4.3777,4.3569,4.4052,4.444,4.4384,4.4384,4.4514,4.457,4.457,4.457,4.457,3.3081,3.3081,3.3081,3.3081,3.3081,3.3081,3.3081,3.3081,3.3081,3.3081,3.3081,3.3081,3.3081,3.3081,3.3081,3.324,3.3326,3.3484,3.3953,3.4733,3.4979,3.5521,3.629,3.6434,3.7405,3.7724,3.7062,3.7325,3.7634,3.7486,3.7449,3.733,3.73,3.7195,3.6911,3.6335,3.6372,3.6267,3.5753,3.5469,3.5534,3.5534,3.5489,3.5489,3.5549,3.5594,3.5654,3.5714,3.5893,3.6357,3.6462,3.6791,3.7285,3.7928,3.8197,3.8197,3.8242,3.8272,3.8377,3.8811,3.9185,3.9155,3.9364,3.9424,3.9424,3.9424,3.9424,3.9424,3.9424,3.9424,3.9439,3.9469,3.9709,4.0023,4.0232,4.0561,4.0831,4.0606,4.0666,4.0741,4.0606,4.0531,4.0561,4.0531,4.0576,4.0995,4.1324,4.1354,4.125,4.116,4.107,4.1008,4.1423,4.2553,4.3261,4.4201,4.4898,4.5261,4.5118,4.5041,4.4643,4.4192,4.3589,4.3339,4.2965,4.2725,4.3026,4.3383,4.3873,4.4064,4.4064,4.431,4.457,4.457,4.457,3.3081,3.3081,3.3081,3.3081,3.3081,3.3081,3.3081,3.3081,3.3081,3.3081,3.3081,3.3081,3.3081,3.3081,3.3081,3.3081,3.3081,3.3081,3.3326,3.3966,3.4358,3.4897,3.544,3.5894,3.6604,3.6618,3.6526,3.6493,3.7043,3.7565,3.7708,3.7834,3.7859,3.7719,3.7278,3.6531,3.6245,3.597,3.5575,3.5495,3.5821,3.5729,3.5519,3.5534,3.5878,3.6028,3.6118,3.6462,3.6671,3.7075,3.7285,3.7659,3.8048,3.8556,3.8975,3.896,3.8975,3.8975,3.9005,3.926,3.9379,3.9424,3.9424,3.9424,3.9424,3.9424,3.9424,3.9424,3.9424,3.9439,3.9559,3.9783,4.0053,4.0397,4.0801,4.11,4.1384,4.1324,4.1265,4.1354,4.1444,4.1399,4.1399,4.1489,4.1534,4.1758,4.2087,4.2222,4.1908,4.1489,4.1399,4.134,4.1903,4.2723,4.3205,4.3802,4.4658,4.5045,4.4765,4.468,4.4431,4.3939,4.324,4.2703,4.2374,4.2195,4.2125,4.2478,4.2993,4.3333,4.3638,4.3839,4.4128,4.457,4.4705,3.3471,3.3484,3.3227,3.3081,3.3081,3.3081,3.3081,3.3081,3.3081,3.3081,3.3081,3.3081,3.3081,3.3081,3.3081,3.3081,3.3081,3.3081,3.3081,3.3398,3.3797,3.4191,3.4415,3.5047,3.5426,3.5814,3.5278,3.5694,3.6341,3.6676,3.7049,3.7784,3.7536,3.7419,3.6968,3.6245,3.5664,3.5366,3.4952,3.5124,3.5558,3.5346,3.5404,3.568,3.6067,3.6499,3.6791,3.706,3.7345,3.7734,3.8003,3.8302,3.8676,3.905,3.9305,3.932,3.932,3.9334,3.932,3.9394,3.9424,3.9424,3.9424,3.9424,3.9424,3.9424,3.9424,3.9424,3.9694,3.9694,3.9798,4.0262,4.0756,4.1085,4.1384,4.1609,4.1833,4.1953,4.2087,4.2237,4.2327,4.2312,4.2357,4.2506,4.2581,4.2641,4.2821,4.3,4.2641,4.2058,4.2058,4.2058,4.2364,4.3159,4.3666,4.4039,4.4725,4.4869,4.4593,4.4245,4.3972,4.3323,4.2459,4.2056,4.1781,4.1166,4.0758,4.1465,4.2069,4.2227,4.2504,4.3131,4.3564,4.4138,4.4764,3.4594,3.4498,3.3471,3.3068,3.3081,3.3068,3.3068,3.2797,3.2982,3.3068,3.3081,3.3081,3.3081,3.3081,3.3081,3.3081,3.3081,3.3081,3.3081,3.3167,3.3167,3.3398,3.3556,3.3713,3.394,3.4498,3.4262,3.4719,3.5507,3.521,3.5707,3.6207,3.6536,3.6451,3.6164,3.5746,3.5169,3.4789,3.4485,3.4477,3.4673,3.4682,3.4919,3.564,3.597,3.6326,3.7207,3.7401,3.7615,3.8076,3.8396,3.8736,3.9125,3.932,3.9424,3.9424,3.9424,3.9424,3.9424,3.9424,3.9424,3.9424,3.9424,3.9424,3.9424,3.9424,3.9424,3.9544,3.9933,4.0232,4.0472,4.0905,4.1459,4.1773,4.2043,4.2372,4.2611,4.2836,4.297,4.3135,4.3105,4.2925,4.2895,4.2955,4.297,4.3,4.3015,4.3195,4.3225,4.2836,4.2955,4.3,4.306,4.3592,4.4355,4.4674,4.4573,4.4652,4.4601,4.4026,4.3476,4.2694,4.2157,4.1417,4.1133,4.0233,3.9757,4.0755,4.1428,4.1162,4.1462,4.2236,4.3019,4.3597,4.4417,3.3725,3.3628,3.2401,3.1952,3.1965,3.1965,3.1512,3.1057,3.1601,3.2426,3.3081,3.3081,3.3081,3.3081,3.3081,3.3081,3.3081,3.3081,3.3081,3.3081,3.3081,3.3081,3.3081,3.3154,3.33,3.3641,3.3313,3.3313,3.4024,3.3953,3.3953,3.4485,3.5426,3.6105,3.5995,3.5291,3.4808,3.4499,3.4191,3.416,3.4774,3.4458,3.4519,3.4831,3.5442,3.5662,3.6194,3.7157,3.7652,3.8062,3.8587,3.9011,3.9277,3.9337,3.9424,3.9424,3.9424,3.9424,3.9424,3.9424,3.9424,3.9424,3.9424,3.9424,3.9424,3.9424,3.9679,3.9948,4.0247,4.0561,4.107,4.1579,4.2102,4.2464,4.2686,4.3015,4.318,4.3299,4.3329,4.3269,4.3284,4.324,4.3254,4.3284,4.3299,4.3299,4.3329,4.3344,4.3344,4.3344,4.3344,4.3344,4.3344,4.3344,4.4004,4.4098,4.4174,4.4378,4.4548,4.3907,4.3202,4.2921,4.233,4.1423,4.0876,4.0577,4.0516,4.0694,4.0713,4.0447,4.0857,4.1586,4.2306,4.3103,4.3946,3.336,3.2907,3.1665,3.1223,3.1134,3.0855,3.0226,2.9681,3.0316,3.1412,3.2525,3.2884,3.3081,3.3081,3.3081,3.3081,3.3081,3.3081,3.3081,3.3081,3.3081,3.3081,3.3081,3.3167,3.3154,3.3081,3.3081,3.324,3.3313,3.3167,3.324,3.37,3.4402,3.4952,3.5034,3.4664,3.4275,3.4061,3.3936,3.3839,3.446,3.4192,3.42,3.4411,3.492,3.5421,3.5828,3.6668,3.7082,3.7577,3.8086,3.8752,3.9031,3.9192,3.9352,3.9424,3.9424,3.9424,3.9424,3.9424,3.9424,3.9424,3.9424,3.9424,3.9424,3.9454,3.9664,4.0277,4.0561,4.0965,4.1624,4.2252,4.2611,4.288,4.3,4.3254,4.3269,4.3344,4.3344,4.3329,4.3344,4.3344,4.3344,4.3344,4.3344,4.3344,4.3344,4.3344,4.3344,4.3344,4.3344,4.3344,4.3344,4.3344,4.3329,4.36,4.3789,4.3805,4.3868,4.3594,4.3113,4.2877,4.2417,4.1538,4.1174,4.1169,4.108,4.1025,4.0306,3.9602,4.0331,4.1186,4.2373,4.3176,4.366,3.385,3.2744,3.1616,3.1134,3.0855,2.9954,2.9315,2.9039,2.9498,3.0305,3.15,3.2513,3.3081,3.3081,3.3081,3.3081,3.3081,3.3081,3.3081,3.3081,3.3081,3.3081,3.3081,3.3081,3.3081,3.3081,3.3081,3.3081,3.3081,3.3081,3.3081,3.3081,3.3556,3.3628,3.324,3.324,3.3154,3.3142,3.3177,3.3297,3.3331,3.3398,3.3739,3.4222,3.4426,3.486,3.5372,3.5878,3.6225,3.6462,3.7266,3.7753,3.789,3.8782,3.9104,3.9192,3.9352,3.9424,3.9424,3.9424,3.9424,3.9424,3.9424,3.9484,3.9469,3.9529,3.9933,4.0771,4.11,4.1639,4.2282,4.2836,4.3075,4.3195,4.3299,4.3344,4.3344,4.3344,4.3344,4.3344,4.3344,4.3344,4.3344,4.3344,4.3344,4.3344,4.3344,4.3344,4.3344,4.3344,4.3344,4.3344,4.3344,4.3344,4.3344,4.3344,4.3394,4.3394,4.3382,4.3235,4.3117,4.2834,4.2289,4.1639,4.1682,4.1948,4.1525,4.1107,4.0636,4.0379,4.0314,4.1055,4.2206,4.3103,4.3439,3.2895,3.1604,3.0473,2.9498,2.8866,2.8402,2.7757,2.7295,2.8577,3.0033,3.1311,3.2513,3.3081,3.3081,3.3081,3.3081,3.3081,3.3081,3.3081,3.3081,3.3081,3.3081,3.3081,3.3081,3.3081,3.3081,3.3081,3.3081,3.3081,3.3081,3.3081,3.3081,3.3081,3.3081,3.3167,3.3081,3.3081,3.3081,3.3154,3.3154,3.3081,3.3167,3.3326,3.3725,3.3713,3.394,3.4415,3.4884,3.5197,3.5359,3.6239,3.6852,3.7007,3.789,3.8472,3.8634,3.887,3.9424,3.9424,3.9424,3.9424,3.9439,3.9499,3.9679,3.9963,4.0053,4.0651,4.143,4.1881,4.2451,4.294,4.312,4.3284,4.3284,4.3344,4.3344,4.3344,4.3344,4.3344,4.3344,4.3344,4.3344,4.3344,4.3344,4.3344,4.3344,4.3344,4.3344,4.3344,4.3344,4.3344,4.3344,4.3344,4.3344,4.3344,4.3344,4.3344,4.3329,4.3329,4.3334,4.309,4.2925,4.2851,4.2506,4.2596,4.2608,4.2276,4.1945,4.1602,4.1368,4.128,4.1415,4.2318,4.2814,4.2917,3.2339,3.1122,2.9943,2.868,2.7589,2.7125,2.639,2.6197,2.8308,2.9863,3.0765,3.2239,3.3081,3.3081,3.3081,3.3081,3.3081,3.3081,3.3081,3.3081,3.3081,3.3081,3.3081,3.3081,3.3081,3.3081,3.3081,3.3081,3.3081,3.3081,3.3081,3.3081,3.3081,3.3081,3.3081,3.3081,3.3081,3.3081,3.3081,3.3081,3.3081,3.3081,3.3081,3.3167,3.3167,3.324,3.3313,3.3713,3.4191,3.4581,3.5278,3.6119,3.6526,3.7405,3.8219,3.862,3.887,3.9424,3.9424,3.9424,3.9529,3.9813,3.9753,3.9963,4.0397,4.0561,4.152,4.2319,4.2758,4.3243,4.3667,4.3804,4.3974,4.3974,4.3771,4.3771,4.3409,4.3409,4.3329,4.3329,4.3344,4.3344,4.3344,4.3344,4.3344,4.3344,4.3344,4.3344,4.3344,4.3344,4.3344,4.3344,4.3344,4.3344,4.3344,4.3344,4.3344,4.3344,4.3344,4.3344,4.3314,4.3165,4.3269,4.3344,4.315,4.303,4.3011,4.2817,4.2458,4.2294,4.2297,4.2428,4.2718,4.2793,4.2823,3.2326,3.1122,2.9931,2.8729,2.7547,2.6451,2.5838,2.5907,2.8215,2.9315,2.9579,3.1965,3.2896,3.3081,3.3081,3.3081,3.3081,3.3081,3.3081,3.3081,3.3081,3.3081,3.3081,3.3081,3.3081,3.3081,3.3081,3.3081,3.3081,3.3081,3.3081,3.3081,3.3081,3.3081,3.3081,3.3081,3.3081,3.3081,3.3081,3.3081,3.3081,3.3081,3.3081,3.3081,3.3081,3.3081,3.3154,3.3326,3.3398,3.3953,3.5034,3.5814,3.6852,3.8204,3.8929,3.9337,3.9352,3.9352,3.9424,3.9424,3.9753,4.0113,4.0367,4.0427,4.0726,4.1265,4.2229,4.3179,4.3756,4.4273,4.4657,4.4927,4.518,4.4915,4.4646,4.4205,4.3708,4.3488,4.3409,4.3409,4.3344,4.3344,4.3344,4.3344,4.3344,4.3344,4.3344,4.3344,4.3344,4.3344,4.3344,4.3344,4.3344,4.3344,4.3344,4.3344,4.3344,4.3344,4.3344,4.3344,4.3344,4.3344,4.3344,4.3344,4.3344,4.3314,4.3175,4.319,4.3145,4.3105,4.2895,4.2891,4.3006,4.3051,4.3175,3.2339,3.1175,3.0379,2.9418,2.8203,2.6647,2.5883,2.5964,2.7494,2.8495,2.9498,3.1045,3.2277,3.3068,3.3081,3.3081,3.3081,3.3081,3.3081,3.3081,3.3081,3.3081,3.3081,3.3081,3.3081,3.3081,3.3081,3.3081,3.3081,3.3081,3.3081,3.3081,3.3081,3.3081,3.3081,3.3081,3.3081,3.3167,3.3167,3.324,3.324,3.324,3.324,3.324,3.3167,3.3167,3.324,3.324,3.3471,3.4415,3.4815,3.5359,3.6369,3.7496,3.8397,3.9337,3.9424,3.9424,3.9424,3.9424,3.9738,4.0412,4.0786,4.1399,4.1683,4.2136,4.2879,4.3892,4.4611,4.5023,4.5627,4.6016,4.5961,4.5618,4.5416,4.5196,4.469,4.4343,4.4205,4.363,4.3551,4.3409,4.3409,4.3344,4.3344,4.3344,4.3344,4.3344,4.3344,4.3344,4.3344,4.3344,4.3344,4.3344,4.3344,4.3344,4.3344,4.3344,4.3344,4.3344,4.3344,4.3344,4.3344,4.3344,4.3344,4.3344,4.3329,4.3344,4.3344,4.3344,4.3195,4.3269,4.3344,4.3344,4.3344,3.1967,3.1186,3.0443,2.9341,2.8144,2.7182,2.663,2.6703,2.7391,2.8192,2.9015,3.0807,3.2007,3.2669,3.2943,3.3081,3.3081,3.3081,3.3081,3.3081,3.3043,3.3081,3.3081,3.3068,3.3081,3.3081,3.3081,3.3081,3.3081,3.3081,3.3081,3.3081,3.3081,3.3081,3.3081,3.3081,3.3081,3.3326,3.3484,3.3641,3.3725,3.3725,3.3725,3.3641,3.3484,3.3313,3.3713,3.3713,3.4262,3.521,3.5534,3.616,3.7021,3.7904,3.856,3.9352,3.9424,3.9424,3.9424,3.9424,3.9948,4.0591,4.116,4.1818,4.2372,4.2839,4.3899,4.4966,4.5264,4.5706,4.64,4.6968,4.6609,4.6244,4.6244,4.6244,4.5905,4.5416,4.4856,4.4143,4.3849,4.3708,4.3551,4.3409,4.3344,4.3344,4.3344,4.3344,4.3344,4.3344,4.3344,4.3344,4.3344,4.3344,4.3344,4.3344,4.3344,4.3344,4.3344,4.3344,4.3344,4.3344,4.3344,4.3344,4.3344,4.3344,4.3344,4.3344,4.3344,4.3344,4.3344,4.3344,4.3344,4.3344,4.3344,3.1399,3.1342,3.0132,2.904,2.7783,2.7727,2.7587,2.762,2.7805,2.8046,2.8648,3.0786,3.1925,3.2281,3.2591,3.2792,3.2767,3.2754,3.2641,3.2943,3.288,3.2867,3.2905,3.3043,3.3081,3.3081,3.3081,3.3081,3.3081,3.3081,3.3081,3.3081,3.3081,3.3081,3.3081,3.3081,3.3167,3.324,3.4108,3.4746,3.4677,3.4677,3.4828,3.4664,3.4108,3.3713,3.4498,3.4897,3.521,3.6239,3.7021,3.7587,3.8219,3.8634,3.9192,3.9352,3.9424,3.9424,3.9424,3.9424,4.0172,4.0831,4.1414,4.2087,4.2671,4.309,4.4052,4.5149,4.5488,4.626,4.6952,4.7737,4.7803,4.7456,4.7373,4.7088,4.6592,4.6048,4.5342,4.4706,4.4373,4.4066,4.3488,4.3344,4.3344,4.3344,4.3344,4.3344,4.3344,4.3344,4.3344,4.3344,4.3344,4.3344,4.3344,4.3344,4.3344,4.3344,4.3344,4.3344,4.3344,4.3344,4.3344,4.3344,4.3344,4.3344,4.3344,4.3344,4.3344,4.3344,4.3344,4.3344,4.3344,4.3344,4.3344,3.1386,3.1348,3.0624,2.9464,2.8081,2.8046,2.7577,2.6903,2.7719,2.8503,2.9221,2.9977,3.1013,3.2006,3.1951,3.2089,3.2315,3.2164,3.1863,3.2039,3.224,3.2428,3.2516,3.2729,3.2955,3.3081,3.3081,3.3081,3.3081,3.3081,3.3081,3.3081,3.3081,3.3081,3.3081,3.3081,3.3167,3.324,3.4733,3.5278,3.4979,3.5507,3.5814,3.5507,3.5047,3.4897,3.5278,3.521,3.6015,3.7112,3.751,3.8144,3.8943,3.9265,3.9352,3.9424,3.9424,3.9424,3.9424,3.9499,4.0083,4.0876,4.1519,4.2252,4.2821,4.3165,4.3849,4.4915,4.5762,4.6592,4.744,4.8225,4.8861,4.8576,4.837,4.7868,4.729,4.6662,4.5905,4.5416,4.502,4.4358,4.3708,4.3344,4.3344,4.3344,4.3344,4.3344,4.3344,4.3344,4.3344,4.3344,4.3344,4.3344,4.3344,4.3344,4.3344,4.3344,4.3344,4.3344,4.3344,4.3344,4.3344,4.3344,4.3344,4.3344,4.3344,4.3344,4.3344,4.3344,4.3344,4.3344,4.3344,4.3344,4.3344,3.1552,3.1797,3.1151,3.0083,2.8961,2.8858,2.8518,2.8131,2.8609,2.9175,2.9667,3.0004,3.0626,3.1587,3.1386,3.1461,3.1763,3.1562,3.1524,3.1574,3.1612,3.1788,3.2026,3.224,3.2428,3.2616,3.298,3.3081,3.3043,3.3081,3.3081,3.3081,3.3081,3.3081,3.3081,3.3081,3.3081,3.324,3.5183,3.5654,3.5359,3.6212,3.6852,3.6632,3.6225,3.6146,3.6397,3.6411,3.7204,3.8069,3.8546,3.8708,3.9177,3.9352,3.9424,3.9424,3.9424,3.9424,3.9424,3.9559,3.9903,4.0666,4.1324,4.1953,4.2626,4.3034,4.3771,4.4721,4.5079,4.585,4.7088,4.8015,4.8576,4.8639,4.8656,4.8497,4.8225,4.7933,4.7239,4.6609,4.5992,4.5138,4.4343,4.3488,4.3409,4.3344,4.3344,4.3344,4.3344,4.3344,4.3344,4.3344,4.3344,4.3344,4.3344,4.3344,4.3344,4.3344,4.3344,4.3344,4.3344,4.3344,4.3344,4.3344,4.3344,4.3344,4.3344,4.3344,4.3344,4.3344,4.3344,4.3344,4.3344,4.3344,4.3344,3.1796,3.2236,3.1549,3.0633,2.9856,2.9779,2.9702,2.9702,2.9779,2.9779,2.9839,3.0253,3.0495,3.0783,3.0934,3.1148,3.1185,3.0972,3.106,3.1097,3.121,3.1286,3.1348,3.1461,3.1813,3.2139,3.2466,3.2729,3.2855,3.2867,3.2893,3.3031,3.3081,3.3081,3.3081,3.3081,3.3081,3.3556,3.4719,3.5734,3.6448,3.7329,3.7814,3.7663,3.7175,3.7098,3.7663,3.7994,3.8472,3.887,3.9177,3.9265,3.9337,3.9424,3.9424,3.9424,3.9424,3.9424,3.9424,3.9439,3.9858,4.0382,4.095,4.1579,4.2252,4.2965,4.3684,4.4236,4.4586,4.53,4.6539,4.7655,4.8225,4.8656,4.8798,4.9001,4.894,4.8861,4.8289,4.7589,4.6678,4.5762,4.4856,4.3927,4.3488,4.3329,4.3344,4.3344,4.3344,4.3344,4.3344,4.3344,4.3344,4.3344,4.3344,4.3344,4.3344,4.3344,4.3344,4.3344,4.3344,4.3344,4.3344,4.3344,4.3344,4.3344,4.3344,4.3344,4.3344,4.3344,4.3344,4.3344,4.3344,4.3344,4.3344,3.1947,3.1462,3.1254,3.0696,2.9856,2.9779,2.9779,2.9779,2.9779,2.9779,2.9817,2.9892,3.0156,3.0595,3.0181,3.0294,3.0696,3.0457,3.0181,3.0105,3.0595,3.0733,3.0871,3.1085,3.1386,3.1612,3.18,3.1976,3.2353,3.2428,3.2629,3.298,3.3068,3.3081,3.3081,3.3081,3.3167,3.3641,3.4191,3.521,3.5922,3.7035,3.8855,3.8694,3.8055,3.8383,3.8634,3.8144,3.8546,3.9017,3.9352,3.9352,3.9265,3.9265,3.9337,3.9192,3.9265,3.9424,3.9424,3.9424,3.9783,4.0157,4.0726,4.122,4.1848,4.2494,4.3117,4.3678,4.4082,4.4662,4.5778,4.7036,4.7737,4.8225,4.8513,4.8798,4.9001,4.8877,4.8593,4.7737,4.69,4.5992,4.5079,4.422,4.3488,4.3409,4.3344,4.3344,4.3344,4.3344,4.3344,4.3344,4.3344,4.3344,4.3344,4.3344,4.3344,4.3344,4.3344,4.3344,4.3344,4.3344,4.3344,4.3344,4.3344,4.3344,4.3344,4.3344,4.3344,4.3344,4.3344,4.3344,4.3344,4.3344,4.3344]},{"header":{"parameterUnit":"m.s-1","parameterCategory":1,"la1":31.0,"la2":29.5877,"lo1":-88.7671,"lo2":-86.6584,"dy":0.0162,"dx":0.0185,"nx":115,"ny":88,"refTime":"2024-08-13T12:00:00:Z","depth":0,"parameterNumber":3,"parameterNumberName":"V-component_of_WINDS"},"data":[0.0,0.0,0.0,0.0,0.0,0.0,0.0,0.0,0.0,0.0,0.0,0.0,0.0,0.0,0.0,0.0,0.0,0.0,0.0,0.0,0.0,0.0,0.0,0.0,0.0,0.0,0.0,0.0,0.0,0.0,0.0,0.0,0.0,0.0,0.0,0.0,0.0,0.0,0.0,0.0,0.0,0.0,0.0,0.0,0.0,0.0,0.0,0.0,0.0,0.0,0.0,0.0,0.0,0.0,0.0,0.0,0.0,0.0,0.0,0.0,0.0,0.0,0.0,0.0,0.0,0.0,0.0,0.0,0.0,0.0,0.0,0.0,0.0,0.0,0.0,0.0,0.0,0.0,0.0,0.0,0.0,0.0,0.0,0.0,0.0,0.0,0.0,0.0,0.0,0.0,0.0,0.0,0.0,0.0,0.0,0.0,0.0,0.0,0.0,0.0,0.0,0.0,0.0,0.0,0.0,0.0,0.0,0.0,0.0,0.0,0.0,0.0,0.0,0.0,0.0,0.0,0.0,0.0,0.0,0.0,0.0,0.0,0.0,0.0,0.0,0.0,0.0,0.0,0.0,0.0,0.0,0.0,0.0,0.0,0.0,0.0,0.0,0.0,0.0,0.0,0.0,0.0,0.0,0.0,0.0,0.0,0.0,0.0,0.0,0.0,0.0,0.0,0.0,0.0,0.0,0.0,0.0,0.0,0.0,0.0,0.0,0.0,0.0,0.0,0.0,0.0,0.0,0.0,0.0,0.0,0.0,0.0,0.0,0.0,0.0,0.0,0.0,0.0,0.0,0.0,0.0,0.0,0.0,0.0,0.0,0.0,0.0,0.0,0.0,0.0,0.0,0.0,0.0,0.0,0.0,0.0,0.0,0.0,0.0,0.0,0.0,0.0,0.0,0.0,0.0,0.0,0.0,0.0,0.0,0.0,0.0,0.0,0.0,0.0,0.0,0.0,0.0,0.0,0.0,0.0,0.0,0.0,0.0,0.0,0.0,0.0,0.0,0.0,0.0,0.0,0.0,0.0,0.0,0.0,0.0,0.0,0.0,0.0,0.0,0.0,0.0,0.0,0.0,0.0,0.0,0.0,0.0,0.0,0.0,0.0,0.0,0.0,0.0,0.0,0.0,0.0,0.0,0.0,0.0,0.0,0.0,0.0,0.0,0.0,0.0,0.0,0.0,0.0,0.0,0.0,0.0,0.0,0.0,0.0,0.0,0.0,0.0,0.0,0.0,0.0,0.0,0.0,0.0,0.0,0.0,0.0,0.0,0.0,0.0,0.0,0.0,0.0,0.0,0.0,0.0,0.0,0.0,0.0,0.0,0.0,0.0,0.0,0.0,0.0,0.0,0.0,0.0,0.0,0.0,0.0,0.0,0.0,0.0,0.0,0.0,0.0,0.0,0.0,0.0,0.0,0.0,0.0,0.0,0.0,0.0,0.0,0.0,0.0,0.0,0.0,0.0,0.0,0.0,0.0,0.0,0.0,0.0,0.0,0.0,0.0,0.0,0.0,0.0,0.0,0.0,0.0,0.0,0.0,0.0,0.0,0.0,0.0,0.0,0.0,0.0,0.0,0.0,0.0,0.0,0.0,0.0,0.0,0.0,0.0,0.0,0.0,0.0,0.0,0.0,0.0,0.0,0.0,0.0,0.0,0.0,0.0,0.0,0.0,0.0,0.0,0.0,0.0,0.0,0.0,0.0,0.0,0.0,0.0,0.0,0.0,0.0,0.0,0.0,0.0,0.0,0.0,0.0,0.0,0.0,0.0,0.0,0.0,0.0,0.0,0.0,0.0,0.0,0.0,0.0,0.0,0.0,0.0,0.0,0.0,0.0,0.0,0.0,0.0,0.0,0.0,0.0,0.0,0.0,0.0,0.0,0.0,0.0,0.0,0.0,0.0,0.0,0.0,0.0,0.0,0.0,0.0,0.0,0.0,0.0,0.0,0.0,0.0,0.0,0.0,0.0,0.0,0.0,0.0,0.0,0.0,0.0,0.0,0.0,0.0,0.0,0.0,0.0,0.0,0.0,0.0,0.0,0.0,0.0,0.0,0.0,0.0,0.0,0.0,0.0,0.0,0.0,0.0,0.0,0.0,0.0,0.0,0.0,0.0,0.0,0.0,0.0,0.0,0.0,0.0,0.0,0.0,0.0,0.0,0.0,0.0,0.0,0.0,0.0,0.0,0.0,0.0,0.0,0.0,0.0,0.0,0.0,0.0,0.0,0.0,0.0,0.0,0.0,0.0,0.0,0.0,0.0,0.0,0.0,0.0,0.0,0.0,0.0,0.0,0.0,0.0,0.0,0.0,0.0,0.0,0.0,0.0,0.0,0.0,0.0,0.0,0.0,0.0,0.0,0.0,0.0,0.0,0.0,0.0,0.0,0.0,0.0,0.0,0.0,0.0,0.0,0.0,0.0,0.0,0.0,0.0,0.0,0.0,0.0,0.0,0.0,0.0,0.0,0.0,0.0,0.0,0.0,0.0,0.0,0.0,0.0,0.0,0.0,0.0,0.0,0.0,0.0,0.0,0.0,0.0,0.0,0.0,0.0,0.0,0.0,0.0,0.0,0.0,0.0,0.0,0.0,0.0,0.0,0.0,0.0,0.0,0.0,0.0,0.0,0.0,0.0,0.0,0.0,0.0,0.0,0.0,0.0,0.0,0.0,0.0,0.0,0.0,0.0,0.0,0.0,0.0,0.0,0.0,0.0,0.0,0.0,0.0,0.0,0.0,0.0,0.0,0.0,0.0,0.0,0.0,0.0,0.0,0.0,0.0,0.0,0.0,0.0,0.0,0.0,0.0,0.0,0.0,0.0,0.0,0.0,0.0,0.0,0.0,0.0,0.0,0.0,0.0,0.0,0.0,0.0,0.0,0.0,0.0,0.0,0.0,0.0,0.0,0.0,0.0,0.0,0.0,0.0,0.0,0.0,0.0,0.0,0.0,0.0,0.0,0.0,0.0,0.0,0.0,0.0,0.0,0.0,0.0,0.0,0.0,0.0,0.0,0.0,0.0,0.0,0.0,0.0,0.0,0.0,0.0,0.0,0.0,0.0,0.0,0.0,0.0,0.0,0.0,0.0,0.0,0.0,0.0,0.0,0.0,0.0,0.0,0.0,0.0,0.0,0.0,0.0,0.0,0.0,0.0,0.0,0.0,0.0,0.0,0.0,0.0,0.0,0.0,0.0,0.0,0.0,0.0,0.0,0.0,0.0,0.0,0.0,0.0,0.0,0.0,0.0,0.0,0.0,0.0,0.0,0.0,0.0,0.0,0.0,0.0,0.0,0.0,0.0,0.0,0.0,0.0,0.0,0.0,0.0,0.0,0.0,0.0,0.0,0.0,0.0,0.0,0.0,0.0,0.0,0.0,0.0,0.0,0.0,0.0,0.0,0.0,0.0,0.0,0.0,0.0,0.0,0.0,0.0,0.0,0.0,0.0,0.0,0.0,0.0,0.0,0.0,0.0,0.0,0.0,0.0,0.0,0.0,0.0,0.0,0.0,0.0,0.0,0.0,0.0,0.0,0.0,0.0,0.0,0.0,0.0,0.0,0.0,0.0,0.0,0.0,0.0,0.0,0.0,0.0,0.0,0.0,0.0,0.0,0.0,0.0,0.0,0.0,0.0,0.0,0.0,0.0,0.0,0.0,0.0,0.0,0.0,0.0,0.0,0.0,0.0,0.0,0.0,0.0,0.0,0.0,0.0,0.0,0.0,0.0,0.0,0.0,0.0,0.0,0.0,0.0,0.0,0.0,0.0,0.0,0.0,0.0,0.0,0.0,0.0,0.0,0.0,0.0,0.0,0.0,0.0,0.0,0.0,0.0,0.0,0.0,0.0,0.0,0.0,0.0,0.0,0.0,0.0,0.0,0.0,0.0,0.0,0.0,0.0,0.0,0.0,0.0,0.0,0.0,0.0,0.0,0.0,0.0,0.0,0.0,0.0,0.0,0.0,0.0,0.0,0.0,0.0,0.0,0.0,0.0,0.0,0.0,0.0,0.0,0.0,0.0,0.0,0.0,0.0,0.0,0.0,0.0,0.0,0.0,0.0,0.0,0.0,0.0,0.0,0.0,0.0,0.0,0.0,0.0,0.0,0.0,0.0,0.0,0.0,0.0,0.0,0.0,0.0,0.0,0.0,0.0,0.0,0.0,0.0,0.0,0.0,0.0,0.0,0.0,0.0,0.0,0.0,0.0,0.0,0.0,0.0,0.0,0.0,0.0,0.0,0.0,0.0,0.0,0.0,0.0,0.0,0.0,0.0,0.0,0.0,-0.6894,0.0,0.0,0.0,0.0,0.0,0.0,0.0,0.0,0.0,0.0,0.0,0.0,0.0,0.0,0.0,0.0,0.0,0.0,0.0,0.0,0.0,0.0,0.0,0.0,0.0,0.0,0.0,0.0,0.0,0.0,0.0,0.0,0.0,0.0,0.0,0.0,0.0,0.0,0.0,0.0,0.0,0.0,0.0,0.0,0.0,0.0,0.0,0.0,0.0,0.0,0.0,0.0,0.0,0.0,0.0,0.0,0.0,0.0,0.0,0.0,0.0,0.0,0.0,0.0,0.0,0.0,0.0,0.0,0.0,0.0,0.0,0.0,0.0,0.0,0.0,0.0,0.0,0.0,0.0,0.0,0.0,0.0,0.0,0.0,0.0,0.0,0.0,0.0,0.0,0.0,0.0,0.0,0.0,0.0,0.0,0.0,0.0,0.0,0.0,0.0,0.0,0.0,0.0,0.0,0.0,0.0,0.0,0.0,0.0,0.0,-0.7547,-0.7021,-0.6947,-0.6778,-0.6532,0.0,0.0,0.0,0.0,0.0,0.0,0.0,0.0,0.0,0.0,0.0,0.0,0.0,0.0,0.0,0.0,0.0,0.0,0.0,0.0,0.0,0.0,0.0,0.0,0.0,0.0,0.0,0.0,0.0,0.0,0.0,0.0,0.0,0.0,0.0,0.0,0.0,0.0,0.0,0.0,0.0,0.0,0.0,0.0,0.0,0.0,0.0,0.0,0.0,0.0,0.0,0.0,0.0,0.0,0.0,0.0,0.0,0.0,0.0,0.0,0.0,0.0,0.0,0.0,0.0,0.0,0.0,0.0,0.0,0.0,0.0,0.0,0.0,0.0,0.0,0.0,0.0,0.0,0.0,0.0,0.0,0.0,0.0,0.0,0.0,0.0,0.0,0.0,0.0,0.0,0.0,0.0,0.0,0.0,0.0,0.0,0.0,0.0,0.0,0.0,0.0,0.0,0.0,0.0,0.0,0.0,0.0,0.0,0.0,0.0,0.0,0.0,-0.7027,-0.6888,-0.6588,0.0,0.0,0.0,0.0,0.0,0.0,0.0,0.0,0.0,0.0,0.0,0.0,0.0,0.0,0.0,0.0,0.0,0.0,0.0,0.0,0.0,0.0,0.0,0.0,0.0,0.0,0.0,0.0,0.0,0.0,0.0,0.0,0.0,0.0,0.0,0.0,0.0,0.0,0.0,0.0,0.0,0.0,0.0,0.0,0.0,0.0,0.0,0.0,0.0,0.0,0.0,0.0,0.0,0.0,0.0,0.0,0.0,0.0,0.0,0.0,0.0,0.0,0.0,0.0,0.0,0.0,0.0,0.0,0.0,0.0,0.0,0.0,0.0,0.0,0.0,0.0,0.0,0.0,0.0,0.0,0.0,0.0,0.0,0.0,0.0,0.0,0.0,0.0,0.0,0.0,0.0,0.0,0.0,0.0,0.0,0.0,0.0,0.0,0.0,0.0,0.0,0.0,0.0,0.0,0.0,0.0,0.0,0.0,0.0,0.0,-0.7801,-0.8397,-0.7775,0.0,-0.7705,0.0,0.0,0.0,0.0,0.0,0.0,0.0,0.0,0.0,0.0,0.0,0.0,0.0,0.0,0.0,0.0,0.0,0.0,0.0,0.0,0.0,0.0,0.0,0.0,0.0,0.0,0.0,0.0,0.0,0.0,0.0,0.0,0.0,0.0,0.0,0.0,0.0,0.0,0.0,0.0,0.0,0.0,0.0,0.0,0.0,0.0,0.0,0.0,0.0,0.0,0.0,0.0,0.0,0.0,0.0,0.0,0.0,0.0,0.0,0.0,0.0,0.0,0.0,0.0,0.0,0.0,0.0,0.0,0.0,0.0,0.0,0.0,0.0,0.0,0.0,0.0,0.0,0.0,0.0,0.0,0.0,0.0,0.0,0.0,0.0,0.0,0.0,0.0,0.0,0.0,0.0,0.0,0.0,0.0,0.0,0.0,0.0,0.0,0.0,0.0,0.0,0.0,0.0,0.0,0.0,0.0,0.0,0.0,0.0,0.0,-0.788,-0.7776,-0.7474,-0.7541,0.0,0.0,0.0,0.0,0.0,0.0,0.0,0.0,0.0,0.0,0.0,0.0,0.0,0.0,0.0,0.0,0.0,0.0,0.0,0.0,0.0,0.0,0.0,0.0,0.0,0.0,0.0,0.0,0.0,0.0,0.0,0.0,0.0,0.0,0.0,0.0,0.0,0.0,0.0,0.0,0.0,0.0,0.0,0.0,0.0,0.0,0.0,0.0,0.0,0.0,0.0,0.0,0.0,0.0,0.0,0.0,0.0,0.0,0.0,0.0,0.0,0.0,0.0,0.0,0.0,0.0,0.0,0.0,0.0,0.0,0.0,0.0,0.0,0.0,0.0,0.0,0.0,0.0,0.0,0.0,0.0,0.0,0.0,0.0,0.0,0.0,0.0,0.0,0.0,0.0,0.0,0.0,0.0,0.0,0.0,0.0,0.0,0.0,0.0,0.0,0.0,0.0,0.0,0.0,0.0,0.0,0.0,0.0,0.0,0.0,-0.8266,-0.7972,-0.7487,-0.7715,-0.7946,-0.8075,0.0,0.0,0.0,0.0,0.0,0.0,0.0,0.0,0.0,0.0,0.0,0.0,0.0,0.0,0.0,0.0,0.0,0.0,0.0,0.0,0.0,0.0,0.0,0.0,0.0,0.0,0.0,0.0,0.0,0.0,0.0,0.0,0.0,0.0,0.0,0.0,0.0,0.0,0.0,0.0,0.0,0.0,0.0,0.0,0.0,0.0,0.0,0.0,0.0,0.0,0.0,0.0,0.0,0.0,0.0,0.0,0.0,0.0,0.0,0.0,0.0,0.0,0.0,0.0,0.0,0.0,0.0,0.0,0.0,0.0,0.0,0.0,0.0,0.0,0.0,0.0,0.0,0.0,0.0,0.0,0.0,0.0,0.0,0.0,0.0,0.0,0.0,0.0,0.0,0.0,0.0,0.0,0.0,0.0,0.0,0.0,0.0,0.0,0.0,0.0,0.0,0.0,0.0,0.0,0.0,0.0,0.0,0.0,-1.0278,-0.8934,-0.8146,-0.8063,-0.8989,-0.8972,0.0,0.0,0.0,0.0,0.0,0.0,0.0,0.0,0.0,0.0,0.0,0.0,0.0,0.0,0.0,0.0,0.0,0.0,0.0,0.0,0.0,0.0,0.0,0.0,0.0,0.0,0.0,0.0,0.0,0.0,0.0,0.0,0.0,0.0,0.0,0.0,0.0,0.0,0.0,0.0,0.0,0.0,0.0,0.0,0.0,0.0,0.0,0.0,0.0,0.0,0.0,0.0,0.0,0.0,0.0,0.0,0.0,0.0,0.0,0.0,0.0,0.0,0.0,0.0,0.0,0.0,0.0,0.0,0.0,0.0,0.0,0.0,0.0,0.0,0.0,0.0,0.0,0.0,0.0,0.0,0.0,0.0,0.0,0.0,0.0,0.0,0.0,0.0,0.0,0.0,0.0,0.0,0.0,0.0,0.0,0.0,0.0,0.0,0.0,0.0,0.0,0.0,0.0,0.0,0.0,0.0,0.0,0.0,0.0,-0.8382,-0.7854,-0.7757,-0.8111,-0.8106,-0.8064,0.0,0.0,0.0,0.0,0.0,0.0,0.0,0.0,0.0,0.0,0.0,0.0,0.0,0.0,0.0,0.0,0.0,0.0,0.0,0.0,0.0,0.0,0.0,0.0,0.0,0.0,0.0,0.0,0.0,0.0,0.0,0.0,0.0,0.0,0.0,0.0,0.0,0.0,0.0,0.0,0.0,0.0,0.0,0.0,0.0,0.0,0.0,0.0,0.0,0.0,0.0,0.0,0.0,0.0,0.0,0.0,0.0,0.0,0.0,0.0,0.0,0.0,0.0,0.0,0.0,0.0,0.0,0.0,0.0,0.0,0.0,0.0,0.0,0.0,0.0,0.0,0.0,0.0,0.0,0.0,0.0,0.0,0.0,0.0,0.0,0.0,0.0,0.0,0.0,0.0,0.0,0.0,0.0,0.0,0.0,0.0,0.0,0.0,0.0,0.0,0.0,0.0,0.0,0.0,0.0,0.0,0.0,0.0,0.0,-0.804,0.0,-0.8266,0.0,-0.7931,-0.7686,0.0,0.0,0.0,0.0,0.0,0.0,0.0,0.0,0.0,0.0,0.0,0.0,0.0,0.0,0.0,0.0,0.0,0.0,0.0,0.0,0.0,0.0,0.0,0.0,0.0,0.0,0.0,0.0,0.0,0.0,0.0,0.0,0.0,0.0,0.0,0.0,0.0,0.0,0.0,0.0,0.0,0.0,0.0,0.0,0.0,0.0,0.0,0.0,0.0,0.0,0.0,0.0,0.0,0.0,0.0,0.0,0.0,0.0,0.0,0.0,0.0,0.0,0.0,0.0,0.0,0.0,0.0,0.0,0.0,0.0,0.0,0.0,0.0,0.0,0.0,0.0,0.0,0.0,0.0,0.0,0.0,0.0,0.0,0.0,0.0,0.0,0.0,0.0,0.0,0.0,0.0,0.0,0.0,0.0,0.0,0.0,0.0,0.0,0.0,0.0,0.0,0.0,0.0,0.0,0.0,0.0,0.0,0.0,-0.8538,-0.9705,-1.0185,-0.9822,-0.8602,-0.8668,-0.7973,0.0,0.0,0.0,0.0,0.0,0.0,0.0,0.0,0.0,0.0,0.0,0.0,0.0,0.0,0.0,0.0,0.0,0.0,0.0,0.0,0.0,0.0,0.0,0.0,0.0,0.0,0.0,0.0,0.0,0.0,0.0,0.0,0.0,0.0,0.0,0.0,0.0,0.0,0.0,0.0,0.0,0.0,0.0,0.0,0.0,0.0,0.0,0.0,0.0,0.0,0.0,0.0,0.0,0.0,0.0,0.0,0.0,0.0,0.0,0.0,0.0,0.0,0.0,0.0,0.0,0.0,0.0,0.0,0.0,0.0,0.0,0.0,0.0,0.0,0.0,0.0,0.0,0.0,0.0,0.0,0.0,0.0,0.0,0.0,0.0,0.0,0.0,0.0,0.0,0.0,0.0,0.0,0.0,0.0,0.0,0.0,0.0,0.0,0.0,0.0,0.0,0.0,0.0,0.0,0.0,0.0,0.0,0.0,0.0,-0.8761,-1.0195,-1.0624,-0.9896,-0.8779,-0.826,0.0,0.0,0.0,0.0,0.0,0.0,0.0,0.0,0.0,0.0,0.0,0.0,0.0,0.0,0.0,0.0,0.0,0.0,0.0,0.0,0.0,0.0,0.0,0.0,0.0,0.0,0.0,0.0,0.0,0.0,0.0,0.0,0.0,0.0,0.0,0.0,0.0,0.0,0.0,0.0,0.0,0.0,0.0,0.0,0.0,0.0,0.0,0.0,0.0,0.0,0.0,0.0,0.0,0.0,0.0,0.0,0.0,0.0,0.0,0.0,0.0,0.0,0.0,0.0,0.0,0.0,0.0,0.0,0.0,0.0,0.0,0.0,0.0,0.0,0.0,0.0,0.0,0.0,0.0,0.0,0.0,0.0,0.0,0.0,0.0,0.0,0.0,0.0,0.0,0.0,0.0,0.0,0.0,0.0,0.0,0.0,0.0,0.0,0.0,0.0,0.0,0.0,0.0,0.0,0.0,0.0,0.0,0.0,0.0,-1.0514,-1.1618,-1.1971,-1.137,-0.9812,-0.9042,-0.9162,0.0,0.0,0.0,0.0,0.0,0.0,0.0,0.0,0.0,0.0,0.0,0.0,0.0,0.0,0.0,0.0,0.0,0.0,0.0,0.0,0.0,0.0,0.0,0.0,0.0,0.0,0.0,0.0,0.0,0.0,0.0,0.0,0.0,0.0,0.0,0.0,0.0,0.0,0.0,0.0,0.0,0.0,0.0,0.0,0.0,0.0,0.0,0.0,0.0,0.0,0.0,0.0,0.0,0.0,0.0,0.0,0.0,0.0,0.0,0.0,0.0,0.0,0.0,0.0,0.0,0.0,0.0,0.0,0.0,0.0,0.0,0.0,0.0,0.0,0.0,0.0,0.0,0.0,0.0,0.0,0.0,0.0,0.0,0.0,0.0,0.0,0.0,0.0,0.0,0.0,0.0,0.0,0.0,0.0,0.0,0.0,0.0,0.0,0.0,0.0,0.0,0.0,0.0,0.0,0.0,0.0,0.0,0.0,-1.4242,-1.4226,-1.3826,-1.3056,-1.1628,-1.0261,0.0,0.0,0.0,0.0,0.0,0.0,0.0,0.0,0.0,0.0,0.0,0.0,0.0,0.0,0.0,0.0,0.0,0.0,0.0,0.0,0.0,0.0,0.0,0.0,0.0,0.0,0.0,0.0,0.0,0.0,0.0,0.0,0.0,0.0,0.0,0.0,0.0,0.0,0.0,0.0,0.0,0.0,0.0,0.0,0.0,0.0,0.0,0.0,0.0,0.0,0.0,0.0,0.0,0.0,0.0,0.0,0.0,0.0,0.0,0.0,0.0,0.0,0.0,0.0,0.0,0.0,0.0,0.0,0.0,0.0,0.0,0.0,0.0,0.0,0.0,0.0,0.0,0.0,0.0,0.0,0.0,0.0,0.0,0.0,0.0,0.0,0.0,0.0,0.0,0.0,0.0,0.0,0.0,0.0,0.0,0.0,0.0,0.0,0.0,0.0,0.0,0.0,0.0,0.0,0.0,0.0,0.0,0.0,0.0,-1.5965,-1.6194,-1.6046,-1.5504,-1.3217,-1.1789,0.0,0.0,0.0,0.0,0.0,0.0,0.0,0.0,0.0,0.0,0.0,0.0,0.0,0.0,0.0,0.0,0.0,0.0,0.0,0.0,0.0,0.0,0.0,0.0,0.0,0.0,0.0,0.0,0.0,0.0,0.0,0.0,0.0,0.0,0.0,0.0,0.0,0.0,0.0,0.0,0.0,0.0,0.0,0.0,0.0,0.0,0.0,0.0,0.0,0.0,0.0,0.0,0.0,0.0,0.0,0.0,0.0,0.0,0.0,0.0,0.0,0.0,0.0,0.0,0.0,0.0,0.0,0.0,0.0,0.0,0.0,0.0,0.0,0.0,0.0,0.0,0.0,0.0,0.0,0.0,0.0,0.0,0.0,0.0,0.0,0.0,0.0,0.0,0.0,0.0,0.0,0.0,0.0,0.0,0.0,0.0,0.0,0.0,0.0,0.0,0.0,0.0,0.0,0.0,0.0,0.0,0.0,0.0,-1.6004,-1.7503,-1.7756,-1.7657,-1.7193,-1.4779,-1.3119,0.0,0.0,0.0,0.0,0.0,0.0,0.0,0.0,0.0,0.0,0.0,0.0,0.0,0.0,0.0,0.0,0.0,0.0,0.0,0.0,0.0,0.0,0.0,0.0,0.0,0.0,0.0,0.0,0.0,0.0,0.0,0.0,0.0,0.0,0.0,0.0,0.0,0.0,0.0,0.0,0.0,0.0,0.0,0.0,0.0,0.0,0.0,0.0,0.0,0.0,0.0,0.0,0.0,0.0,0.0,0.0,0.0,0.0,0.0,0.0,0.0,0.0,0.0,0.0,0.0,0.0,0.0,0.0,0.0,0.0,0.0,0.0,0.0,0.0,0.0,0.0,0.0,0.0,0.0,0.0,0.0,0.0,0.0,0.0,0.0,0.0,0.0,0.0,0.0,0.0,0.0,0.0,0.0,0.0,0.0,0.0,0.0,0.0,0.0,0.0,0.0,0.0,0.0,0.0,0.0,0.0,0.0,0.0,-1.7762,-1.8687,-1.8834,-1.865,-1.8064,-1.614,-1.4285,0.0,0.0,0.0,0.0,0.0,0.0,0.0,0.0,0.0,0.0,0.0,0.0,0.0,0.0,0.0,0.0,0.0,0.0,0.0,0.0,0.0,0.0,0.0,0.0,0.0,0.0,0.0,0.0,0.0,0.0,0.0,0.0,0.0,0.0,0.0,0.0,0.0,0.0,0.0,0.0,0.0,0.0,0.0,0.0,0.0,0.0,0.0,0.0,0.0,0.0,0.0,0.0,0.0,0.0,0.0,0.0,0.0,0.0,0.0,0.0,0.0,0.0,0.0,0.0,0.0,0.0,0.0,0.0,0.0,0.0,0.0,0.0,0.0,0.0,0.0,0.0,0.0,0.0,0.0,0.0,0.0,0.0,0.0,0.0,0.0,0.0,0.0,0.0,0.0,0.0,0.0,0.0,0.0,0.0,0.0,0.0,0.0,0.0,0.0,0.0,0.0,0.0,0.0,0.0,0.0,0.0,0.0,0.0,-1.7762,-1.8672,-1.8834,-1.865,-1.8092,-1.6862,-1.5388,0.0,0.0,0.0,0.0,0.0,0.0,0.0,0.0,0.0,0.0,0.0,0.0,0.0,0.0,0.0,0.0,0.0,0.0,0.0,0.0,0.0,0.0,0.0,0.0,0.0,0.0,0.0,0.0,0.0,0.0,0.0,0.0,0.0,0.0,0.0,0.0,0.0,0.0,0.0,0.0,0.0,0.0,0.0,0.0,0.0,0.0,0.0,0.0,-1.0261,0.0,0.0,0.0,0.0,0.0,0.0,0.0,0.0,0.0,0.0,0.0,0.0,0.0,0.0,0.0,0.0,0.0,0.0,0.0,0.0,0.0,0.0,0.0,0.0,0.0,0.0,0.0,0.0,0.0,0.0,0.0,0.0,0.0,0.0,0.0,0.0,0.0,0.0,0.0,0.0,0.0,0.0,0.0,0.0,0.0,0.0,0.0,0.0,0.0,0.0,0.0,0.0,0.0,0.0,0.0,0.0,0.0,0.0,0.0,-1.8733,-1.9171,-1.9228,-1.8893,-1.8118,-1.7567,-1.6267,0.0,0.0,0.0,0.0,0.0,0.0,0.0,0.0,0.0,0.0,0.0,0.0,0.0,0.0,0.0,0.0,0.0,0.0,0.0,0.0,0.0,0.0,0.0,0.0,0.0,0.0,0.0,0.0,0.0,0.0,0.0,0.0,0.0,0.0,0.0,0.0,0.0,0.0,0.0,0.0,0.0,0.0,0.0,0.0,0.0,0.0,0.0,0.0,0.0,0.0,0.0,0.0,0.0,0.0,0.0,0.0,0.0,0.0,0.0,0.0,0.0,0.0,0.0,0.0,0.0,0.0,0.0,0.0,0.0,0.0,0.0,0.0,0.0,0.0,0.0,0.0,0.0,0.0,0.0,0.0,0.0,0.0,0.0,0.0,0.0,0.0,0.0,0.0,0.0,0.0,0.0,0.0,0.0,0.0,0.0,0.0,0.0,0.0,0.0,0.0,0.0,0.0,0.0,0.0,0.0,0.0,0.0,-1.8295,-1.9559,-1.9717,-1.9705,-1.9207,-1.8263,-1.8131,-1.691,-1.4419,0.0,0.0,0.0,0.0,0.0,0.0,0.0,0.0,0.0,0.0,0.0,0.0,0.0,0.0,0.0,0.0,0.0,0.0,0.0,0.0,0.0,0.0,0.0,0.0,0.0,0.0,0.0,0.0,0.0,0.0,0.0,0.0,0.0,0.0,0.0,0.0,0.0,0.0,-1.2924,-1.4093,0.0,0.0,0.0,0.0,0.0,0.0,0.0,0.0,-1.1348,0.0,0.0,0.0,0.0,0.0,0.0,0.0,0.0,0.0,0.0,0.0,0.0,0.0,0.0,0.0,0.0,0.0,0.0,0.0,0.0,0.0,0.0,0.0,0.0,0.0,0.0,0.0,0.0,0.0,0.0,0.0,0.0,0.0,0.0,0.0,0.0,0.0,0.0,0.0,0.0,0.0,0.0,0.0,0.0,0.0,0.0,0.0,0.0,0.0,0.0,0.0,0.0,0.0,0.0,0.0,0.0,-1.8178,-1.7901,-1.8361,-1.9681,-1.9705,-1.9406,-1.8765,-1.8341,-1.7254,-1.5465,0.0,0.0,0.0,0.0,0.0,0.0,0.0,0.0,0.0,0.0,0.0,0.0,0.0,0.0,0.0,0.0,0.0,0.0,0.0,0.0,0.0,0.0,0.0,0.0,0.0,0.0,0.0,0.0,0.0,0.0,0.0,0.0,0.0,0.0,0.0,0.0,0.0,0.0,0.0,-1.5028,-1.5575,0.0,0.0,0.0,0.0,0.0,0.0,0.0,0.0,-1.1621,0.0,0.0,0.0,0.0,0.0,0.0,0.0,0.0,0.0,0.0,0.0,0.0,0.0,0.0,0.0,0.0,0.0,0.0,0.0,0.0,0.0,0.0,0.0,0.0,0.0,0.0,0.0,0.0,0.0,0.0,0.0,0.0,0.0,0.0,0.0,0.0,0.0,0.0,0.0,0.0,0.0,0.0,0.0,0.0,0.0,0.0,0.0,0.0,0.0,0.0,0.0,0.0,0.0,0.0,0.0,-1.7472,-1.8422,-1.9124,-1.9696,-1.9705,-1.9442,-1.8916,-1.7838,-1.678,0.0,0.0,0.0,0.0,0.0,0.0,0.0,0.0,0.0,0.0,0.0,0.0,0.0,0.0,0.0,0.0,0.0,0.0,0.0,0.0,0.0,0.0,0.0,0.0,0.0,0.0,0.0,0.0,0.0,0.0,0.0,0.0,0.0,0.0,0.0,0.0,0.0,0.0,0.0,0.0,-1.5659,-1.6026,-1.6124,0.0,0.0,0.0,0.0,0.0,0.0,-1.3156,-1.236,0.0,0.0,0.0,0.0,0.0,0.0,0.0,0.0,0.0,0.0,0.0,0.0,0.0,0.0,0.0,0.0,0.0,0.0,0.0,0.0,0.0,0.0,0.0,0.0,0.0,0.0,0.0,0.0,0.0,0.0,0.0,0.0,0.0,0.0,0.0,0.0,0.0,0.0,0.0,0.0,0.0,0.0,0.0,0.0,0.0,0.0,0.0,0.0,0.0,0.0,0.0,0.0,0.0,0.0,0.0,-1.6443,-1.8625,-1.976,-1.9711,-1.9705,-1.9493,-1.9029,-1.7596,-1.6454,0.0,0.0,0.0,0.0,0.0,0.0,0.0,0.0,0.0,0.0,0.0,0.0,0.0,0.0,0.0,0.0,0.0,0.0,0.0,0.0,0.0,0.0,0.0,0.0,0.0,0.0,0.0,0.0,0.0,0.0,0.0,0.0,0.0,0.0,0.0,0.0,0.0,0.0,0.0,0.0,0.0,-1.6635,-1.6527,-1.6145,0.0,0.0,0.0,0.0,-1.449,-1.4023,0.0,0.0,0.0,0.0,0.0,0.0,0.0,0.0,0.0,0.0,0.0,0.0,0.0,0.0,0.0,0.0,0.0,0.0,0.0,0.0,0.0,0.0,0.0,0.0,0.0,0.0,0.0,0.0,0.0,0.0,0.0,0.0,0.0,0.0,0.0,0.0,0.0,0.0,0.0,0.0,0.0,0.0,0.0,0.0,0.0,0.0,0.0,0.0,0.0,0.0,0.0,0.0,0.0,0.0,0.0,0.0,-1.6071,-1.7363,-1.8557,-1.9615,-1.9705,-1.9675,-1.9603,-1.8508,-1.7176,0.0,0.0,0.0,0.0,0.0,0.0,0.0,0.0,0.0,0.0,0.0,0.0,0.0,0.0,0.0,0.0,0.0,0.0,0.0,0.0,0.0,0.0,0.0,0.0,0.0,0.0,0.0,0.0,0.0,0.0,0.0,0.0,0.0,0.0,0.0,0.0,0.0,0.0,0.0,0.0,0.0,-1.7622,-1.666,-1.6416,-1.6609,0.0,0.0,-1.6281,-1.6099,-1.5637,0.0,0.0,0.0,0.0,0.0,0.0,0.0,0.0,0.0,0.0,0.0,0.0,0.0,0.0,0.0,0.0,0.0,0.0,0.0,0.0,0.0,0.0,0.0,0.0,0.0,0.0,0.0,0.0,0.0,0.0,0.0,0.0,0.0,0.0,0.0,0.0,0.0,0.0,0.0,0.0,0.0,0.0,0.0,0.0,0.0,0.0,0.0,0.0,0.0,0.0,0.0,0.0,0.0,0.0,0.0,-1.4179,-1.6062,-1.7904,-1.9106,-1.966,-1.9705,-1.9566,-1.9244,-1.793,-1.6559,0.0,0.0,0.0,0.0,0.0,0.0,0.0,0.0,0.0,0.0,0.0,0.0,0.0,0.0,0.0,0.0,0.0,0.0,0.0,0.0,0.0,0.0,0.0,0.0,0.0,0.0,0.0,0.0,0.0,0.0,0.0,0.0,0.0,0.0,0.0,0.0,0.0,0.0,0.0,0.0,0.0,0.0,-1.7501,-1.7476,0.0,0.0,0.0,-1.7322,-1.6943,0.0,0.0,0.0,0.0,0.0,0.0,0.0,0.0,0.0,0.0,0.0,0.0,0.0,0.0,0.0,0.0,0.0,0.0,0.0,0.0,0.0,0.0,0.0,0.0,0.0,0.0,0.0,0.0,0.0,0.0,0.0,0.0,0.0,0.0,0.0,0.0,0.0,0.0,0.0,0.0,0.0,0.0,0.0,0.0,0.0,0.0,0.0,0.0,0.0,0.0,0.0,0.0,0.0,0.0,0.0,0.0,0.0,-1.6024,-1.8443,-1.9779,-1.9929,-1.9765,-1.9516,-1.9161,-1.7678,0.0,0.0,0.0,0.0,0.0,0.0,0.0,0.0,0.0,0.0,0.0,0.0,0.0,0.0,0.0,0.0,0.0,0.0,0.0,0.0,0.0,0.0,0.0,0.0,0.0,0.0,0.0,-0.7363,0.0,0.0,0.0,0.0,0.0,0.0,0.0,0.0,0.0,0.0,0.0,0.0,0.0,0.0,-1.8091,-1.838,-1.853,-1.8656,0.0,0.0,-1.8298,-1.7946,-1.6884,-1.5753,0.0,0.0,0.0,0.0,0.0,0.0,0.0,0.0,0.0,0.0,0.0,0.0,0.0,0.0,0.0,0.0,0.0,0.0,0.0,0.0,0.0,0.0,0.0,0.0,0.0,0.0,0.0,0.0,0.0,0.0,0.0,0.0,0.0,0.0,0.0,0.0,0.0,0.0,0.0,0.0,0.0,0.0,0.0,0.0,0.0,0.0,0.0,0.0,0.0,0.0,0.0,0.0,0.0,0.0,-1.4479,-1.5857,-1.8377,-2.0004,-2.0587,-2.0004,-1.9753,-1.9825,-1.8658,-1.6756,0.0,0.0,0.0,0.0,0.0,0.0,0.0,0.0,0.0,0.0,0.0,0.0,0.0,0.0,0.0,0.0,0.0,0.0,0.0,0.0,0.0,0.0,0.0,0.0,0.0,0.0,0.0,0.0,0.0,0.0,0.0,0.0,0.0,0.0,0.0,0.0,0.0,0.0,0.0,0.0,0.0,-1.9472,-1.8983,-1.9384,-1.9886,0.0,-1.9635,-1.9083,-1.9571,-1.8413,-1.6964,-1.5661,0.0,0.0,0.0,0.0,0.0,0.0,0.0,0.0,0.0,0.0,0.0,0.0,0.0,0.0,0.0,0.0,0.0,0.0,0.0,0.0,0.0,0.0,0.0,0.0,0.0,0.0,0.0,0.0,0.0,0.0,0.0,0.0,0.0,0.0,0.0,0.0,0.0,0.0,0.0,0.0,0.0,0.0,0.0,0.0,0.0,0.0,0.0,0.0,0.0,0.0,0.0,0.0,0.0,-1.4663,-1.6338,-1.8972,-2.0453,-2.0669,-2.045,-2.0027,-1.9442,-1.8604,-1.6851,0.0,0.0,0.0,0.0,0.0,0.0,0.0,0.0,0.0,0.0,0.0,0.0,0.0,0.0,0.0,0.0,0.0,0.0,0.0,0.0,0.0,0.0,0.0,0.0,0.0,0.0,0.0,0.0,-1.027,-1.0947,-1.0935,0.0,0.0,0.0,0.0,0.0,0.0,0.0,0.0,0.0,0.0,-1.9974,-2.0476,-2.0244,0.0,0.0,-1.9542,-1.9006,-1.9237,-1.7756,-1.6407,-1.5856,-1.4608,0.0,0.0,0.0,0.0,0.0,0.0,0.0,0.0,0.0,0.0,0.0,0.0,0.0,0.0,0.0,0.0,0.0,0.0,0.0,0.0,0.0,0.0,0.0,0.0,0.0,0.0,0.0,0.0,0.0,0.0,0.0,0.0,0.0,0.0,0.0,0.0,0.0,0.0,0.0,0.0,0.0,0.0,0.0,0.0,0.0,0.0,0.0,0.0,0.0,0.0,0.0,0.0,-1.5054,-1.698,-1.943,-2.0917,-2.1291,-2.1101,-2.0581,-1.9641,-1.8886,-1.7231,0.0,0.0,0.0,0.0,0.0,0.0,0.0,0.0,0.0,0.0,0.0,0.0,0.0,0.0,0.0,0.0,0.0,0.0,0.0,0.0,0.0,0.0,0.0,0.0,0.0,0.0,0.0,0.0,-1.1261,-1.1763,-1.1613,0.0,0.0,0.0,0.0,0.0,0.0,0.0,0.0,0.0,0.0,-2.0665,-2.1594,-2.101,-2.0569,-2.0971,-1.976,-1.8873,-1.9256,-1.7701,-1.636,-1.6087,0.0,0.0,0.0,0.0,0.0,0.0,0.0,0.0,0.0,0.0,0.0,0.0,0.0,0.0,0.0,0.0,0.0,0.0,0.0,0.0,0.0,0.0,0.0,0.0,0.0,0.0,0.0,-0.9063,0.0,0.0,-0.8248,0.0,0.0,0.0,0.0,0.0,0.0,0.0,0.0,0.0,0.0,0.0,0.0,0.0,0.0,0.0,0.0,0.0,0.0,0.0,0.0,0.0,0.0,-1.574,-1.7667,-1.972,-2.1335,-2.2589,-2.2024,-2.1432,-2.082,-1.9682,-1.7989,-1.5696,0.0,0.0,0.0,0.0,0.0,0.0,0.0,0.0,0.0,0.0,0.0,0.0,0.0,0.0,0.0,0.0,0.0,0.0,0.0,0.0,0.0,0.0,0.0,0.0,0.0,0.0,-1.15,-1.2052,-1.2178,0.0,0.0,0.0,0.0,0.0,0.0,0.0,0.0,0.0,-1.8894,-2.0426,-2.1656,-2.2221,-2.1557,-2.144,-2.2772,-2.0382,-1.877,-2.0134,-1.8851,-1.7447,0.0,0.0,0.0,0.0,0.0,0.0,0.0,0.0,0.0,0.0,0.0,0.0,0.0,0.0,0.0,0.0,0.0,0.0,0.0,0.0,0.0,0.0,0.0,0.0,0.0,0.0,0.0,-1.2153,-1.1274,0.0,0.0,0.0,0.0,0.0,0.0,0.0,0.0,0.0,0.0,0.0,-1.6313,-1.6835,0.0,0.0,0.0,0.0,0.0,0.0,0.0,0.0,0.0,0.0,0.0,0.0,-1.6653,-1.8957,-2.0572,-2.1784,-2.2652,-2.2481,-2.1872,-2.09,-2.0139,-1.8434,-1.5784,0.0,0.0,0.0,0.0,0.0,0.0,0.0,0.0,0.0,0.0,0.0,0.0,0.0,0.0,0.0,0.0,0.0,0.0,0.0,0.0,0.0,0.0,0.0,0.0,0.0,-1.1663,0.0,0.0,0.0,0.0,0.0,0.0,0.0,0.0,0.0,0.0,0.0,-1.902,-2.0476,-2.1455,-2.2372,-2.3301,-2.2713,-2.2178,0.0,0.0,0.0,0.0,0.0,0.0,0.0,0.0,0.0,0.0,0.0,0.0,0.0,0.0,-1.8323,-1.475,-1.4189,-1.4157,-1.3901,0.0,0.0,0.0,0.0,0.0,0.0,0.0,0.0,0.0,0.0,0.0,0.0,0.0,0.0,-1.4865,-1.4086,-1.3345,0.0,0.0,0.0,0.0,0.0,0.0,0.0,0.0,-1.7112,-1.8166,-1.8543,-1.9058,-1.9032,0.0,-1.8141,-1.666,0.0,0.0,0.0,0.0,0.0,0.0,0.0,0.0,-1.7685,-2.0004,-2.135,-2.2353,-2.2981,-2.2981,-2.2433,-2.1204,-2.0186,-1.8608,-1.6376,-1.5053,-1.3935,0.0,0.0,0.0,0.0,0.0,0.0,0.0,0.0,0.0,0.0,0.0,0.0,0.0,0.0,0.0,0.0,0.0,0.0,0.0,0.0,0.0,0.0,0.0,-1.2379,0.0,0.0,0.0,0.0,0.0,0.0,0.0,0.0,0.0,-1.799,-1.9246,-2.0715,-2.2171,-2.2673,-2.3238,-2.4155,0.0,0.0,0.0,0.0,0.0,0.0,0.0,-1.8971,-2.0063,-2.002,-1.9784,-1.9602,-1.8178,-1.8961,-2.4906,0.0,0.0,-1.7336,-1.6655,-1.6665,-1.6028,-1.5852,-1.5914,-1.6481,-1.6011,-1.5717,0.0,0.0,0.0,0.0,0.0,0.0,0.0,0.0,-1.7745,-1.7686,0.0,-1.6258,0.0,0.0,0.0,0.0,-1.4437,-1.6464,0.0,0.0,-1.9787,-2.0752,-2.0781,-2.0238,-2.0225,-2.0769,-2.0756,-2.0087,-1.8795,-1.5264,0.0,0.0,0.0,0.0,0.0,0.0,-1.8914,-2.0789,-2.2113,-2.3041,-2.361,-2.364,-2.2995,-2.173,-1.995,-1.8518,-1.7476,-1.6861,-1.5806,-1.4236,-1.3107,0.0,0.0,0.0,0.0,0.0,0.0,0.0,0.0,0.0,0.0,0.0,0.0,0.0,0.0,0.0,0.0,0.0,0.0,0.0,0.0,-1.2617,0.0,0.0,0.0,0.0,0.0,0.0,0.0,0.0,0.0,0.0,-1.9397,-2.1041,-2.2761,-2.3866,0.0,0.0,0.0,0.0,-2.3337,-2.4638,-2.309,-2.2062,-2.2946,-2.2564,-2.2139,-2.1843,0.0,0.0,-2.2537,-2.3765,-2.5468,-2.7725,-2.7186,-2.5371,-2.1653,-2.0201,-1.9383,-1.8454,-1.8071,-1.7627,-1.7358,-1.742,-1.7445,-2.5099,0.0,0.0,0.0,0.0,-2.2189,-2.2163,-2.2338,-2.1608,-2.0701,-1.9648,-1.8555,0.0,0.0,0.0,0.0,0.0,0.0,-1.9748,-2.0928,-2.197,-2.2648,-2.3037,-2.2874,-2.2673,-2.2422,-2.2033,-2.128,-2.0175,-1.9083,-1.7262,-1.4802,0.0,0.0,0.0,0.0,-2.0852,-2.27,-2.3625,-2.4163,-2.4283,-2.4328,-2.3462,-2.1771,-1.995,-1.8882,-1.8555,-1.8016,-1.7124,-1.5869,-1.4931,0.0,0.0,0.0,0.0,0.0,0.0,0.0,0.0,0.0,0.0,0.0,0.0,0.0,0.0,0.0,0.0,0.0,0.0,0.0,-1.2609,-1.3396,-1.4237,0.0,0.0,0.0,0.0,0.0,0.0,0.0,0.0,0.0,-2.251,-2.3113,-2.3778,0.0,0.0,-2.4782,-2.531,-2.5373,-2.5438,-2.5523,-2.5338,0.0,-2.5481,-2.4327,-2.3796,-2.4929,-2.5495,-2.6003,-2.6709,-2.7242,-2.7754,-2.8413,-2.8058,-2.7051,-2.5354,-2.3904,-2.2946,-2.2358,-2.2319,-2.2131,-2.1342,-2.0355,-1.9668,-2.964,-2.8042,-2.5763,-2.5099,-2.5536,-2.5322,-2.5202,-2.5208,-2.4517,-2.371,-2.2737,-2.1546,-2.0501,-1.9635,-1.9208,0.0,0.0,0.0,-2.1794,-2.2987,-2.354,-2.3991,-2.4305,-2.433,-2.4142,-2.3791,-2.3464,-2.2962,-2.2309,-2.187,-2.0526,-1.8367,0.0,0.0,-1.8737,-2.0564,-2.2053,-2.3132,-2.4369,-2.471,-2.4163,-2.386,-2.3175,-2.1997,-2.0488,-1.9685,-1.9673,-1.8932,-1.8216,-1.7526,-1.6343,-1.5024,0.0,0.0,0.0,0.0,0.0,0.0,0.0,0.0,0.0,0.0,0.0,-0.9265,-0.8164,0.0,0.0,0.0,-1.1303,-1.2718,-1.4337,-1.5241,0.0,0.0,0.0,0.0,0.0,0.0,0.0,-2.1857,-2.3138,-2.4305,-2.5184,-2.5485,-2.5661,-2.5787,-2.5799,-2.5988,-2.6527,0.0,-2.6756,-2.6748,-2.7017,-2.7236,-2.7212,-2.631,-2.6031,-2.732,-2.7541,-2.7826,-2.8938,-2.915,-2.915,-2.9138,-2.8925,-2.86,-2.7959,-2.7174,-2.6029,-2.47,-2.4646,-2.448,-2.3638,-2.2298,-2.1328,-3.3514,-3.326,-2.9579,-2.7713,-2.7254,-2.8441,-2.8163,-2.6945,-2.6787,-2.6549,-2.6215,-2.4733,-2.3803,-2.3153,-2.2209,0.0,-2.2598,-2.31,-2.364,-2.4217,-2.472,-2.4946,-2.4946,-2.4908,-2.4883,-2.487,-2.4845,-2.4833,-2.4745,-2.3766,-2.3025,-2.2472,-2.0978,-2.0347,-2.0727,-2.2061,-2.2688,-2.2602,-2.4568,-2.4907,-2.3527,-2.2751,-2.235,-2.2325,-2.1294,-2.0693,-2.063,-1.9623,-1.9021,-1.8982,-1.7455,-1.6371,-1.5731,0.0,0.0,0.0,0.0,0.0,0.0,0.0,0.0,0.0,0.0,0.0,0.0,0.0,0.0,0.0,-1.3355,0.0,-1.6559,-1.7689,0.0,0.0,0.0,-2.069,-2.03,-2.2026,-2.3565,-2.4192,0.0,0.0,-2.7293,-2.7821,-2.7984,-2.7482,-2.7381,-2.7532,-2.8034,-2.7695,-2.7595,-2.8024,-2.8222,-2.826,-2.8274,-2.8125,-2.825,-2.875,-2.9001,-2.9101,-2.9616,-2.9741,-2.9767,-2.9729,-2.9767,-2.9754,-2.9767,-2.9564,-2.8901,-2.6144,-2.5695,-2.5519,-2.5158,-2.3908,-2.2847,-3.3784,-3.4113,-3.2677,-3.2004,-3.1857,-3.1661,-3.1293,-3.0773,-2.9631,-2.8743,-2.7974,-2.6087,-2.4921,-2.4406,-2.4142,-2.4318,-2.482,-2.4958,-2.5322,-2.5875,-2.6013,-2.6063,-2.605,-2.5611,-2.541,-2.5385,-2.5008,-2.4833,-2.482,-2.4556,-2.4356,-2.4205,-2.3816,-2.284,-2.1484,-2.2618,-2.3447,-2.3912,-2.4905,-2.5043,-2.4185,-2.3018,-2.2206,-2.1773,-2.1077,-2.0464,-2.0024,-1.9761,-1.9434,-1.8983,-1.8242,-1.735,-1.6358,-1.4551,0.0,0.0,0.0,0.0,0.0,0.0,0.0,0.0,0.0,-1.2241,-0.9919,0.0,-1.4249,0.0,-1.5419,-1.7099,-1.8304,-1.9032,0.0,0.0,-2.2322,-2.3,-2.4092,-2.4695,-2.5398,-2.6389,-2.6841,-2.7293,-2.7833,-2.8386,-2.8687,-2.8549,-2.8172,-2.7971,-2.8097,-2.8386,-2.8586,-2.8737,-2.9089,-2.939,-2.9365,-2.939,-2.9402,-2.9566,-2.9578,-2.9641,-2.9767,-2.9779,-2.9779,-2.9779,-2.9779,-2.9779,-2.9779,-2.9779,-2.9549,-2.8889,-2.866,-2.868,-2.8498,-2.6863,-2.5004,-3.4607,-3.4906,-3.4532,-3.4397,-3.4322,-3.335,-3.2882,-3.265,-3.1044,-3.0102,-2.9524,-2.7567,-2.6553,-2.6289,-2.6289,-2.644,-2.6716,-2.6716,-2.6892,-2.718,-2.7193,-2.7067,-2.6816,-2.6502,-2.6226,-2.5975,-2.5686,-2.5548,-2.5548,-2.5285,-2.5159,-2.5159,-2.4933,-2.4229,-2.3097,-2.3995,-2.4543,-2.4556,-2.4681,-2.4673,-2.4351,-2.3306,-2.2485,-2.1931,-2.1361,-2.0765,-2.02,-1.971,-1.9321,-1.8983,-1.8279,-1.7664,-1.7262,-1.5721,-1.4525,0.0,0.0,0.0,0.0,0.0,0.0,0.0,0.0,0.0,0.0,0.0,-1.617,-1.6609,-1.7978,-1.9497,-2.1091,-2.192,-2.2987,-2.4469,-2.5046,-2.5611,-2.6289,-2.6565,-2.7055,-2.7908,-2.8009,-2.8222,-2.8787,-2.9126,-2.9315,-2.9315,-2.9051,-2.885,-2.8875,-2.9126,-2.9315,-2.934,-2.9591,-2.9779,-2.9779,-2.9779,-2.9779,-2.9779,-2.9779,-2.9779,-2.9779,-2.9779,-2.9779,-2.9779,-2.9779,-2.9779,-2.9779,-2.9779,-2.9779,-2.9779,-2.9779,-2.9506,-2.8961,-2.7956,-2.6416,-3.5489,-3.5504,-3.5359,-3.5374,-3.54,-3.3966,-3.3538,-3.3615,-3.1848,-3.0856,-3.0433,-2.8898,-2.8172,-2.8109,-2.8109,-2.8109,-2.8109,-2.8109,-2.8109,-2.8109,-2.8109,-2.7846,-2.7394,-2.7394,-2.713,-2.6678,-2.6666,-2.6678,-2.6653,-2.6101,-2.5812,-2.5787,-2.5285,-2.5034,-2.5021,-2.5665,-2.5587,-2.4808,-2.4343,-2.4211,-2.4354,-2.3637,-2.2937,-2.2334,-2.1782,-2.1247,-2.0618,-1.971,-1.9233,-1.9196,-1.8242,-1.7903,-1.8342,-1.6835,-1.5881,0.0,-1.4915,0.0,0.0,0.0,0.0,0.0,0.0,0.0,0.0,-1.7313,-1.8706,-2.0112,-2.0878,-2.2121,-2.413,-2.5222,-2.605,-2.6697,-2.7595,-2.8021,-2.757,-2.7984,-2.8511,-2.8988,-2.9038,-2.9252,-2.9679,-2.9779,-2.9779,-2.9754,-2.9716,-2.9679,-2.9754,-2.9741,-2.9741,-2.9779,-2.9779,-2.9779,-2.9779,-2.9779,-2.9779,-2.9779,-2.9779,-2.9779,-2.9779,-2.9779,-2.9779,-2.9779,-2.9779,-2.9779,-2.9779,-2.9779,-2.9779,-2.9779,-2.9779,-2.9431,-2.8445,-2.8287,-2.7289,-3.5489,-3.5424,-3.461,-3.4758,-3.5344,-3.3565,-3.3681,-3.4986,-3.3109,-3.1151,-2.9269,-2.8911,-2.8524,-2.8122,-2.8109,-2.8109,-2.8109,-2.8109,-2.8109,-2.8109,-2.8109,-2.8059,-2.7946,-2.7946,-2.7896,-2.7795,-2.7795,-2.7795,-2.7783,-2.7243,-2.6967,-2.6954,-2.6427,-2.6138,-2.6151,0.0,0.0,0.0,-2.472,-2.4671,-2.4684,-2.4129,-2.3339,-2.2347,-2.1769,0.0,-2.0037,-2.0213,-2.0351,-2.0338,-1.971,0.0,0.0,0.0,0.0,0.0,0.0,0.0,0.0,0.0,0.0,0.0,-1.9648,-1.8981,-1.7928,-2.0376,-2.2171,-2.251,-2.3816,-2.5021,-2.5967,-2.6565,-2.718,-2.7745,-2.8373,-2.8725,-2.8637,-2.9114,-2.9515,-2.9616,-2.9628,-2.9666,-2.9754,-2.9779,-2.9779,-2.9779,-2.9779,-2.9779,-2.9779,-2.9779,-2.9779,-2.9779,-2.9779,-2.9779,-2.9779,-2.9779,-2.9779,-2.9779,-2.9779,-2.9779,-2.9779,-2.9779,-2.9779,-2.9779,-2.9779,-2.9779,-2.9779,-2.9779,-2.9779,-2.9779,-2.9779,-2.9714,-2.9431,-2.9431,-2.9316,-3.5489,-3.5424,-3.4409,-3.4327,0.0,-3.3171,-3.3171,-3.3973,-3.2536,-3.0948,-2.9352,-2.9352,-2.9202,-2.8938,-2.8938,-2.8938,-2.8938,-2.895,-2.8938,-2.8938,-2.8938,-2.8787,-2.8511,-2.8511,-2.836,-2.8109,-2.8109,-2.8109,-2.8097,-2.7821,-2.7695,-2.7682,-2.713,-2.6866,-2.6854,-2.659,-2.605,-2.5209,-2.5197,-2.5084,-2.482,-2.4544,-2.3866,-2.2761,-2.2447,0.0,0.0,0.0,0.0,0.0,0.0,0.0,0.0,0.0,0.0,-1.8982,-1.8982,-1.9095,-1.9371,-1.9911,-2.0715,-2.1794,-2.2397,-2.2133,-2.074,-2.2627,-2.4205,-2.4745,-2.5799,-2.6779,-2.7595,-2.7934,-2.8323,-2.8875,-2.9189,-2.9352,-2.939,-2.9616,-2.9779,-2.9779,-2.9779,-2.9779,-2.9779,-2.9779,-2.9779,-2.9779,-2.9779,-2.9779,-2.9779,-2.9779,-2.9779,-2.9779,-2.9779,-2.9779,-2.9779,-2.9779,-2.9779,-2.9779,-2.9779,-2.9779,-2.9779,-2.9779,-2.9779,-2.9779,-2.9779,-2.9779,-2.9779,-2.9779,-2.9779,-2.9779,-2.9779,-2.9779,-2.9779,-2.9779,-2.9779,-3.5489,-3.5424,-3.4394,-3.4013,-3.3959,-3.282,-3.2236,-3.2033,0.0,0.0,0.0,-2.9779,-2.9779,-2.9779,-2.9779,-2.9779,-2.9779,-2.9779,-2.9779,-2.9779,-2.9779,-2.9541,-2.9089,-2.9089,-2.8837,-2.8411,-2.8398,-2.8398,-2.8398,-2.8298,-2.826,-2.8197,-2.7695,-2.7431,-2.7406,-2.6879,-2.6377,-2.5912,-2.5812,-2.5548,-2.5121,-2.5008,-2.4469,-2.3391,-2.3265,-2.2811,-2.182,-2.1443,-2.1255,-2.1297,-2.0803,-2.0765,-2.1217,-2.1154,-2.1305,-2.1732,-2.1882,-2.2133,-2.2573,-2.2698,-2.2987,-2.3527,-2.4619,-2.482,-2.3791,-2.4669,-2.5711,-2.6804,-2.7318,-2.7984,-2.8976,-2.9076,-2.9264,-2.9741,-2.9779,-2.9779,-2.9779,-2.9779,-2.9779,-2.9779,-2.9779,-2.9779,-2.9779,-2.9779,-2.9779,-2.9779,-2.9779,-2.9779,-2.9779,-2.9779,-2.9779,-2.9779,-2.9779,-2.9779,-2.9779,-2.9779,-2.9779,-2.9779,-2.9779,-2.9779,-2.9779,-2.9779,-2.9779,-2.9779,-2.9779,-2.9779,-2.9779,-2.9779,-2.9779,-2.9779,-2.9779,-2.9779,-2.9779,-2.9779,-2.9779,-3.5504,-3.5439,-3.4394,-3.4013,-3.3876,-3.2105,-3.0908,-3.0292,-3.0895,-3.0696,-2.9779,-2.9779,-2.9779,-2.9779,-2.9779,-2.9779,-2.9779,-2.9779,-2.9779,-2.9779,-2.9779,-2.9754,-2.9679,-2.9679,-2.9628,-2.9553,-2.9541,-2.9553,-2.9503,-2.9051,-2.8812,-2.875,-2.826,-2.7984,-2.7946,-2.7444,-2.7118,-2.7042,-2.659,-2.6382,-2.6226,-2.5737,-2.5197,-2.4607,-2.4117,-2.3577,-2.2937,-2.3288,-2.3527,-2.3527,-2.3452,-2.3452,-2.3502,-2.3037,-2.2824,-2.2924,-2.3376,-2.3678,-2.3766,-2.4192,-2.4695,-2.5234,-2.6289,-2.6666,-2.6088,-2.6578,-2.7394,-2.8448,-2.8612,-2.895,-2.9578,-2.9641,-2.9679,-2.9767,-2.9779,-2.9779,-2.9779,-2.9779,-2.9779,-2.9779,-2.9779,-2.9779,-2.9779,-2.9779,-2.9779,-2.9779,-2.9779,-2.9779,-2.9779,-2.9779,-2.9779,-2.9779,-2.9779,-2.9779,-2.9779,-2.9779,-2.9779,-2.9779,-2.9779,-2.9779,-2.9779,-2.9779,-2.9779,-2.9779,-2.9779,-2.9779,-2.9779,-2.9779,-2.9779,-2.9779,-2.9779,-2.9779,-2.9689,-2.9599,-2.9611,-3.5833,-3.5309,-3.3891,-3.3241,-3.3101,-3.1267,-3.0216,-2.9856,-3.0279,-3.0216,-2.9779,-2.9779,-2.9779,-2.9779,-2.9779,-2.9779,-2.9779,-2.9779,-2.9779,-2.9779,-2.9779,-2.9779,-2.9779,-2.9779,-2.9779,-2.9779,-2.9779,-2.9779,-2.9767,-2.9515,-2.939,-2.9352,-2.8825,-2.8411,-2.8109,-2.7858,-2.772,-2.7708,-2.6892,-2.6521,-2.6521,-2.6269,-2.5799,-2.5259,-2.4983,-2.4619,-2.4079,-2.4305,-2.4431,-2.4443,-2.4443,-2.4443,-2.4443,-2.4192,-2.3992,-2.4054,-2.4293,-2.4569,-2.4858,-2.5674,-2.6389,-2.6929,-2.7419,-2.777,-2.7808,-2.8021,-2.8386,-2.8888,-2.9202,-2.949,-2.9767,-2.9779,-2.9779,-2.9779,-2.9779,-2.9779,-2.9779,-2.9779,-2.9779,-2.9779,-2.9779,-2.9779,-2.9779,-2.9779,-2.9779,-2.9779,-2.9792,-2.9792,-2.9804,-2.9804,-2.9792,-2.9779,-2.9779,-2.9779,-2.9779,-2.9779,-2.9779,-2.9779,-2.9779,-2.9779,-2.9779,-2.9779,-2.9779,-2.9779,-2.9779,-2.9779,-2.9779,-2.9779,-2.9779,-2.9779,-2.9779,-2.9599,-2.8876,-2.8056,-2.7977,-3.6402,-3.5791,-3.4321,-3.3508,-3.3014,-3.1391,-3.0471,-3.0139,-3.0139,-3.0011,-2.9792,-2.9779,-2.9779,-2.9779,-2.9779,-2.9779,-2.9779,-2.9779,-2.9779,-2.9779,-2.9779,-2.9779,-2.9779,-2.9779,-2.9779,-2.9779,-2.9779,-2.9779,-2.9779,-2.9779,-2.9779,-2.9741,-2.9352,-2.8913,-2.8499,-2.8348,-2.8285,-2.8235,-2.7331,-2.6841,-2.6829,-2.6716,-2.6427,-2.6013,-2.585,-2.5598,-2.5222,-2.5184,-2.5184,-2.5197,-2.5197,-2.5197,-2.5184,-2.5197,-2.5247,-2.5347,-2.5372,-2.5611,-2.6151,-2.6967,-2.7645,-2.8072,-2.8222,-2.8473,-2.8875,-2.9051,-2.9126,-2.9176,-2.9528,-2.9779,-2.9779,-2.9779,-2.9779,-2.9779,-2.9779,-2.9779,-2.9779,-2.9779,-2.9779,-2.9779,-2.9779,-2.9779,-2.9779,-2.9779,-2.9854,-2.998,-2.998,-3.0005,-3.0118,-3.0156,-3.0143,-3.0105,-2.9967,-2.9792,-2.9779,-2.9779,-2.9779,-2.9779,-2.9779,-2.9779,-2.9779,-2.9779,-2.9779,-2.9779,-2.9779,-2.9779,-2.9779,-2.9537,-2.9452,-2.9499,-2.9326,-2.8928,-2.7941,-2.644,-2.6086,-3.727,-3.7225,-3.6877,-3.6138,-3.4596,-3.364,-3.2415,-3.1172,-3.1044,-3.0558,-2.9856,-2.9779,-2.9779,-2.9779,-2.9779,-2.9779,-2.9779,-2.9779,-2.9779,-2.9779,-2.9779,-2.9779,-2.9779,-2.9779,-2.9779,-2.9779,-2.9779,-2.9779,-2.9779,-2.9779,-2.9779,-2.9779,-2.9729,-2.9666,-2.9566,-2.9101,-2.885,-2.885,-2.826,-2.7959,-2.7921,-2.7469,-2.718,-2.713,-2.664,-2.6433,-2.6302,-2.6314,-2.6314,-2.637,-2.6382,-2.6302,-2.6314,-2.6382,-2.6527,-2.6992,-2.703,-2.7293,-2.7795,-2.7971,-2.8059,-2.8134,-2.8599,-2.8875,-2.8976,-2.9415,-2.9716,-2.9704,-2.9741,-2.9779,-2.9779,-2.9779,-2.9779,-2.9779,-2.9779,-2.9779,-2.9779,-2.9779,-2.9779,-2.9779,-2.9779,-2.9779,-2.9779,-2.9829,-3.003,-3.0407,-3.0507,-3.0658,-3.0972,-3.106,-3.1072,-3.0984,-3.0482,-2.9917,-2.9854,-2.9804,-2.9867,-2.9842,-2.9817,-2.9892,-2.9942,-2.993,-2.9817,-3.0093,-2.9905,-2.993,-2.9727,-2.9192,-2.8858,-2.9261,-2.887,-2.7899,-2.7445,-2.5985,-2.5504,-3.7764,-3.7351,-3.6792,-3.5855,-3.4747,-3.4367,-3.3624,-3.2636,-3.1995,-3.1386,-3.057,-3.0075,-2.9779,-2.9779,-2.9779,-2.9779,-2.9779,-2.9779,-2.9779,-2.9779,-2.9779,-2.9779,-2.9779,-2.9779,-2.9779,-2.9779,-2.9779,-2.9779,-2.9779,-2.9779,-2.9779,-2.9779,-2.9779,-2.9779,-2.9767,-2.9553,-2.944,-2.9428,-2.9227,-2.9101,-2.9001,-2.8222,-2.777,-2.7758,-2.7544,-2.7444,-2.7431,-2.7431,-2.7419,-2.7431,-2.7419,-2.7431,-2.7431,-2.7431,-2.7532,-2.7745,-2.777,-2.8009,-2.8549,-2.8599,-2.8737,-2.9063,-2.9302,-2.944,-2.9453,-2.9666,-2.9779,-2.9779,-2.9779,-2.9779,-2.9779,-2.9779,-2.9779,-2.9779,-2.9779,-2.9779,-2.9779,-2.9779,-2.9779,-2.9779,-2.9779,-2.9792,-2.9842,-3.0093,-3.0357,-3.0633,-3.0846,-3.1185,-3.1386,-3.1386,-3.1386,-3.1348,-3.0984,-3.0633,-3.0369,-3.0281,-3.0281,-3.0281,-3.0281,-3.0319,-3.0633,-3.0733,-3.0746,-3.0708,-3.0645,-3.0583,-3.0767,-3.0322,-2.9978,-2.9832,-2.9033,-2.8051,-2.6995,-2.555,-2.4896,-3.8407,-3.7848,-3.7195,-3.6418,-3.5662,-3.5676,-3.5147,-3.4234,-3.3559,-3.2793,-3.2043,-3.0944,-3.0458,-3.0432,-3.0009,-2.9779,-2.9779,-2.9779,-2.9779,-2.9779,-2.9779,-2.9779,-2.9779,-2.9779,-2.9779,-2.9779,-2.9779,-2.9779,-2.9779,-2.9779,-2.9779,-2.9779,-2.9779,-2.9779,-2.9779,-2.9779,-2.9779,-2.9779,-2.9779,-2.9779,-2.9666,-2.8988,-2.8499,-2.8335,-2.8185,-2.8109,-2.8109,-2.8109,-2.8109,-2.8109,-2.8109,-2.8109,-2.8109,-2.8109,-2.8172,-2.8335,-2.8486,-2.8737,-2.9139,-2.9164,-2.934,-2.9729,-2.9779,-2.9779,-2.9779,-2.9779,-2.9779,-2.9779,-2.9779,-2.9779,-2.9779,-2.9779,-2.9779,-2.9779,-2.9779,-2.9779,-2.9779,-2.9779,-2.9779,-2.9779,-2.9779,-2.9867,-3.0055,-3.0482,-3.0884,-3.1122,-3.1399,-3.1712,-3.1825,-3.1901,-3.1888,-3.1851,-3.1851,-3.1562,-3.0997,-3.0821,-3.0834,-3.0834,-3.0821,-3.0947,-3.1336,-3.1468,-3.1399,-3.1191,-3.1298,-3.1336,-3.1309,-3.1137,-3.0997,-3.0603,-2.9688,-2.8377,-2.7217,-2.6136,-2.5508,-3.9364,-3.9305,-3.9247,-3.8758,-3.8191,-3.8121,-3.7281,-3.5856,-3.5784,-3.5249,-3.4195,-3.2796,-3.2127,-3.1935,-3.0586,-2.9804,-2.9779,-2.9779,-2.9779,-2.9779,-2.9779,-2.9779,-2.9779,-2.9779,-2.9779,-2.9779,-2.9779,-2.9779,-2.9779,-2.9779,-2.9779,-2.9779,-2.9779,-2.9779,-2.9779,-2.9779,-2.9779,-2.9779,-2.9779,-2.9779,-2.9779,-2.9716,-2.939,-2.89,-2.8411,-2.8197,-2.8172,-2.8134,-2.8147,-2.8134,-2.8185,-2.816,-2.8147,-2.816,-2.8398,-2.8863,-2.939,-2.9679,-2.9704,-2.9704,-2.9741,-2.9779,-2.9779,-2.9779,-2.9779,-2.9779,-2.9779,-2.9779,-2.9779,-2.9779,-2.9779,-2.9779,-2.9779,-2.9779,-2.9779,-2.9792,-2.9829,-2.988,-2.9792,-2.9867,-2.993,-3.0131,-3.0545,-3.1035,-3.1524,-3.1901,-3.2127,-3.2328,-3.2717,-3.2905,-3.288,-3.2867,-3.2817,-3.2616,-3.1637,-3.1361,-3.1361,-3.1361,-3.1373,-3.1424,-3.1518,-3.1637,-3.1675,-3.1763,-3.2288,-3.2326,-3.1909,-3.1572,-3.1404,-3.0906,-2.9926,-2.8685,-2.7796,-2.8668,-2.7726,-3.9424,-3.9424,-3.9424,-3.9275,-3.9065,-3.905,-3.8433,-3.7511,-3.691,-3.6215,-3.5407,-3.4284,-3.3387,-3.2669,-3.1731,-3.0778,-2.9882,-2.9779,-2.9779,-2.9779,-2.9779,-2.9779,-2.9779,-2.9779,-2.9779,-2.9779,-2.9779,-2.9779,-2.9779,-2.9779,-2.9779,-2.9779,-2.9779,-2.9779,-2.9779,-2.9779,-2.9779,-2.9779,-2.9779,-2.9779,-2.9779,-2.9779,-2.9679,-2.949,-2.9289,-2.9189,-2.9189,-2.9189,-2.9189,-2.9189,-2.9189,-2.9189,-2.9189,-2.9189,-2.9264,-2.9465,-2.9679,-2.9779,-2.9779,-2.9779,-2.9779,-2.9779,-2.9779,-2.9779,-2.9779,-2.9779,-2.9779,-2.9779,-2.9779,-2.9779,-2.9779,-2.9779,-2.9792,-2.9779,-2.9792,-2.9955,-3.0231,-3.0331,-3.0432,-3.0721,-3.0809,-3.0909,-3.1122,-3.1574,-3.1989,-3.2202,-3.2528,-3.2817,-3.2993,-3.3081,-3.3081,-3.3081,-3.3068,-3.2955,-3.2629,-3.2127,-3.1926,-3.1913,-3.1951,-3.2177,-3.2361,-3.2437,-3.25,-3.2424,-3.2988,-3.2975,-3.2412,-3.2174,-3.1956,-3.118,-3.018,-2.9329,-2.8549,-2.8849,-2.7652,-3.9424,-3.9424,-3.9424,-3.9424,-3.9424,-3.9424,-3.9155,-3.8665,-3.8032,-3.7478,-3.6925,-3.5892,-3.4974,-3.4118,-3.2991,-3.1965,-3.0803,-3.0188,-2.9779,-2.9779,-2.9779,-2.9779,-2.9779,-2.9779,-2.9779,-2.9779,-2.9779,-2.9779,-2.9779,-2.9779,-2.9779,-2.9779,-2.9779,-2.9779,-2.9779,-2.9779,-2.9779,-2.9779,-2.9779,-2.9779,-2.9779,-2.9779,-2.9779,-2.9779,-2.9779,-2.9779,-2.9779,-2.9779,-2.9779,-2.9779,-2.9779,-2.9779,-2.9779,-2.9779,-2.9779,-2.9779,-2.9779,-2.9779,-2.9779,-2.9779,-2.9779,-2.9779,-2.9779,-2.9779,-2.9779,-2.9779,-2.9779,-2.9779,-2.9779,-2.9779,-2.9829,-2.9955,-2.9993,-2.988,-2.9955,-3.0193,-3.057,-3.0758,-3.0997,-3.1273,-3.1499,-3.1612,-3.1712,-3.2152,-3.2428,-3.2491,-3.2855,-3.3068,-3.3081,-3.3081,-3.3081,-3.3081,-3.3081,-3.3081,-3.2918,-3.2629,-3.2491,-3.2478,-3.2428,-3.2717,-3.2867,-3.3018,-3.3081,-3.3081,-3.3081,-3.3081,-3.2934,-3.2736,-3.2123,-3.1401,-3.0772,-2.9908,-2.9287,-2.8701,-2.7515,-3.9424,-3.9424,-3.9424,-3.9424,-3.9424,-3.9424,-3.9409,-3.9277,-3.9277,-3.9116,-3.8778,-3.7609,-3.6893,-3.6393,-3.4339,-3.3078,-3.2476,-3.0983,-2.9995,-2.988,-2.9804,-2.9779,-2.9779,-2.9779,-2.9779,-2.9779,-2.9779,-2.9779,-2.9779,-2.9779,-2.9779,-2.9779,-2.9779,-2.9779,-2.9779,-2.9779,-2.9779,-2.9779,-2.9779,-2.9779,-2.9779,-2.9779,-2.9779,-2.9779,-2.9779,-2.9779,-2.9779,-2.9779,-2.9779,-2.9779,-2.9779,-2.9779,-2.9779,-2.9779,-2.9779,-2.9779,-2.9779,-2.9779,-2.9779,-2.9779,-2.9779,-2.9779,-2.9779,-2.9779,-2.9779,-2.9779,-2.9779,-2.9779,-2.9792,-2.9804,-2.9917,-3.0256,-3.0369,-2.998,-3.0306,-3.0645,-3.0809,-3.1135,-3.1424,-3.1574,-3.1938,-3.219,-3.234,-3.2641,-3.293,-3.2968,-3.3031,-3.3081,-3.3081,-3.3081,-3.3081,-3.3081,-3.3081,-3.3081,-3.3081,-3.3068,-3.3056,-3.3031,-3.2955,-3.3018,-3.3006,-3.3081,-3.3081,-3.3081,-3.3081,-3.3081,-3.2251,-3.1974,-3.1526,-3.0909,-3.0593,-3.0262,-2.9973,-2.9228,-2.7978,-3.9424,-3.9424,-3.9424,-3.9424,-3.9424,-3.9424,-3.9424,-3.9424,-3.9424,-3.9424,-3.9307,-3.8896,-3.8238,-3.7471,-3.6193,-3.4898,-3.3516,-3.2437,-3.1395,-3.0527,-2.9993,-2.9804,-2.9804,-2.9792,-2.9779,-2.9779,-2.9779,-2.9779,-2.9779,-2.9779,-2.9779,-2.9779,-2.9779,-2.9779,-2.9779,-2.9779,-2.9779,-2.9779,-2.9779,-2.9779,-2.9779,-2.9779,-2.9779,-2.9779,-2.9779,-2.9779,-2.9779,-2.9779,-2.9779,-2.9779,-2.9779,-2.9779,-2.9779,-2.9779,-2.9779,-2.9779,-2.9779,-2.9779,-2.9779,-2.9779,-2.9779,-2.9779,-2.9779,-2.9779,-2.9779,-2.9779,-2.9779,-2.9779,-2.9792,-2.9905,-3.0294,-3.0495,-3.057,-3.0382,-3.0834,-3.1311,-3.1662,-3.2177,-3.2503,-3.2554,-3.2704,-3.2792,-3.2817,-3.3043,-3.3068,-3.3081,-3.3081,-3.3081,-3.3081,-3.3081,-3.3081,-3.3081,-3.3081,-3.3081,-3.3081,-3.3081,-3.3081,-3.3081,-3.3081,-3.3081,-3.3081,-3.3081,-3.3081,-3.3043,-3.3043,-3.2587,-3.1777,-3.1085,-3.0502,-3.0137,-2.9611,-2.9757,-3.026,-2.9261,-2.7587,-3.9424,-3.9424,-3.9424,-3.9424,-3.9424,-3.9424,-3.9424,-3.9424,-3.9424,-3.9424,-3.9424,-3.9424,-3.9017,-3.831,-3.7649,-3.6547,-3.52,-3.3965,-3.2764,-3.1634,-3.0473,-3.0105,-3.0055,-2.9867,-2.9779,-2.9779,-2.9779,-2.9779,-2.9779,-2.9779,-2.9779,-2.9779,-2.9779,-2.9779,-2.9779,-2.9779,-2.9779,-2.9779,-2.9779,-2.9779,-2.9779,-2.9779,-2.9779,-2.9779,-2.9779,-2.9779,-2.9779,-2.9779,-2.9779,-2.9779,-2.9779,-2.9779,-2.9779,-2.9779,-2.9779,-2.9779,-2.9779,-2.9779,-2.9779,-2.9779,-2.9779,-2.9779,-2.9779,-2.9779,-2.9779,-2.9779,-2.9779,-2.9779,-2.9993,-3.0244,-3.057,-3.1035,-3.1173,-3.121,-3.1499,-3.1938,-3.2453,-3.2842,-3.3031,-3.3018,-3.3056,-3.3081,-3.3081,-3.3081,-3.3081,-3.3081,-3.3081,-3.3081,-3.3081,-3.3081,-3.3081,-3.3081,-3.3081,-3.3081,-3.3081,-3.3081,-3.3081,-3.3081,-3.3081,-3.3081,-3.3081,-3.3081,-3.3081,-3.2759,-3.2623,-3.1956,-3.1156,-2.9953,-2.9244,-2.8932,-2.8495,-2.804,-2.7905,-2.7788,-2.6633,-3.9424,-3.9424,-3.9424,-3.9424,-3.9424,-3.9424,-3.9424,-3.9424,-3.9424,-3.9424,-3.9424,-3.9424,-3.9265,-3.9017,-3.8072,-3.741,-3.7062,-3.4939,-3.3738,-3.294,-3.172,-3.0758,-3.0608,-3.0168,-2.9955,-2.9905,-2.9829,-2.9779,-2.9779,-2.9779,-2.9779,-2.9779,-2.9779,-2.9779,-2.9779,-2.9779,-2.9779,-2.9779,-2.9779,-2.9779,-2.9779,-2.9779,-2.9779,-2.9779,-2.9779,-2.9779,-2.9779,-2.9779,-2.9779,-2.9779,-2.9779,-2.9779,-2.9779,-2.9779,-2.9779,-2.9779,-2.9779,-2.9779,-2.9779,-2.9779,-2.9779,-2.9779,-2.9779,-2.9779,-2.9779,-2.9779,-2.9842,-2.993,-3.0294,-3.0633,-3.0909,-3.1512,-3.2039,-3.2227,-3.224,-3.2516,-3.2968,-3.3068,-3.3081,-3.3081,-3.3081,-3.3081,-3.3081,-3.3081,-3.3081,-3.3081,-3.3081,-3.3081,-3.3081,-3.3081,-3.3081,-3.3081,-3.3081,-3.2711,-3.2612,-3.2426,-3.2339,-3.1701,-3.2064,-3.2438,-3.2884,-3.3107,-3.2438,-3.2117,-3.1648,-3.1077,-3.0267,-2.9058,-2.8052,-2.762,-2.6945,-2.6014,-2.583,-2.613,-2.6227,-3.9424,-3.9424,-3.9424,-3.9424,-3.9424,-3.9424,-3.9424,-3.9424,-3.9424,-3.9424,-3.9424,-3.9424,-3.9017,-3.8219,-3.7994,-3.7035,-3.5787,-3.4887,-3.3957,-3.3224,-3.2294,-3.1562,-3.1148,-3.0645,-3.0369,-3.0306,-2.9967,-2.9779,-2.9779,-2.9779,-2.9779,-2.9779,-2.9779,-2.9779,-2.9779,-2.9779,-2.9779,-2.9779,-2.9779,-2.9779,-2.9779,-2.9779,-2.9779,-2.9779,-2.9779,-2.9779,-2.9779,-2.9779,-2.9779,-2.9779,-2.9779,-2.9779,-2.9779,-2.9779,-2.9779,-2.9779,-2.9779,-2.9779,-2.9779,-2.9779,-2.9779,-2.9779,-2.9779,-2.9779,-2.9779,-2.9792,-2.9993,-3.0281,-3.057,-3.0972,-3.1625,-3.2051,-3.239,-3.278,-3.2792,-3.2867,-3.3031,-3.3081,-3.3081,-3.3081,-3.3081,-3.3081,-3.3081,-3.3081,-3.3081,-3.3081,-3.3081,-3.3081,-3.3081,-3.3081,-3.3081,-3.3081,-3.2982,-3.2413,-3.204,-3.1777,-3.1235,-3.0316,-3.0519,-3.127,-3.2159,-3.3071,-3.1889,-3.0726,-2.9978,-2.9385,-2.8767,-2.7893,-2.7184,-2.6496,-2.6207,-2.5732,-2.5732,-2.583,-2.5927,-3.9424,-3.9424,-3.9424,-3.9424,-3.9424,-3.9424,-3.9424,-3.9424,-3.9424,-3.9424,-3.9424,-3.9424,-3.9017,-3.8457,-3.7994,-3.7204,-3.6015,-3.5047,-3.4332,-3.3817,-3.2946,-3.2014,-3.121,-3.0721,-3.0507,-3.0256,-2.9955,-2.9804,-2.9779,-2.9779,-2.9779,-2.9779,-2.9779,-2.9779,-2.9779,-2.9779,-2.9779,-2.9779,-2.9779,-2.9779,-2.9779,-2.9779,-2.9779,-2.9779,-2.9779,-2.9779,-2.9779,-2.9779,-2.9779,-2.9779,-2.9779,-2.9779,-2.9779,-2.9779,-2.9779,-2.9779,-2.9779,-2.9779,-2.9779,-2.9779,-2.9779,-2.9779,-2.9779,-2.993,-3.0093,-3.0156,-3.0369,-3.0846,-3.111,-3.1587,-3.2064,-3.2416,-3.2717,-3.298,-3.3081,-3.3081,-3.3081,-3.3081,-3.3081,-3.3081,-3.3081,-3.3081,-3.3081,-3.3081,-3.3081,-3.3081,-3.3081,-3.3081,-3.3081,-3.3081,-3.3081,-3.3081,-3.2599,-3.1865,-3.1223,-3.0855,-3.0316,-2.9407,-2.9131,-2.9886,-3.1184,-3.2297,-3.0902,-2.9353,-2.8473,-2.7856,-2.7516,-2.7119,-2.649,-2.6033,-2.5742,-2.5732,-2.5732,-2.5732,-2.5732,-3.9424,-3.9424,-3.9424,-3.9424,-3.9424,-3.9424,-3.9424,-3.9424,-3.9424,-3.9424,-3.9424,-3.9424,-3.9177,-3.9192,-3.8084,-3.7601,-3.7204,-3.5373,-3.4664,-3.4108,-3.3377,-3.2303,-3.1148,-3.0884,-3.0595,-3.0206,-2.993,-2.9792,-2.9779,-2.9779,-2.9779,-2.9779,-2.9779,-2.9779,-2.9779,-2.9779,-2.9779,-2.9779,-2.9779,-2.9779,-2.9779,-2.9779,-2.9779,-2.9779,-2.9779,-2.9779,-2.9779,-2.9779,-2.9779,-2.9779,-2.9779,-2.9779,-2.9779,-2.9779,-2.9779,-2.9779,-2.9779,-2.9779,-2.9779,-2.9779,-2.9854,-2.9917,-2.993,-3.0118,-3.0545,-3.0696,-3.0909,-3.1424,-3.1926,-3.2139,-3.239,-3.2792,-3.2993,-3.3081,-3.3081,-3.3081,-3.3081,-3.3081,-3.3081,-3.3081,-3.3081,-3.3081,-3.3081,-3.3081,-3.3081,-3.3081,-3.3081,-3.3081,-3.3081,-3.3081,-3.3081,-3.3081,-3.2326,-3.1223,-3.0586,-2.9943,-2.9304,-2.8577,-2.8215,-2.8757,-2.9959,-3.0445,-2.9268,-2.8131,-2.7294,-2.6993,-2.7043,-2.6516,-2.5946,-2.5752,-2.5732,-2.5732,-2.5732,-2.5732,-2.5732,-3.9424,-3.9424,-3.9424,-3.9424,-3.9424,-3.9424,-3.9424,-3.9424,-3.9424,-3.9424,-3.9424,-3.9424,-3.8943,-3.8234,-3.7919,-3.6958,-3.5775,-3.4897,-3.4262,-3.3398,-3.324,-3.2667,-3.1851,-3.1449,-3.1148,-3.0809,-3.0131,-2.9817,-2.9804,-2.9779,-2.9779,-2.9779,-2.9779,-2.9779,-2.9779,-2.9779,-2.9779,-2.9779,-2.9779,-2.9779,-2.9779,-2.9779,-2.9779,-2.9779,-2.9779,-2.9779,-2.9779,-2.9779,-2.9779,-2.9779,-2.9779,-2.9779,-2.9779,-2.9779,-2.9779,-2.9779,-2.9779,-2.9779,-2.9792,-2.9829,-2.9993,-3.0344,-3.0432,-3.0658,-3.1148,-3.1223,-3.1486,-3.1913,-3.2152,-3.2441,-3.278,-3.298,-3.3068,-3.3081,-3.3081,-3.3081,-3.3081,-3.3081,-3.3081,-3.3081,-3.3081,-3.3081,-3.3081,-3.3081,-3.3081,-3.3081,-3.3081,-3.3081,-3.3081,-3.3081,-3.3081,-3.3081,-3.1777,-3.0676,-2.9943,-2.9039,-2.8028,-2.7568,-2.7389,-2.7315,-2.8496,-2.9088,-2.8124,-2.7076,-2.6139,-2.6058,-2.6466,-2.6294,-2.5742,-2.5732,-2.5732,-2.5732,-2.5732,-2.5732,-2.5732,-3.9424,-3.9424,-3.9424,-3.9424,-3.9424,-3.9424,-3.9424,-3.9424,-3.9424,-3.9424,-3.9424,-3.9424,-3.9031,-3.8531,-3.7994,-3.688,-3.5601,-3.4815,-3.4108,-3.3484,-3.3543,-3.3377,-3.2591,-3.2014,-3.1574,-3.106,-3.0495,-3.0093,-2.9867,-2.9792,-2.9779,-2.9779,-2.9779,-2.9779,-2.9779,-2.9779,-2.9779,-2.9779,-2.9779,-2.9779,-2.9779,-2.9779,-2.9779,-2.9779,-2.9779,-2.9779,-2.9779,-2.9779,-2.9779,-2.9779,-2.9779,-2.9779,-2.9779,-2.9779,-2.9779,-2.9779,-2.9779,-2.9779,-2.9804,-3.0043,-3.0306,-3.0608,-3.0821,-3.1273,-3.1625,-3.1775,-3.2051,-3.2453,-3.2641,-3.278,-3.3043,-3.3081,-3.3081,-3.3081,-3.3081,-3.3081,-3.3081,-3.3081,-3.3081,-3.3081,-3.3081,-3.3081,-3.3081,-3.3081,-3.3081,-3.3081,-3.3081,-3.3081,-3.3081,-3.3081,-3.3081,-3.2711,-3.1235,-3.0045,-2.9315,-2.8215,-2.6744,-2.637,-2.6284,-2.6284,-2.679,-2.7109,-2.7068,-2.637,-2.5682,-2.5732,-2.5917,-2.5732,-2.5732,-2.5732,-2.5732,-2.5732,-2.5732,-2.5732,-2.5732,-3.9424,-3.9424,-3.9424,-3.9424,-3.9424,-3.9424,-3.9424,-3.9424,-3.9424,-3.9424,-3.9424,-3.9424,-3.9352,-3.9192,-3.8472,-3.7496,-3.6462,-3.5426,-3.4498,-3.3713,-3.4191,-3.383,-3.311,-3.2503,-3.1913,-3.0934,-3.0633,-3.0331,-3.0043,-2.9829,-2.9792,-2.9779,-2.9779,-2.9779,-2.9779,-2.9779,-2.9779,-2.9779,-2.9779,-2.9779,-2.9779,-2.9779,-2.9779,-2.9779,-2.9779,-2.9779,-2.9779,-2.9779,-2.9779,-2.9779,-2.9779,-2.9779,-2.9779,-2.9779,-2.9779,-2.9792,-2.9892,-3.0018,-3.0118,-3.0419,-3.0771,-3.0834,-3.1235,-3.1763,-3.219,-3.2378,-3.2566,-3.2817,-3.3018,-3.3006,-3.3081,-3.3081,-3.3081,-3.3081,-3.3081,-3.3081,-3.3081,-3.3081,-3.3081,-3.3081,-3.3081,-3.3081,-3.3081,-3.3081,-3.3081,-3.3093,-3.3106,-3.3106,-3.3106,-3.3093,-3.3106,-3.2797,-3.1512,-2.9681,-2.8773,-2.7568,-2.61,-2.582,-2.5732,-2.5732,-2.5732,-2.6043,-2.6354,-2.6043,-2.5713,-2.5732,-2.5732,-2.5732,-2.5732,-2.5732,-2.5732,-2.5732,-2.5732,-2.5732,-2.5732,-3.9424,-3.9424,-3.9424,-3.9424,-3.9424,-3.9424,-3.9424,-3.9424,-3.9424,-3.9424,-3.9424,-3.9424,-3.9424,-3.9352,-3.9265,-3.8472,-3.7343,-3.6383,-3.5426,-3.4594,-3.4746,-3.4275,-3.3433,-3.3003,-3.2478,-3.1863,-3.121,-3.067,-3.0394,-3.0055,-2.9955,-2.9842,-2.9842,-2.9842,-2.9804,-2.9779,-2.9779,-2.9779,-2.9779,-2.9779,-2.9779,-2.9779,-2.9779,-2.9779,-2.9779,-2.9779,-2.9779,-2.9779,-2.9779,-2.9779,-2.9779,-2.9804,-2.9867,-2.9867,-2.988,-2.9942,-3.0256,-3.0482,-3.0545,-3.0959,-3.1461,-3.1825,-3.2026,-3.2315,-3.2729,-3.2893,-3.2918,-3.298,-3.3081,-3.3081,-3.3081,-3.3081,-3.3081,-3.3081,-3.3081,-3.3081,-3.3081,-3.3081,-3.3081,-3.3081,-3.3081,-3.3093,-3.3106,-3.3169,-3.3282,-3.3357,-3.3432,-3.3357,-3.3269,-3.3206,-3.3144,-3.2649,-3.1877,-2.9954,-2.8132,-2.6935,-2.5732,-2.582,-2.5732,-2.5732,-2.5732,-2.5732,-2.5732,-2.5732,-2.5732,-2.5732,-2.5732,-2.5732,-2.5732,-2.5732,-2.5732,-2.5732,-2.5732,-2.5732,-2.5732,-3.9424,-3.9424,-3.9424,-3.9424,-3.9424,-3.9424,-3.9424,-3.9424,-3.9424,-3.9424,-3.9424,-3.9424,-3.9424,-3.9424,-3.9424,-3.8782,-3.7829,-3.7343,-3.6448,-3.5682,-3.5426,-3.4884,-3.3882,-3.3484,-3.3016,-3.2503,-3.1851,-3.1248,-3.1022,-3.0783,-3.0444,-3.0244,-3.0218,-3.0093,-2.9842,-2.9779,-2.9804,-2.9804,-2.9792,-2.9779,-2.9779,-2.9779,-2.9779,-2.9779,-2.9779,-2.9779,-2.9779,-2.9779,-2.9779,-2.9842,-3.008,-3.0193,-3.0281,-3.0432,-3.0482,-3.0394,-3.0721,-3.1009,-3.111,-3.1512,-3.1938,-3.2177,-3.2453,-3.2754,-3.2993,-3.3056,-3.3081,-3.3081,-3.3081,-3.3081,-3.3081,-3.3081,-3.3081,-3.3081,-3.3093,-3.3106,-3.3106,-3.3106,-3.3156,-3.3181,-3.3169,-3.3181,-3.3144,-3.3269,-3.3458,-3.3608,-3.3746,-3.3671,-3.3533,-3.3495,-3.347,-3.2772,-3.2107,-3.0274,-2.8441,-2.7246,-2.5957,-2.583,-2.5801,-2.5791,-2.5703,-2.5693,-2.5713,-2.5732,-2.5732,-2.5702,-2.5732,-2.5732,-2.5732,-2.5732,-2.5732,-2.5732,-2.5732,-2.5732,-2.5732,-3.9424,-3.9424,-3.9424,-3.9424,-3.9424,-3.9424,-3.9424,-3.9424,-3.9424,-3.9424,-3.9424,-3.9424,-3.9424,-3.9424,-3.9352,-3.8943,-3.8159,-3.8144,-3.7496,-3.6696,-3.6526,-3.5987,-3.4979,-3.4275,-3.3746,-3.3475,-3.3462,-3.2479,-3.1599,-3.1323,-3.1097,-3.0871,-3.0758,-3.0583,-3.0269,-3.0131,-3.0005,-2.993,-2.9804,-2.9779,-2.9779,-2.9779,-2.9779,-2.9779,-2.9779,-2.9779,-2.9779,-2.9779,-2.9905,-3.0068,-3.0344,-3.0645,-3.0834,-3.126,-3.1336,-3.1097,-3.1348,-3.1499,-3.1687,-3.2077,-3.2416,-3.2503,-3.283,-3.3018,-3.3081,-3.3081,-3.3081,-3.3081,-3.3081,-3.3081,-3.3081,-3.3081,-3.3156,-3.3282,-3.3294,-3.3319,-3.3495,-3.3583,-3.3633,-3.3583,-3.3395,-3.3395,-3.3483,-3.3508,-3.3746,-3.4073,-3.4223,-3.4223,-3.4098,-3.4073,-3.3884,-3.3155,-3.213,-3.0468,-2.9005,-2.7952,-2.6811,-2.6035,-2.5996,-2.5967,-2.5791,-2.5732,-2.5858,-2.6147,-2.5658,-2.5664,-2.569,-2.5917,-2.6014,-2.6014,-2.583,-2.5732,-2.5732,-2.5732,-2.5732,-3.9424,-3.9424,-3.9424,-3.9424,-3.9424,-3.9424,-3.9424,-3.9424,-3.9424,-3.9424,-3.9424,-3.9424,-3.9424,-3.9424,-3.9424,-3.9265,-3.9192,-3.9031,-3.8546,-3.7738,-3.751,-3.6944,-3.6132,-3.596,-3.5034,-3.4719,-3.5171,-3.4202,-3.2859,-3.2016,-3.1424,-3.1323,-3.1298,-3.121,-3.0972,-3.0896,-3.052,-3.0432,-3.0133,-2.9894,-2.9817,-2.9817,-2.9779,-2.9779,-2.9829,-2.9867,-2.9917,-2.9967,-3.0118,-3.0507,-3.0595,-3.0871,-3.1286,-3.1825,-3.2051,-3.2051,-3.2089,-3.2114,-3.2202,-3.2566,-3.288,-3.2855,-3.3031,-3.3081,-3.3081,-3.3081,-3.3081,-3.3081,-3.3081,-3.3081,-3.3093,-3.3119,-3.3319,-3.3583,-3.3759,-3.4035,-3.4261,-3.4073,-3.4123,-3.4186,-3.4073,-3.401,-3.4035,-3.401,-3.4048,-3.4399,-3.4675,-3.47,-3.4613,-3.4537,-3.4462,-3.3804,-3.2949,-3.1344,-3.0292,-2.9117,-2.7919,-2.6794,-2.6576,-2.6399,-2.6035,-2.6031,-2.6843,-2.695,-2.6329,-2.6568,-2.7411,-2.7505,-2.6754,-2.6476,-2.6476,-2.61,-2.5732,-2.5732,-2.5732,-3.9424,-3.9424,-3.9424,-3.9424,-3.9424,-3.9424,-3.9424,-3.9424,-3.9424,-3.9424,-3.9424,-3.9424,-3.9424,-3.9424,-3.9424,-3.9424,-3.9424,-3.9424,-3.9192,-3.856,-3.8159,-3.7587,-3.7021,-3.6526,-3.5814,-3.5828,-3.5894,-3.5705,-3.4392,-3.3528,-3.2924,-3.2028,-3.1908,-3.165,-3.1838,-3.1896,-3.1926,-3.1824,-3.1474,-3.0855,-3.0325,-2.998,-2.9804,-2.9817,-3.0105,-3.0231,-3.0306,-3.0595,-3.0771,-3.111,-3.1286,-3.1599,-3.1926,-3.2353,-3.2704,-3.2692,-3.2704,-3.2704,-3.2729,-3.2943,-3.3043,-3.3081,-3.3081,-3.3081,-3.3081,-3.3081,-3.3081,-3.3081,-3.3081,-3.3093,-3.3194,-3.3382,-3.3608,-3.3897,-3.4236,-3.4487,-3.4726,-3.4675,-3.4625,-3.47,-3.4776,-3.4738,-3.4738,-3.4813,-3.4851,-3.5039,-3.5316,-3.5429,-3.5165,-3.4813,-3.4738,-3.4535,-3.3631,-3.2487,-3.1679,-3.0813,-2.9559,-2.8421,-2.7837,-2.738,-2.6433,-2.6532,-2.7547,-2.7732,-2.7125,-2.7796,-2.9087,-2.9606,-2.9548,-2.8411,-2.7136,-2.6733,-2.6254,-2.5732,-2.581,-3.9017,-3.9031,-3.925,-3.9424,-3.9424,-3.9424,-3.9424,-3.9424,-3.9424,-3.9424,-3.9424,-3.9424,-3.9424,-3.9424,-3.9424,-3.9424,-3.9424,-3.9424,-3.9424,-3.9104,-3.8708,-3.8308,-3.8055,-3.742,-3.7007,-3.6604,-3.7175,-3.664,-3.6026,-3.5573,-3.47,-3.3282,-3.3502,-3.3251,-3.2995,-3.3212,-3.355,-3.3269,-3.3024,-3.2468,-3.1876,-3.1409,-3.1048,-3.088,-3.094,-3.1036,-3.0871,-3.1097,-3.1336,-3.1662,-3.1888,-3.2139,-3.2453,-3.2767,-3.298,-3.2993,-3.2993,-3.3006,-3.2993,-3.3056,-3.3081,-3.3081,-3.3081,-3.3081,-3.3081,-3.3081,-3.3081,-3.3081,-3.3307,-3.3307,-3.3395,-3.3784,-3.4198,-3.4474,-3.4726,-3.4914,-3.5102,-3.5203,-3.5316,-3.5441,-3.5516,-3.5504,-3.5542,-3.5667,-3.573,-3.578,-3.5931,-3.6081,-3.578,-3.529,-3.529,-3.529,-3.4922,-3.3871,-3.3054,-3.2291,-3.1027,-3.0123,-2.9516,-2.8187,-2.7078,-2.76,-2.891,-2.8635,-2.8448,-2.9499,-3.1134,-3.1817,-3.2281,-3.0399,-2.8669,-2.761,-2.6958,-2.639,-2.6368,-3.7919,-3.7979,-3.9017,-3.9409,-3.9424,-3.9409,-3.9409,-3.961,-3.9481,-3.9409,-3.9424,-3.9424,-3.9424,-3.9424,-3.9424,-3.9424,-3.9424,-3.9424,-3.9424,-3.9352,-3.9352,-3.9104,-3.8943,-3.8782,-3.8531,-3.7979,-3.8219,-3.7724,-3.693,-3.7266,-3.6654,-3.605,-3.5437,-3.5664,-3.5538,-3.5128,-3.5016,-3.4789,-3.4485,-3.4327,-3.4073,-3.3786,-3.3428,-3.2802,-3.2673,-3.2423,-3.1498,-3.1663,-3.1984,-3.2377,-3.2361,-3.2503,-3.283,-3.2993,-3.3081,-3.3081,-3.3081,-3.3081,-3.3081,-3.3081,-3.3081,-3.3081,-3.3081,-3.3081,-3.3081,-3.3081,-3.3081,-3.3181,-3.3508,-3.3759,-3.396,-3.4324,-3.4788,-3.5052,-3.5278,-3.5554,-3.5755,-3.5943,-3.6056,-3.6194,-3.6169,-3.6019,-3.5994,-3.6044,-3.6056,-3.6081,-3.6094,-3.6245,-3.627,-3.5943,-3.6044,-3.6081,-3.6132,-3.5458,-3.4498,-3.3664,-3.2982,-3.2145,-3.1375,-2.9417,-2.7431,-2.8527,-2.9656,-3.1494,-3.1705,-3.2435,-3.2773,-3.3002,-3.266,-3.1442,-3.0124,-2.9028,-2.8744,-2.872,-2.857,-3.8797,-3.8855,-3.9834,-4.017,-4.0185,-4.0185,-4.0516,-4.0842,-4.0447,-3.9864,-3.9424,-3.9424,-3.9424,-3.9424,-3.9424,-3.9424,-3.9424,-3.9424,-3.9424,-3.9424,-3.9424,-3.9424,-3.9424,-3.9337,-3.9162,-3.887,-3.9177,-3.9177,-3.8457,-3.8546,-3.8546,-3.7965,-3.7007,-3.6263,-3.6152,-3.6704,-3.6679,-3.6514,-3.6187,-3.584,-3.5079,-3.476,-3.4369,-3.408,-3.4376,-3.4289,-3.3899,-3.3603,-3.3606,-3.3527,-3.3102,-3.3025,-3.3104,-3.3154,-3.3081,-3.3081,-3.3081,-3.3081,-3.3081,-3.3081,-3.3081,-3.3081,-3.3081,-3.3081,-3.3081,-3.3081,-3.3294,-3.352,-3.3771,-3.4035,-3.4462,-3.4889,-3.5328,-3.5474,-3.5818,-3.6094,-3.6232,-3.6332,-3.6358,-3.6307,-3.632,-3.6282,-3.6295,-3.632,-3.6332,-3.6332,-3.6358,-3.637,-3.637,-3.637,-3.637,-3.637,-3.637,-3.637,-3.5475,-3.5234,-3.4981,-3.4053,-3.3115,-3.1609,-2.9831,-2.8679,-3.0054,-3.2509,-3.4299,-3.4199,-3.3997,-3.3845,-3.3116,-3.1886,-3.1069,-3.0352,-3.0456,-3.0887,-3.0914,-3.906,-3.9391,-4.0347,-4.069,-4.0758,-4.0946,-4.1412,-4.1804,-4.1346,-4.0569,-3.9809,-3.9538,-3.9424,-3.9424,-3.9424,-3.9424,-3.9424,-3.9424,-3.9424,-3.9424,-3.9424,-3.9424,-3.9424,-3.9352,-3.9337,-3.9424,-3.9424,-3.9265,-3.9177,-3.9352,-3.9265,-3.8767,-3.804,-3.7482,-3.7405,-3.7829,-3.8234,-3.8162,-3.7855,-3.7417,-3.6632,-3.6347,-3.5882,-3.5789,-3.6003,-3.5731,-3.5517,-3.5102,-3.5036,-3.4735,-3.4293,-3.3687,-3.3484,-3.3326,-3.3167,-3.3081,-3.3081,-3.3081,-3.3081,-3.3081,-3.3081,-3.3081,-3.3081,-3.3081,-3.3081,-3.3106,-3.3282,-3.3796,-3.4035,-3.4374,-3.4926,-3.5454,-3.5755,-3.5981,-3.6081,-3.6295,-3.6307,-3.637,-3.637,-3.6358,-3.637,-3.637,-3.637,-3.637,-3.637,-3.637,-3.637,-3.637,-3.637,-3.637,-3.637,-3.637,-3.637,-3.637,-3.6358,-3.5941,-3.5618,-3.5473,-3.4738,-3.4676,-3.3231,-3.1728,-3.1101,-3.3338,-3.4702,-3.5161,-3.5085,-3.4577,-3.3671,-3.25,-3.1937,-3.1603,-3.2076,-3.2536,-3.29,-3.8429,-3.9197,-4.0286,-4.0758,-4.0946,-4.1609,-4.2062,-4.2252,-4.1933,-4.133,-4.05,-3.9793,-3.9424,-3.9424,-3.9424,-3.9424,-3.9424,-3.9424,-3.9424,-3.9424,-3.9424,-3.9424,-3.9424,-3.9424,-3.9424,-3.9424,-3.9424,-3.9424,-3.9424,-3.9424,-3.9424,-3.9424,-3.8943,-3.8855,-3.9265,-3.9265,-3.9337,-3.9322,-3.919,-3.8986,-3.8854,-3.859,-3.8135,-3.7676,-3.7569,-3.722,-3.6789,-3.635,-3.6225,-3.5987,-3.521,-3.4746,-3.4568,-3.3713,-3.3398,-3.3326,-3.3167,-3.3081,-3.3081,-3.3081,-3.3081,-3.3081,-3.3081,-3.3131,-3.3119,-3.3169,-3.3508,-3.4211,-3.4487,-3.4939,-3.5479,-3.5943,-3.6144,-3.6245,-3.6332,-3.637,-3.637,-3.637,-3.637,-3.637,-3.637,-3.637,-3.637,-3.637,-3.637,-3.637,-3.637,-3.637,-3.637,-3.637,-3.637,-3.637,-3.637,-3.637,-3.637,-3.637,-3.625,-3.625,-3.6081,-3.5799,-3.5543,-3.4531,-3.4398,-3.4939,-3.513,-3.5511,-3.5466,-3.5264,-3.4401,-3.3583,-3.3233,-3.3097,-3.3722,-3.4132,-3.4399,-3.9376,-4.027,-4.1182,-4.1933,-4.2395,-4.2707,-4.3152,-4.3469,-4.2567,-4.1528,-4.0622,-3.9793,-3.9424,-3.9424,-3.9424,-3.9424,-3.9424,-3.9424,-3.9424,-3.9424,-3.9424,-3.9424,-3.9424,-3.9424,-3.9424,-3.9424,-3.9424,-3.9424,-3.9424,-3.9424,-3.9424,-3.9424,-3.9424,-3.9424,-3.9352,-3.9424,-3.9424,-3.9424,-3.9337,-3.9337,-3.9424,-3.9352,-3.9192,-3.8797,-3.8782,-3.8531,-3.8055,-3.7572,-3.7252,-3.7098,-3.6239,-3.5588,-3.5426,-3.4568,-3.4037,-3.3882,-3.3641,-3.3081,-3.3081,-3.3081,-3.3081,-3.3093,-3.3144,-3.3294,-3.3533,-3.3608,-3.411,-3.461,-3.4832,-3.5306,-3.6031,-3.6182,-3.632,-3.632,-3.637,-3.637,-3.637,-3.637,-3.637,-3.637,-3.637,-3.637,-3.637,-3.637,-3.637,-3.637,-3.637,-3.637,-3.637,-3.637,-3.637,-3.637,-3.637,-3.637,-3.637,-3.637,-3.637,-3.6358,-3.6358,-3.62,-3.6157,-3.6019,-3.5956,-3.5667,-3.5742,-3.5911,-3.5789,-3.5666,-3.5375,-3.4866,-3.4485,-3.4445,-3.5039,-3.545,-3.5694,-3.9935,-4.0743,-4.1593,-4.252,-4.3306,-4.3621,-4.4138,-4.4253,-4.2769,-4.1674,-4.1013,-3.999,-3.9424,-3.9424,-3.9424,-3.9424,-3.9424,-3.9424,-3.9424,-3.9424,-3.9424,-3.9424,-3.9424,-3.9424,-3.9424,-3.9424,-3.9424,-3.9424,-3.9424,-3.9424,-3.9424,-3.9424,-3.9424,-3.9424,-3.9424,-3.9424,-3.9424,-3.9424,-3.9424,-3.9424,-3.9424,-3.9424,-3.9424,-3.9352,-3.9352,-3.9265,-3.9177,-3.8782,-3.8308,-3.7904,-3.7175,-3.6277,-3.5894,-3.5034,-3.4262,-3.3869,-3.3641,-3.3081,-3.3081,-3.3081,-3.3169,-3.3407,-3.3357,-3.3533,-3.3897,-3.4035,-3.4226,-3.4576,-3.4935,-3.5174,-3.5519,-3.563,-3.5451,-3.5451,-3.5763,-3.5763,-3.6263,-3.6263,-3.6358,-3.6358,-3.637,-3.637,-3.637,-3.637,-3.637,-3.637,-3.637,-3.637,-3.637,-3.637,-3.637,-3.637,-3.637,-3.637,-3.637,-3.637,-3.637,-3.637,-3.637,-3.637,-3.6345,-3.6219,-3.6307,-3.637,-3.6207,-3.6107,-3.6251,-3.6087,-3.5785,-3.5646,-3.5491,-3.576,-3.6324,-3.6387,-3.6413,-3.992,-4.0743,-4.1577,-4.2393,-4.324,-4.3805,-4.4305,-4.4423,-4.2831,-4.2062,-4.1853,-4.0185,-3.9553,-3.9424,-3.9424,-3.9424,-3.9424,-3.9424,-3.9424,-3.9424,-3.9424,-3.9424,-3.9424,-3.9424,-3.9424,-3.9424,-3.9424,-3.9424,-3.9424,-3.9424,-3.9424,-3.9424,-3.9424,-3.9424,-3.9424,-3.9424,-3.9424,-3.9424,-3.9424,-3.9424,-3.9424,-3.9424,-3.9424,-3.9424,-3.9424,-3.9424,-3.9337,-3.9192,-3.9104,-3.8546,-3.7405,-3.6604,-3.5588,-3.4249,-3.3543,-3.3154,-3.3167,-3.3167,-3.3081,-3.3081,-3.3357,-3.3658,-3.3872,-3.3922,-3.4173,-3.4472,-3.4502,-3.4193,-3.4186,-3.4125,-3.4267,-3.4009,-3.3737,-3.4154,-3.4569,-3.5162,-3.587,-3.6168,-3.6263,-3.6263,-3.637,-3.637,-3.637,-3.637,-3.637,-3.637,-3.637,-3.637,-3.637,-3.637,-3.637,-3.637,-3.637,-3.637,-3.637,-3.637,-3.637,-3.637,-3.637,-3.637,-3.637,-3.637,-3.637,-3.637,-3.637,-3.6345,-3.6389,-3.6402,-3.6364,-3.6169,-3.5994,-3.615,-3.6407,-3.6445,-3.6389,-3.9935,-4.0628,-4.0497,-4.0864,-4.1617,-4.203,-4.3076,-4.4299,-4.3366,-4.2645,-4.1933,-4.0826,-3.9859,-3.9409,-3.9424,-3.9424,-3.9424,-3.9424,-3.9424,-3.9424,-3.9424,-3.9424,-3.9424,-3.9424,-3.9424,-3.9424,-3.9424,-3.9424,-3.9424,-3.9424,-3.9424,-3.9424,-3.9424,-3.9424,-3.9424,-3.9424,-3.9424,-3.9352,-3.9352,-3.9265,-3.9265,-3.9265,-3.9265,-3.9265,-3.9352,-3.9352,-3.9265,-3.9265,-3.9017,-3.8055,-3.7663,-3.7098,-3.6053,-3.4966,-3.4121,-3.3154,-3.3081,-3.3081,-3.3081,-3.3081,-3.3345,-3.3909,-3.4223,-3.4738,-3.4977,-3.5044,-3.4878,-3.4138,-3.3617,-3.3621,-3.2998,-3.2521,-3.2632,-3.3143,-3.3453,-3.3749,-3.4447,-3.4957,-3.5162,-3.5966,-3.6061,-3.6263,-3.6263,-3.637,-3.637,-3.637,-3.637,-3.637,-3.637,-3.637,-3.637,-3.637,-3.637,-3.637,-3.637,-3.637,-3.637,-3.637,-3.637,-3.637,-3.637,-3.637,-3.637,-3.637,-3.637,-3.637,-3.6358,-3.637,-3.637,-3.637,-3.6245,-3.6307,-3.637,-3.637,-3.637,-3.8952,-3.9382,-3.9318,-3.9833,-4.0569,-4.068,-4.1601,-4.2526,-4.2179,-4.1601,-4.1055,-4.0148,-3.9525,-3.9107,-3.926,-3.9424,-3.9424,-3.9424,-3.9424,-3.9424,-3.9379,-3.9424,-3.9424,-3.9409,-3.9424,-3.9424,-3.9424,-3.9424,-3.9424,-3.9424,-3.9424,-3.9424,-3.9424,-3.9424,-3.9424,-3.9424,-3.9424,-3.9192,-3.9031,-3.887,-3.8797,-3.8797,-3.8797,-3.887,-3.9031,-3.9177,-3.8782,-3.8782,-3.8219,-3.7266,-3.6958,-3.6318,-3.544,-3.4581,-3.3966,-3.3167,-3.3081,-3.3081,-3.3081,-3.3081,-3.352,-3.406,-3.4537,-3.509,-3.5554,-3.5787,-3.4763,-3.373,-3.3494,-3.3055,-3.2039,-3.1235,-3.1735,-3.223,-3.223,-3.223,-3.2744,-3.3453,-3.4264,-3.5271,-3.5667,-3.587,-3.6061,-3.6263,-3.637,-3.637,-3.637,-3.637,-3.637,-3.637,-3.637,-3.637,-3.637,-3.637,-3.637,-3.637,-3.637,-3.637,-3.637,-3.637,-3.637,-3.637,-3.637,-3.637,-3.637,-3.637,-3.637,-3.637,-3.637,-3.637,-3.637,-3.637,-3.637,-3.637,-3.637,-3.7419,-3.7518,-3.8223,-3.8889,-3.9678,-3.9598,-3.9766,-3.9814,-3.971,-3.9684,-3.9613,-3.8877,-3.8557,-3.8642,-3.8841,-3.908,-3.905,-3.9035,-3.8901,-3.926,-3.9185,-3.917,-3.9215,-3.9379,-3.9424,-3.9424,-3.9424,-3.9424,-3.9424,-3.9424,-3.9424,-3.9424,-3.9424,-3.9424,-3.9424,-3.9424,-3.9352,-3.9265,-3.8383,-3.7753,-3.7843,-3.7843,-3.7677,-3.7829,-3.8383,-3.8782,-3.7979,-3.7587,-3.7266,-3.6239,-3.544,-3.4897,-3.4262,-3.3882,-3.3326,-3.3167,-3.3081,-3.3081,-3.3081,-3.3081,-3.3709,-3.4261,-3.4751,-3.5316,-3.5805,-3.6157,-3.5198,-3.3714,-3.3353,-3.2241,-3.1224,-3.012,-3.0016,-3.0525,-3.0618,-3.1019,-3.1724,-3.2543,-3.3552,-3.4459,-3.4981,-3.5367,-3.6168,-3.637,-3.637,-3.637,-3.637,-3.637,-3.637,-3.637,-3.637,-3.637,-3.637,-3.637,-3.637,-3.637,-3.637,-3.637,-3.637,-3.637,-3.637,-3.637,-3.637,-3.637,-3.637,-3.637,-3.637,-3.637,-3.637,-3.637,-3.637,-3.637,-3.637,-3.637,-3.637,-3.7404,-3.736,-3.7149,-3.7208,-3.7435,-3.7388,-3.7783,-3.8243,-3.7631,-3.7997,-3.8777,-3.8716,-3.847,-3.8312,-3.8078,-3.8242,-3.8512,-3.8332,-3.7973,-3.8182,-3.8422,-3.8646,-3.8751,-3.9005,-3.9275,-3.9424,-3.9424,-3.9424,-3.9424,-3.9424,-3.9424,-3.9424,-3.9424,-3.9424,-3.9424,-3.9424,-3.9352,-3.9265,-3.7738,-3.7175,-3.751,-3.693,-3.6604,-3.693,-3.742,-3.7587,-3.7175,-3.7266,-3.6489,-3.5373,-3.4979,-3.4345,-3.3556,-3.324,-3.3167,-3.3081,-3.3081,-3.3081,-3.3081,-3.3144,-3.3633,-3.4299,-3.4839,-3.5454,-3.5931,-3.6219,-3.5667,-3.4154,-3.2944,-3.1724,-3.0514,-2.9408,-2.8495,-2.89,-2.9207,-2.9911,-3.071,-3.1622,-3.2744,-3.3453,-3.408,-3.4969,-3.587,-3.637,-3.637,-3.637,-3.637,-3.637,-3.637,-3.637,-3.637,-3.637,-3.637,-3.637,-3.637,-3.637,-3.637,-3.637,-3.637,-3.637,-3.637,-3.637,-3.637,-3.637,-3.637,-3.637,-3.637,-3.637,-3.637,-3.637,-3.637,-3.637,-3.637,-3.637,-3.637,-3.5663,-3.5314,-3.5365,-3.5693,-3.6085,-3.6117,-3.6337,-3.6662,-3.629,-3.6514,-3.7296,-3.7552,-3.7652,-3.7644,-3.7404,-3.7494,-3.7853,-3.7614,-3.7569,-3.7629,-3.7674,-3.7883,-3.8167,-3.8422,-3.8646,-3.8871,-3.9305,-3.9424,-3.9379,-3.9424,-3.9424,-3.9424,-3.9424,-3.9424,-3.9424,-3.9424,-3.9424,-3.9265,-3.7238,-3.676,-3.7098,-3.6212,-3.5588,-3.5842,-3.6225,-3.6304,-3.6081,-3.6094,-3.5305,-3.4428,-3.3953,-3.3797,-3.3313,-3.3167,-3.3081,-3.3081,-3.3081,-3.3081,-3.3081,-3.3194,-3.3483,-3.4123,-3.4675,-3.5203,-3.5768,-3.595,-3.5763,-3.4471,-3.397,-3.2855,-3.1019,-2.9713,-2.89,-2.8794,-2.8804,-2.8996,-2.9408,-2.9807,-3.0824,-3.1735,-3.2655,-3.3859,-3.4957,-3.6168,-3.6263,-3.637,-3.637,-3.637,-3.637,-3.637,-3.637,-3.637,-3.637,-3.637,-3.637,-3.637,-3.637,-3.637,-3.637,-3.637,-3.637,-3.637,-3.637,-3.637,-3.637,-3.637,-3.637,-3.637,-3.637,-3.637,-3.637,-3.637,-3.637,-3.637,-3.637,-3.3506,-3.2947,-3.3685,-3.4624,-3.5424,-3.5489,-3.5554,-3.5554,-3.5489,-3.5489,-3.5719,-3.6214,-3.6342,-3.6686,-3.6866,-3.712,-3.7165,-3.6911,-3.7015,-3.706,-3.7195,-3.7285,-3.736,-3.7494,-3.7913,-3.8302,-3.8691,-3.9005,-3.9155,-3.917,-3.92,-3.9364,-3.9424,-3.9424,-3.9424,-3.9424,-3.9424,-3.8943,-3.7724,-3.6682,-3.5974,-3.5116,-3.465,-3.4815,-3.5278,-3.5359,-3.4815,-3.4511,-3.4037,-3.3641,-3.3313,-3.324,-3.3154,-3.3081,-3.3081,-3.3081,-3.3081,-3.3081,-3.3081,-3.3093,-3.3445,-3.3884,-3.4361,-3.4889,-3.5454,-3.5575,-3.5375,-3.5187,-3.4678,-3.3674,-3.1836,-3.0214,-2.9408,-2.8804,-2.8601,-2.8291,-2.8398,-2.8495,-2.9303,-3.0317,-3.1633,-3.2944,-3.4264,-3.5571,-3.6168,-3.6358,-3.637,-3.637,-3.637,-3.637,-3.637,-3.637,-3.637,-3.637,-3.637,-3.637,-3.637,-3.637,-3.637,-3.637,-3.637,-3.637,-3.637,-3.637,-3.637,-3.637,-3.637,-3.637,-3.637,-3.637,-3.637,-3.637,-3.637,-3.637,-3.637,-3.3227,-3.3739,-3.3959,-3.4543,-3.5424,-3.5489,-3.5489,-3.5489,-3.5489,-3.5489,-3.5534,-3.5624,-3.5938,-3.6462,-3.5968,-3.6103,-3.6582,-3.6297,-3.5968,-3.5878,-3.6462,-3.6626,-3.6791,-3.7045,-3.7404,-3.7674,-3.7898,-3.8108,-3.8556,-3.8646,-3.8886,-3.9305,-3.9409,-3.9424,-3.9424,-3.9424,-3.9352,-3.887,-3.8308,-3.7266,-3.6554,-3.5453,-3.3628,-3.3784,-3.4415,-3.4108,-3.3882,-3.4345,-3.3953,-3.3471,-3.3167,-3.3167,-3.324,-3.324,-3.3154,-3.3326,-3.324,-3.3081,-3.3081,-3.3081,-3.3382,-3.3696,-3.4173,-3.4587,-3.5115,-3.5499,-3.5543,-3.5846,-3.5379,-3.4581,-3.2955,-3.1133,-3.012,-2.9408,-2.9006,-2.8601,-2.8291,-2.8504,-2.891,-3.012,-3.1338,-3.2655,-3.397,-3.5174,-3.6168,-3.6263,-3.637,-3.637,-3.637,-3.637,-3.637,-3.637,-3.637,-3.637,-3.637,-3.637,-3.637,-3.637,-3.637,-3.637,-3.637,-3.637,-3.637,-3.637,-3.637,-3.637,-3.637,-3.637,-3.637,-3.637,-3.637,-3.637,-3.637,-3.637,-3.637]}]]